     2              OBSERVATION DATA    GPS                 RINEX VERSION / TYPE
teqc 1997Jul24 19970814                                     PGM / RUN BY / DATE
                                                            COMMENT
Original Marker Name: 0505                                  COMMENT
Campaign Name: HPGN 1991                                    COMMENT
4-Character Station Name: 0505                              COMMENT
6-Character Antenna Code: TRMSST                            COMMENT
Vertical Measurement Point: BPA                             COMMENT
Vertical Offset to Rinex Ref. Point: 0.0000                 COMMENT
Radial Measurement Point: RRP                               COMMENT
Radial Offset to Rinex Ref. Point: 0.0000                   COMMENT
Antenna Height from Field Measurement: 2.2200 m             COMMENT
Original XYZ: -2658543.5455 -4498176.8201 3645531.4253      COMMENT
New XYZ position is based on association with SCEC monument COMMENT
E1E9Q4N0+0011. Position of that monument is believed to be  COMMENT
valid to within 1 m horizontally; vertical accuracy         COMMENT
should be no worse than 3-times this value.                 COMMENT
                                                            COMMENT
Revised Rinex header created by UCSD GPS archive for        COMMENT
GSAC on 19-Apr-1999 (1999:109) 06:56:35 GMT                 COMMENT
For assistance contact dagnew@ucsd.edu or hjohnson@ucsd.edu COMMENT
                                                            COMMENT
HPGN-CALIF STA 05-05                                        MARKER NAME
unknown NATIONAL GEODETIC SURVEY                            OBSERVER / AGENCY
483 TRIMBLE 4000 SST NP 4.30 / SP 4.20                      REC # / TYPE / VERS
19 TR 4000SST L1/L2 GEO                                     ANT # / TYPE
 -2658546.0000 -4498184.0000  3645536.0000                  APPROX POSITION XYZ
        2.2200        0.0000        0.0000                  ANTENNA: DELTA H/E/N
     1     1     0                                          WAVELENGTH FACT L1/2
     3    C1    L1    L2                                    # / TYPES OF OBSERV
     0                                                      INTERVAL
  1991     4    30    19    29   45.000000                  TIME OF FIRST OBS
  1991     5     1     1    29   60.000000                  TIME OF LAST OBS
     0                                                      # OF SATELLITES
                                                            END OF HEADER
 91  4 30 19 29 45.0000000  0  4G18G 2G11G19
  20795303.609          -0.10417        -0.46833
  23597737.023          -0.62216        -0.42631
  23891285.633          -0.56416        -0.32331
  20845803.844          -0.62317        -0.40932
 91  4 30 19 30  0.0000000  0  4G18G 2G11G19
  20799143.828       20176.602 7     15721.61623
  23588728.961      -47326.116 6    -36877.30521
  23885303.539      -31446.546 6    -24503.57921
  20845711.172        -483.670 7      -376.79022
 91  4 30 19 30 15.0000000  0  4G18G 2G11G19
  20802990.867       40388.381 7     31471.03722
  23579719.6644     -94675.22946    -73772.59161
  23879324.000      -62869.728 6    -48989.09221
  20845614.570        -994.309 7      -774.66722
 91  4 30 19 30 30.0000000  0  4G18G 2G11G19
  20806844.188       60651.266 7     47260.28322
  23570708.383     -142031.485 6   -110673.44421
  23873350.742      -94253.341 6    -73443.74821
  20845515.180       -1516.191 7     -1181.30822
 91  4 30 19 30 45.0000000  0  4G18G 2G11G19
  20810713.766       80977.663 8     63099.01322
  23561695.398     -189382.482 6   -147570.18021
  23867387.6724    -125584.95146    -97857.90061
  20845415.734       -2037.220 7     -1587.28522
 91  4 30 19 31  0.0000000  0  4G18G 2G11G19
  20814593.328      101372.586 8     78991.14022
  23552686.8444    -236722.86446   -184458.66361
  23861436.6094    -156858.86946   -122227.09461
  20845319.508       -2552.194 7     -1988.54222
 91  4 30 19 31 15.0000000  0  4G18G 2G11G19
  20818488.477      121837.341 8     94937.68523
  23543680.039     -284051.249 6   -221337.77921
  23855495.1414    -188073.36446   -146549.97261
  20845221.969       -3059.706 7     -2383.98922
 91  4 30 19 31 30.0000000  0  4G18G 2G11G19
  20822396.953      142377.035 8    110942.61723
  23534676.8914    -331362.37546   -258203.46761
  23849568.7974    -219223.07646   -170822.37561
  20845125.859       -3554.896 7     -2769.82922
 91  4 30 19 31 45.0000000  0  4G18G 2G11G19
  20826321.367      162993.762 8    127007.57623
  23525676.961     -378653.920 6   -295053.88321
  23843654.977     -250305.544 6   -195042.38221
  20845036.172       -4035.645 7     -3144.41922
 91  4 30 19 32  0.0000000  0  5G18G 2G11G16G19
  20830260.602      183696.657 7    143139.67523
  23516683.8134    -425916.25746   -331881.53561
  23837755.3204    -281310.97046   -219202.35261
  24310035.3594         -0.44955
  20844947.313       -4492.489 7     -3500.38322
 91  4 30 19 32 15.0000000  0  5G18G 2G11G16G19
  20834217.414      204485.322 8    159338.60923
  23507697.9064    -473149.69446   -368686.67461
  23831867.516     -312239.516 6   -243302.42321
  24303860.0704     -32436.11445
  20844864.883       -4925.983 7     -3838.14922
 91  4 30 19 32 30.0000000  0  5G18G 2G11G16G19
  20838187.883      225355.006 8    175600.68023
  23498712.414     -520358.934 6   -405472.96521
  23825996.1644    -343095.64146   -267346.05861
  24297702.8754     -64787.78845
  20844785.320       -5340.854 7     -4161.40822
 91  4 30 19 32 45.0000000  0  5G18G 2G11G16G19
  20842174.781      246307.540 8    191927.31423
  23489732.992     -567541.846 6   -442238.75221
  23820140.0084    -373876.94446   -291331.39561
  24291560.656      -97053.207 5
  20844712.078       -5735.237 7     -4468.69722
 91  4 30 19 33  0.0000000  0  5G18G 2G11G16G19
  20846178.398      267345.425 8    208320.45823
  23480759.1564    -614695.63246   -478981.83661
  23814295.828     -404580.597 6   -315256.23921
  24285441.3444    -129229.50045
  20844640.984       -6106.815 7     -4758.22122
 91  4 30 19 33 15.0000000  0  5G18G 2G11G16G19
  20850197.297      288469.861 8    224781.04522
  23471796.156     -661818.937 6   -515701.15121
  23808470.3134    -435205.03146   -339119.33861
  24279336.3204    -161315.09645        -0.02671
  20844574.977       -6454.271 7     -5028.95122
 91  4 30 19 33 30.0000000  0  5G18G 2G11G16G19
  20854234.516      309680.179 8    241308.55323
  23462831.9224    -708912.13446   -552397.03961
  23802657.586     -465750.403 6   -362920.83021
  24273251.414     -193310.596 5    -24931.58121
  20844512.078       -6778.140 7     -5281.29322
 91  4 30 19 33 45.0000000  0  5G18G 2G11G16G19
  20858285.781      330973.400 8    257900.64223
  23453873.9384    -755978.03046   -589071.63161
  23796857.5164    -496219.33546   -386662.74861
  24267181.508     -225218.497 5    -49794.88321
  20844457.188       -7081.297 7     -5517.50322
 91  4 30 19 34  0.0000000  0  5G18G 2G11G16G19
  20862355.094      352356.712 8    274562.93923
  23444923.1334    -803008.96946   -625719.00061
  23791075.9144    -526603.96746   -410339.00861
  24261125.234     -257031.417 5    -74584.16421
  20844402.211       -7356.539 7     -5731.95922
 91  4 30 19 34 15.0000000  0  5G18G 2G11G16G19
  20866441.000      373825.681 8    291291.98222
  23435982.3674    -850009.38546   -662342.56361
  23785305.8674    -556908.61746   -433952.92961
  24255089.828     -288753.539 5    -99302.64921
  20844357.250       -7608.659 7     -5928.39922
 91  4 30 19 34 30.0000000  0  5G18G 2G11G16G19
  20870544.172      395380.865 8    308088.21222
  23427043.2194    -896978.70146   -698941.90461
  23779554.234     -587132.409 6   -457503.85221
  24249065.6094    -320383.92245   -123949.70961
  20844309.773       -7836.946 7     -6106.26822
 91  4 30 19 34 45.0000000  0  5G18G 2G11G16G19
  20874662.844      417026.346 8    324954.79923
  23418114.7584    -943912.25046   -735513.38161
  23773823.4844    -617270.64946   -480988.10761
  24243066.3914    -351918.32445   -148521.97861
  20844274.414       -8036.927 7     -6262.08122
 91  4 30 19 35  0.0000000  0  5G18G 2G11G16G19
  20878799.141      438767.197 8    341895.70123
  23409190.7974    -990804.79946   -772052.90961
  23768105.336     -647317.946 6   -504401.49521
  24237082.8834    -383351.32145   -173015.19861
  20844241.367       -8203.509 7     -6391.86822
 91  4 30 19 35 15.0000000  0  5G18G 2G11G16G19
  20882952.969      460596.082 8    358905.20723
  23400272.4144   -1037663.60446   -808566.14961
  23762403.297     -677281.402 6   -527749.57921
  24231123.422     -414690.273 5   -197435.15721
  20844216.492       -8344.195 7
 91  4 30 19 35 30.0000000  0  5G18G 2G11G16G19
  20887123.336      482514.522 8    375984.48723
  23391362.500    -1084486.827 6   -845051.63721
  23756718.813     -707158.881 6   -551030.64321
  24225178.3834    -445933.10045   -221780.20561
  20844193.891       -8457.321 7
 91  4 30 19 35 45.0000000  0  5G18G 2G11G16G19
  20891312.242      504524.722 8    393135.26822
  23382460.484    -1131271.788 6   -881507.33721
  23751048.180     -736947.587 6   -574242.54221
  24219247.906     -477077.099 5   -246048.23721
  20844177.563       -8540.623 7
 91  4 30 19 36  0.0000000  0  5G18G 2G11G16G19
  20895517.867      526626.080 8    410357.08323
  23373565.7504   -1178019.31146   -917933.87061
  23745395.508     -766648.009 6   -597385.65121
  24213341.8054    -508122.86845   -270239.72261
  20844166.664       -8594.885 7
 91  4 30 19 36 15.0000000  0  5G18G 2G11G16G19
  20899743.3524     548819.59948    427650.70663
  23364677.445    -1224728.107 6   -954330.21621
  23739760.273     -796258.908 6   -620459.00221
  24207457.1094    -539069.11745   -294353.68161
  20844162.352       -8619.275 7
 91  4 30 19 36 30.0000000  0  5G18G 2G11G16G19
  20903982.289      571105.554 8    445016.36123
  23355795.383    -1271397.401 6   -990695.79021
  23734144.3674    -825779.22146   -643461.74961
  24201579.6644    -569915.08244   -318389.47961
  20844164.320       -8613.006 7
 91  4 30 19 36 45.0000000  0  5G18G 2G11G16G19
  20908238.547      593481.970 8    462452.51023
  23346920.141    -1318029.460 6  -1027032.33521
  23728540.9144    -855210.83346   -666395.39861
  24195730.852     -600663.136 4   -342348.99421
  20844171.313       -8578.430 7
 91  4 30 19 37  0.0000000  0  5G18G 2G11G16G19
  20912514.1254     615951.83048    479961.48463
  23338054.867    -1364620.562 6  -1063336.98221
  23722961.352     -884549.945 6   -689256.96321
  24189903.688     -631309.421 5   -366229.18921
  20844182.430       -8512.075 7
 91  4 30 19 37 15.0000000  0  5G18G 2G11G16G19
  20916809.570      638517.291 8    497544.94623
  23329194.5314   -1411168.44546  -1099607.95161
  23717393.5554    -913794.14746   -712044.59361
  24184081.6954    -661851.37944   -390028.12561
  20844204.023       -8411.807 7
 91  4 30 19 37 30.0000000  0  5G18G 2G11G16G19
  20921122.633      661181.221 8    515205.13023
  23320349.211    -1457669.954 6  -1135842.76621
  23711851.422     -942940.218 6   -734755.73521
  24178291.930     -692286.109 4   -413743.47821
  20844231.367       -8274.698 7
 91  4 30 19 37 45.0000000  0  5G18G 2G11G16G19
  20925455.1804     683939.06248    532938.48063
  23311507.4224   -1504129.69446  -1172045.03261
  23706318.398     -971992.596 6   -757393.87721
  24172522.5394    -722618.30944   -437378.94161
  20844261.6954      -8105.61047
 91  4 30 19 38  0.0000000  0  5G18G 2G11G16G19
  20929806.3594     706810.34448    550760.22963
  23302677.164    -1550527.595 6  -1208199.13621
  23700812.539    -1000931.095 6   -779943.28621
  24166774.367     -752827.692 4   -460918.69821
  20844300.367       -7884.717 7
 91  4 30 19 38 15.0000000  0  5G18G 2G11G16G19
  20934176.883      729780.148 8    568658.75323
  23293854.6334   -1596878.30846  -1244316.46061
  23695324.7344   -1029769.97046   -802415.05061
  24161044.4064    -782928.60544   -484373.94061
  20844352.195       -7626.739 7     -5942.22022
 91  4 30 19 38 30.0000000  0  5G18G 2G11G16G19
  20938565.656      752847.573 8    586633.35722
  23285045.570    -1643182.571 6  -1280397.58821
  23689856.211    -1058509.855 6   -824809.68621
  24155338.531     -812922.087 4   -507745.49821
  20844408.672       -7332.631 7     -5713.02622
 91  4 30 19 38 45.0000000  0  5G18G 2G11G16G19
  20942974.570      776011.443 8    604683.11122
  23276240.1884   -1689441.68846  -1316443.53261
  23684402.656    -1087151.829 6   -847128.03321
  24149650.8754    -842809.33444   -531034.23961
  20844471.680       -7003.898 7     -5456.85422
 91  4 30 19 39  0.0000000  0  5G18G 2G11G16G19
  20947401.5864     799272.57248    622808.63663
  23267446.6884   -1735654.09446  -1352453.08561
  23678975.219    -1115694.381 6   -869368.91221
  24143987.9694    -872588.65945   -554238.88061
  20844537.797       -6639.224 7     -5172.67622
 91  4 30 19 39 15.0000000  0  5G18G 2G11G16G19
  20951847.6724     822630.58048    641009.64463
  23258660.711    -1781819.992 6  -1388426.39621
  23673562.563    -1144137.390 6   -891532.21921
  24138339.922     -902260.205 5   -577359.55621
  20844618.195       -6238.915 7     -4860.73422
 91  4 30 19 39 30.0000000  0  5G18G 2G11G16G19
  20956308.1414     846082.65448    659283.95663
  23249886.531    -1827942.039 6  -1424365.54921
  23668167.805    -1172483.440 6   -913619.96321
  24132711.7584    -931826.79245   -600398.46061
  20844700.992       -5806.013 7     -4523.39322
 91  4 30 19 39 45.0000000  0  5G18G 2G11G16G19
  20960791.0634     869634.50248    677636.01663
  23241117.250    -1874014.571 6  -1460266.10621
  23662793.742    -1200726.646 6   -935627.59421
  24127105.7274    -961282.66545   -623351.05461
  20844788.695       -5334.810 7     -4156.20722
 91  4 30 19 40  0.0000000  0  5G18G 2G11G16G19
  20965291.7504     893286.41448    696066.05363
  23232361.172    -1920036.714 6  -1496127.40121
  23657440.0164   -1228865.95946   -957554.25361
  24121523.7194    -990626.82745   -646216.62761
  20844886.625       -4824.588 7     -3758.61422
 91  4 30 19 40 15.0000000  0  5G18G 2G11G16G19
  20969810.977      917031.152 8    714568.41923
  23223615.9304   -1966015.59846  -1531954.97061
  23652102.523    -1256908.341 6   -979405.38021
  24115957.070    -1019866.253 5   -669000.57421
  20844987.477       -4282.705 6     -3336.35522
 91  4 30 19 40 30.0000000  0  5G18G 2G11G16G19
  20974347.813      940874.129 8    733147.33623
  23214869.6484   -2011945.69646  -1567744.56561
  23646783.281    -1284847.960 6  -1001176.43321
  24110413.727    -1048995.312 5   -691698.52321
  20845099.484       -3703.712 7     -2885.18522
 91  4 30 19 40 45.0000000  0  5G18G 2G11G16G19
  20978902.242      964810.894 8    751799.33823
  23206137.8754   -2057831.22646  -1603499.39761
  23641484.594    -1312688.917 6  -1022870.60921
  24104894.9614   -1078018.32545   -714313.84561
  20845216.2424      -3092.15547     -2408.63762
 91  4 30 19 41  0.0000000  0  5G18G 2G11G16G19
  20983475.320      988842.442 8    770525.19823
  23197418.039    -2103670.948 6  -1639218.55621
  23636209.492    -1340429.831 6  -1044486.82421
  24099392.250    -1106934.113 5   -736845.61521
  20845336.266       -2446.952 7     -1905.86922
 91  4 30 19 41 15.0000000  0  5G18G 2G11G16G19
  20988065.602     1012964.781 8    789321.80023
  23188699.8914   -2149468.69946  -1674904.99761
  23630944.4614   -1368074.40346  -1066027.95661
  24093905.484    -1135746.309 5   -759296.66321
  20845468.820       -1771.999 7     -1379.92122
 91  4 30 19 41 30.0000000  0  5G18G 2G11G16G19
  20992676.2734    1037181.56548    808191.98963
  23179993.578    -2195220.179 6  -1710555.38821
  23625706.9924   -1395618.14946  -1087490.53761
  24088447.242    -1164450.668 5   -781663.68921
  20845601.102       -1063.307 7      -827.67822
 91  4 30 19 41 45.0000000  0  5G18G 2G11G16G19
  20997300.9924    1061493.44748    827136.28463
  23171297.7034   -2240924.61946  -1746169.11661
  23620484.234    -1423060.056 6  -1108873.76221
  24083007.117    -1193046.318 5   -803945.99421
  20845742.3364       -320.18947      -248.61462
 91  4 30 19 42  0.0000000  0  5G18G 2G11G16G19
  21001942.359     1085892.043 8    846148.15023
  23162606.8054   -2286590.32146  -1781752.66661
  23615275.930    -1450408.271 6  -1130183.98321
  24077582.1174   -1221541.46345   -826150.00961
  20845889.289         448.952 7       350.73122
 91  4 30 19 42 15.0000000  0  5G18G 2G11G16G19
  21006604.0864    1110380.65448    865230.15863
  23153926.984    -2332213.671 6  -1817303.21421
  23610093.891    -1477659.096 6  -1151418.31621
  24072179.3284   -1249932.41845   -848272.80461
  20846041.844        1247.348 7       972.87222
 91  4 30 19 42 30.0000000  0  5G18G 2G11G16G19
  21011280.992     1134960.780 8    884383.47423
  23145251.945    -2377792.865 6  -1852819.36221
  23604928.859    -1504810.480 6  -1172575.16421
  24066796.3284   -1278217.30945   -870312.98861
  20846200.125        2076.805 7      1619.21722
 91  4 30 19 42 45.0000000  0  5G18G 2G11G16G19
  21015976.3754    1159631.40048    903607.30663
  23136586.523    -2423329.027 6  -1888301.96021
  23599779.297    -1531863.312 6  -1193655.20521
  24061433.922    -1306397.492 5   -892271.52621
  20846362.609        2936.148 7      2288.85022
 91  4 30 19 43  0.0000000  0  5G18G 2G11G16G19
  21020689.3594    1184397.61748    922905.62763
  23127928.2034   -2468816.53646  -1923746.66461
  23594650.008    -1558812.050 6  -1214654.15421
  24056097.4844   -1334467.28945   -914144.10261
  20846530.953        3830.705 7      2985.92122
 91  4 30 19 43 15.0000000  0  5G18G 2G11G16G19
  21025419.4774    1209259.91848    942278.82163
  23119282.8914   -2514254.74246  -1959152.93861
  23589542.008    -1585655.678 6  -1235571.18821
  24050771.281    -1362425.871 5   -935929.98421
  20846710.469        4760.873 7      3710.75122
 91  4 30 19 43 30.0000000  0  5G18G 2G11G16G19
  21030168.828     1234213.040 8    961722.78523
  23110647.977    -2559648.425 6  -1994524.53621
  23584454.688    -1612398.906 6  -1256409.99121
  24045473.9614   -1390278.10745   -957633.01861
  20846893.805        5721.682 7      4459.44722
 91  4 30 19 43 45.0000000  0  5G18G 2G11G16G19
  21034933.1024    1259253.36748    981234.69763
  23102016.750    -2605001.248 6  -2029864.29121
  23579382.500    -1639045.362 6  -1277173.37721
  24040190.422    -1418027.561 5   -979255.93221
  20847080.109        6709.165 7      5228.93122
 91  4 30 19 44  0.0000000  0  5G18G 2G11G16G19
  21039715.8594    1284383.67248   1000816.71563
  23093393.469    -2650310.151 6  -2065169.81221
  23574329.0704   -1665591.69446  -1297858.75761
  24034933.5164   -1445671.14545  -1000796.38461
  20847273.375        7726.411 7      6021.59822
 91  4 30 19 44 15.0000000  0  5G18G 2G11G16G19
  21044514.4694    1309604.31148   1020469.12663
  23084780.078    -2695574.300 6  -2100440.47021
  23569296.500    -1692036.793 6  -1318465.25521
  24029686.539    -1473208.148 5  -1022253.78221
  20847473.984        8774.314 7      6838.16322
 91  4 30 19 44 30.0000000  0  5G18G 2G11G16G19
  21049330.828     1334915.329 8   1040191.96823
  23076171.289    -2740793.515 6  -2135676.10721
  23564284.7504   -1718380.29946  -1338992.58861
  24024475.0704   -1500638.42445  -1043627.98261
  20847676.523        9852.656 7      7678.44522
 91  4 30 19 44 45.0000000  0  5G18G 2G11G16G19
  21054164.9384    1360314.66148   1059983.62163
  23067576.156    -2785969.823 6  -2170878.31421
  23559292.7344   -1744624.17646  -1359442.28461
  24019269.469    -1527963.345 5  -1064920.12021
  20847890.203       10959.333 7      8540.80222
 91  4 30 19 45  0.0000000  0  5G18G 2G11G16G19
  21059015.9224    1385805.36948   1079846.47963
  23058989.969    -2831099.797 6  -2206044.42721
  23554313.4064   -1770764.86546  -1379811.58961
  24014088.852    -1555179.770 5  -1086127.70721
  20848103.539       12097.661 7      9427.82622
 91  4 30 19 45 15.0000000  0  6G18G 2G11G16G19G 6
  21063884.4614    1411387.75048   1099780.77363
  23050410.8834   -2876182.99246  -2241174.07361
  23549361.742    -1796801.789 6  -1400100.02321
  24008935.383    -1582287.154 5  -1107250.31721
  20848328.805       13267.767 7     10339.60822
  24486292.8134         -0.08953
 91  4 30 19 45 30.0000000  0  6G18G 2G11G16G19G 6
  21068768.6644    1437059.26848   1119784.52763
  23041841.8444   -2921221.53846  -2276268.92761
  23544428.7194   -1822736.96546  -1420309.20161
  24003797.281    -1609287.971 5  -1128289.89321
  20848556.250       14467.265 7     11274.29422
  24479483.4534     -35788.26943
 91  4 30 19 45 45.0000000  0  6G18G 2G11G16G19G 6
  21073671.0944    1462821.95248   1139859.31063
  23033279.586    -2966213.121 6  -2311327.20421
  23539510.5084   -1848567.83446  -1440437.08161
  23998681.781    -1636179.635 5  -1149244.41321
  20848791.422       15698.475 6     12233.69822
  24472671.109      -71569.720 3        -0.00531
 91  4 30 19 46  0.0000000  0  6G18G 2G11G16G19G 6
  21078591.8834    1488676.22247   1160005.46163
  23024725.656    -3011157.064 6  -2346348.34721
  23534617.477    -1874293.689 6  -1460483.14021
  23993579.906    -1662961.645 5  -1170113.50421
  20849030.945       16961.824 7     13218.13722
  24465861.000     -107344.038 3    -27876.02421
 91  4 30 19 46 15.0000000  0  6G18G 2G11G16G19G 6
  21083526.3364    1514616.41147   1180218.56563
  23016182.195    -3056058.837 6  -2381336.63321
  23529739.7894   -1899919.69446  -1480451.39361
  23988504.3054   -1689639.33645  -1190901.27461
  20849276.922       18251.733 6     14223.28122
  24459059.3674    -143116.77843    -55750.76761
 91  4 30 19 46 30.0000000  0  6G18G 2G11G16G19G 6
  21088479.938     1540644.643 7   1200500.28123
  23007643.4454   -3100916.06846  -2416290.22261
  23524882.6094   -1925443.37846  -1500339.91761
  23983448.2894   -1716210.34845  -1211605.93761
  20849524.9064      19570.51347     15250.91062
  24452254.984     -178885.956 3    -83622.74821
 91  4 30 19 46 45.0000000  0  6G18G 2G11G16G19G 6
  21093450.5234    1566759.09547   1220849.17963
  22999114.891    -3145730.612 6  -2451210.52721
  23520043.0634   -1950866.23946  -1520149.87661
  23978420.6564   -1742676.62045  -1232228.97261
  20849785.609       20916.149 7     16299.47222
  24445448.1804    -214653.42543   -111493.38461
 91  4 30 19 47  0.0000000  0  6G18G 2G11G16G19G 6
  21098435.820     1592954.863 7   1241261.41923
  22990596.6414   -3190506.94446  -2486101.08261
  23515223.9694   -1976192.77646  -1539884.77661
  23973395.5554   -1769042.10545  -1252773.48461
  20850041.8204      22283.89347     17365.25762
  24438633.914     -250423.900 3   -139366.37421
 91  4 30 19 47 15.0000000  0  6G18G 2G11G16G19G 6
  21103434.6254    1619238.60747   1261742.22563
  22982082.922    -3235237.966 6  -2520956.31521
  23510426.805    -2001415.826 6  -1559539.04121
  23968406.0314   -1795299.90345  -1273234.08561
  20850309.3834      23680.71446     18453.69862
  24431834.4304    -286190.52243   -167236.36461
 91  4 30 19 47 30.0000000  0  6G18G 2G11G16G19G 6
  21108453.5084    1645608.67047   1282290.29663
  22973581.984    -3279925.262 6  -2555777.47221
  23505644.6724   -2026536.57146  -1579113.58861
  23963426.2814   -1821451.52345  -1293611.94461
  20850577.945       25105.046 7     19563.57922
  24425027.141     -321954.818 3   -195104.56421
 91  4 30 19 47 45.0000000  0  6G18G 2G11G16G19G 6
  21113488.8594    1672061.20547   1302902.62263
  22965084.7344   -3324572.37746  -2590567.32461
  23500884.250    -2051558.592 6  -1598611.21321
  23958468.5784   -1847500.63645  -1313909.93361
  20850856.242       26553.137 7     20691.97422
  24418221.1024    -357720.74543   -222973.99161
 91  4 30 19 48  0.0000000  0  6G18G 2G11G16G19G 6
  21118539.297     1698601.689 7   1323583.47223
  22956597.313    -3369173.571 6  -2625321.40721
  23496142.7194   -2076476.09946  -1618027.38861
  23953532.672    -1873441.622 5  -1334123.67921
  20851139.703       28030.392 7     21843.10022
  24411412.7974    -393482.80144   -250840.45861
 91  4 30 19 48 15.0000000  0  6G18G 2G11G16G19G 6
  21123604.367     1725227.002 7   1344330.42623
  22948120.0314   -3413731.73146  -2660041.94761
  23491420.2974   -2101291.60646  -1637364.08261
  23948614.766    -1899277.211 5  -1354255.26821
  20851423.0784      29533.81747     23014.60662
  24404608.0474    -429244.12043   -278706.30961
 91  4 30 19 48 30.0000000  0  6G18G 2G11G16G19G 6
  21128688.570     1751937.191 7   1365143.52923
  22939648.602    -3458246.582 6  -2694728.74121
  23486715.031    -2126004.736 6  -1656621.02021
  23943716.4384   -1925006.95645  -1374304.39561
  20851710.6644      31063.54447     24206.61162
  24397804.1174    -465004.61344   -306571.55961
 91  4 30 19 48 45.0000000  0  6G18G 2G11G16G19G 6
  21133787.820     1778733.601 7   1386023.82923
  22931182.7734   -3502716.58946  -2729380.59461
  23482033.6174   -2150613.83446  -1675796.88361
  23938838.820    -1950629.499 5  -1394269.99421
  20852012.2194      32621.08647     25420.28962
  24391001.023     -500762.776 4   -334434.95621
 91  4 30 19 49  0.0000000  0  6G18G 2G11G16G19G 6
  21138903.8204    1805617.25747   1406972.10563
  22922729.031    -3547140.326 6  -2763996.38421
  23477371.3204   -2175117.35346  -1694890.46661
  23933988.547    -1976143.057 5  -1414150.63321
  20852309.680       34207.597 7     26656.54422
  24384197.0554    -536517.52444   -362295.69261
 91  4 30 19 49 15.0000000  0  6G18G 2G11G16G19G 6
  21144035.4844    1832583.71647   1427984.88963
  22914286.461    -3591522.214 6  -2798579.57521
  23472728.336    -2199519.545 6  -1713905.11321
  23929151.148    -2001552.279 5  -1433949.99621
  20852621.250       35818.581 7     27911.87122
  24377391.0634    -572273.35944   -390157.31661
 91  4 30 19 49 30.0000000  0  6G18G 2G11G16G19G 6
  21149181.9924    1859636.90647   1449065.26463
  22905846.469    -3635857.736 6  -2833126.62921
  23468104.3984   -2223815.90546  -1732837.28361
  23924334.313    -2026852.513 5  -1453664.46221
  20852929.5234      37458.17947     29189.49162
  24370585.8524    -608026.28643   -418016.65661
 91  4 30 19 49 45.0000000  0  6G18G 2G11G16G19G 6
  21154346.3444    1886772.57747   1470209.91063
  22897417.852    -3680151.217 6  -2867640.91721
  23463497.1094   -2248010.30546  -1751689.99161
  23919543.8754   -2052048.05845  -1473297.32061
  20853246.5164      39122.20447     30486.13962
  24363781.406     -643780.437 4   -445876.98821
 91  4 30 19 50  0.0000000  0  6G18G 2G11G16G19G 6
  21159527.328     1914000.650 7   1491426.54323
  22889000.5864   -3724392.18146  -2902114.29961
  23458917.992    -2272092.252 6  -1770455.08521
  23914765.367    -2077128.632 5  -1492840.59821
  20853572.3524      40820.96447     31809.85162
  24356983.227     -679525.568 4   -473730.24321
 91  4 30 19 50 15.0000000  0  6G18G 2G11G16G19G 6
  21164725.734     1941317.598 7   1512712.42123
  22880591.602    -3768583.912 6  -2936549.30521
  23454355.3754   -2296064.99046  -1789135.08061
  23910016.1414   -2102097.60745  -1512296.89261
  20853901.406       42551.085 7     33158.01122
  24350180.164     -715265.374 5   -501579.37721
 91  4 30 19 50 30.0000000  0  6G18G 2G11G16G19G 6
  21169942.9304    1968729.95447   1534072.67463
  22872191.8914   -3812719.77446  -2970940.79261
  23449814.547    -2319921.729 6  -1807724.69721
  23905289.875    -2126948.407 5  -1531661.11521
  20854235.016       44318.852 7     34535.50422
  24343386.1254    -750993.42545   -529419.32961
 91  4 30 19 50 45.0000000  0  6G18G 2G11G16G19G 6
  21175178.367     1996244.657 7   1555512.65423
  22863807.281    -3856792.581 6  -3005283.13321
  23445298.3364   -2343655.10446  -1826218.18361
  23900583.3524   -2151673.28245  -1550927.22361
  20854581.6094      46131.38446     35947.87462
  24336587.516     -786702.546 5   -557244.54721
 91  4 30 19 51  0.0000000  0  6G18G 2G11G16G19G 6
  21180432.719     2023861.676 7   1577032.35823
  22855430.359    -3900802.013 6  -3039576.09821
  23440805.500    -2367264.488 6  -1844615.04321
  23895902.461    -2176272.646 5  -1570095.55421
  20854935.8594      47989.04146     37395.40862
  24329796.7344    -822392.72145   -585054.99061
 91  4 30 19 51 15.0000000  0  6G18G 2G11G16G19G 6
  21185710.273     2051592.910 7   1598641.05623
  22847069.5394   -3944735.78046  -3073810.09161
  23436339.3674   -2390737.53946  -1862905.66661
  23891248.1884   -2200733.67245  -1589156.07761
  20855299.641       49903.678 7     38887.33822
  24323013.922     -858051.828 5   -612841.25721
 91  4 30 19 51 30.0000000  0  6G18G 2G11G16G19G 6
  21191010.4304    2079444.43047   1620343.47963
  22838727.563    -3988587.913 6  -3107980.48221
  23431898.281    -2414068.054 6  -1881085.23721
  23886616.063    -2225050.530 5  -1608104.21721
  20855671.9924      51881.11847     40428.20862
  24316229.9454    -893673.99245   -640598.69161
 91  4 30 19 51 45.0000000  0  6G18G 2G11G16G19G 6
  21196337.453     2107434.915 7   1642154.18423
  22830400.164    -4032339.521 6  -3142072.53821
  23427489.1484   -2437237.07146  -1899138.96061
  23882023.758    -2249204.372 5  -1626925.38021
  20856068.9224      53940.10146     42032.61762
  24309465.2114    -929240.56145   -668312.79761
 91  4 30 19 52  0.0000000  0  6G18G 2G11G16G19G 6
  21201692.1954    2135578.80547   1664084.45263
  22822094.7504   -4075975.62046  -3176074.58461
  23423115.547    -2460229.667 6  -1917055.21321
  23877463.5864   -2273180.04245  -1645607.70761
  20856478.3204      56095.68846     43712.30462
  24302708.969     -964736.800 5   -695972.16721
 91  4 30 19 52 15.0000000  0  6G18G 2G11G16G19G 6
  21207081.211     2163893.662 7   1686147.93223
  22813820.359    -4119478.475 6  -3209972.80821
  23418777.3674   -2483027.85846  -1934819.97161
  23872935.6724   -2296959.89445  -1664137.42361
  20856908.789       58365.431 6     45480.94322
  24295972.3054   -1000145.15845   -723563.02361
 91  4 30 19 52 30.0000000  0  6G18G 2G11G16G19G 6
  21212507.570     2192404.134 7   1708363.83522
  22805568.203    -4162823.371 6  -3243747.95021
  23414480.3444   -2505606.79946  -1952413.89661
  23868453.9144   -2320519.12945  -1682495.22161
  20857370.6804      60773.98946     47357.74862
  24289251.3984   -1035441.05845   -751066.28161
 91  4 30 19 52 45.0000000  0  6G18G 2G11G16G19G 6
  21217974.9304    2221137.09047   1730753.11262
  22797355.953    -4205983.265 6  -3277378.92921
  23410230.6334   -2527939.18446  -1969815.69061
  23864016.7734   -2343830.86245  -1700660.20561
  20857858.8754      63348.18546     49363.62662
  24282564.9534   -1070597.65945   -778460.92861
 91  4 30 19 53  0.0000000  0  6G18G 2G11G16G19G 6
  21223488.8284    2250118.35447   1753335.88362
  22789183.6804   -4248931.69646  -3310845.13761
  23406031.430    -2549998.449 6  -1987004.67121
  23859628.008    -2366868.552 5  -1718611.63521
  20858385.5784      66114.28546     51519.03462
  24275908.695    -1105588.693 5   -805726.57021
 91  4 30 19 53 15.0000000  0  6G18G 2G11G16G19G 6
  21229059.4844    2279381.43647   1776138.25062
  22781054.938    -4291635.071 6  -3344120.39521
  23401893.6724   -2571750.84546  -2003954.53661
  23855306.0314   -2389598.31945  -1736323.11661
  20858954.3054      69105.90646     53850.17362
  24269283.3054   -1140380.78345   -832837.23261
 91  4 30 19 53 30.0000000  0  6G18G 2G11G16G19G 6
  21234686.648     2308961.936 7   1799187.93123
  22772984.914    -4334057.556 6  -3377176.76521
  23397820.7194   -2593160.38346  -2020637.23361
  23851052.234    -2411984.353 5  -1753766.74621
  20859572.0084      72358.64747     56384.77762
  24262710.6954   -1174938.16245   -859764.99261
 91  4 30 19 53 45.0000000  0  6G18G 2G11G16G19G 6
  21240384.609     2338894.142 7   1822511.67623
  22764973.258    -4376164.531 6  -3409987.28821
  23393816.0864   -2614192.36646  -2037025.74261
  23846860.3364   -2433992.33945  -1770915.78961
  20860248.211       75906.827 6     59149.60522
  24256185.563    -1209226.521 5   -886483.13021
 91  4 30 19 54  0.0000000  0  6G18G 2G11G16G19G 6
  21246151.1644    2369208.98747   1846133.57163
  22757025.1334   -4417924.66546  -3442527.54461
  23389891.031    -2634815.432 6  -2053095.60321
  23842754.078    -2455590.954 5  -1787745.85921
  20860986.555       79781.759 6     62169.04022
  24249714.813    -1243214.858 4   -912967.45221
 91  4 30 19 54 15.0000000  0  6G18G 2G11G16G19G 6
  21251995.977     2399919.036 7   1870063.42823
  22749149.047    -4459325.366 6  -3474787.71321
  23386047.008    -2655016.729 6  -2068836.82521
  23838722.516    -2476767.183 5  -1804246.78921
  20861787.7664      83995.92146     65452.80962
  24243309.305    -1276890.397 4   -939208.09221
 91  4 30 19 54 30.0000000  0  6G18G 2G11G16G19G 6
  21257918.5234    2431038.82147   1894312.57563
  22741340.7194   -4500351.84746  -3506756.29761
  23382287.570    -2674781.401 6  -2084237.81921
  23834773.648    -2497506.643 5  -1820407.39921
  20862654.0314      88564.05546     69012.39562
  24236963.781    -1310238.764 5   -965193.73821
 91  4 30 19 54 45.0000000  0  6G18G 2G11G16G19G 6
  21263917.1564    2462564.47547   1918877.97863
  22733602.938    -4541007.750 6  -3538436.11721
  23378609.2814   -2694112.90746  -2099301.27361
  23830911.9774   -2517812.94245  -1836230.46261
  20863594.1334      93482.38047     72844.86062
  24230677.977    -1343263.666 5   -990927.35721
 91  4 30 19 55  0.0000000  0  6G18G 2G11G16G19G 6
  21269991.4064    2494478.84947   1943746.28963
  22725931.5004   -4581309.66746  -3569840.09961
  23375008.328    -2713027.783 6  -2114040.08621
  23827126.375    -2537702.720 5  -1851728.96621
  20864591.9694      98734.06547     76937.09062
  24224449.781    -1375982.109 4  -1016422.17821
 91  4 30 19 55 15.0000000  0  6G18G 2G11G16G19G 6
  21276131.3984    2526752.88547   1968894.82963
  22718325.023    -4621286.434 6  -3600990.72421
  23371484.9064   -2731554.82746  -2128476.69561
  23823416.969    -2557204.891 5  -1866925.43921
  20865650.4454     104290.13047     81266.50462
  24218280.281    -1408423.082 4  -1041700.78821
 91  4 30 19 55 30.0000000  0  6G18G 2G11G16G19G 6
  21282333.3594    2559341.03547   1994288.12763
  22710772.258    -4660983.402 6  -3631923.31221
  23368023.3594   -2749739.07346  -2142646.17061
  23819769.5554   -2576364.35145  -1881854.86061
  20866754.7114     110105.27447     85797.79262
  24212148.180    -1440631.916 4  -1066798.46921
 91  4 30 19 55 45.0000000  0  6G18G 2G11G16G19G 6
  21288584.6804    2592196.21447   2019889.49863
  22703261.031    -4700447.539 6  -3662674.48321
  23364620.0784   -2767627.44746  -2156585.11061
  23816180.852    -2595228.305 5  -1896554.04321
  20867903.6024     116132.18446     90494.08762
  24206057.172    -1472655.839 5  -1091752.10421
 91  4 30 19 56  0.0000000  0  6G18G 2G11G16G19G 6
  21294881.336     2625280.689 7   2045669.56123
  22695789.4064   -4739716.49246  -3693273.56061
  23361262.9454   -2785257.39846  -2170322.67961
  23812636.7424   -2613834.45645  -1911052.31261
  20869083.7194     122333.19046     95326.04662
  24199988.328    -1504532.671 4  -1116591.13021
 91  4 30 19 56 15.0000000  0  6G18G 2G11G16G19G 6
  21301211.281     2658547.261 7   2071591.54323
  22688345.977    -4778837.014 6  -3723756.98021
  23357947.1884   -2802675.53046  -2183895.19961
  23809139.906    -2632229.438 5  -1925386.04921
  20870288.1644     128661.41447    100257.12962
  24193941.9144   -1536309.24945  -1141351.99961
 91  4 30 19 56 30.0000000  0  6G18G 2G11G16G19G 6
  21307569.0394    2691960.13847   2097627.52063
  22680923.406    -4817844.495 6  -3754152.30821
  23354669.1564   -2819917.22646  -2197330.24161
  23805671.922    -2650448.861 5  -1939582.98921
  20871507.9064     135081.38847    105259.71262
  24187904.883    -1568021.357 4  -1166062.67621
 91  4 30 19 56 45.0000000  0  6G18G 2G11G16G19G 6
  21313949.4454    2725487.35647   2123752.58663
  22673516.070    -4856770.656 6  -3784484.27921
  23351414.3914   -2837014.07446  -2210652.39761
  23802228.7734   -2668524.25345  -1953667.70061
  20872742.7424     141561.30346    110309.00562
  24181877.9304   -1599700.81045  -1190747.87461
 91  4 30 19 57  0.0000000  0  6G18G 2G11G16G19G 6
  21320346.6644    2759105.25147   2149948.31762
  22666118.477    -4895638.986 6  -3814771.18021
  23348181.664    -2853989.457 6  -2223879.91921
  23798812.3594   -2686479.33645  -1967658.64861
  20873979.3914     148077.55946    115386.61562
  24175850.016    -1631371.328 5  -1215426.10621
 91  4 30 19 57 15.0000000  0  6G18G 2G11G16G19G 6
  21326758.7584    2792794.38847   2176199.55162
  22658728.359    -4934468.623 6  -3845027.93721
  23344973.664    -2870862.374 6  -2237027.59921
  23795419.461    -2704333.310 5  -1981570.83121
  20875227.1254     154610.76746    120477.42862
  24169818.930    -1663052.179 4  -1240112.39821
 91  4 30 19 57 30.0000000  0  6G18G 2G11G16G19G 6
  21333182.531     2826541.700 7   2202496.11123
  22651343.781    -4973272.244 6  -3875264.42421
  23341780.523    -2887645.352 6  -2250105.19221
  23792035.0864   -2722098.86545  -1995414.10761
  20876466.6334     161148.11947    125571.47862
  24163793.3754   -1694756.23944  -1264816.75161
 91  4 30 19 57 45.0000000  0  6G18G 2G11G16G19G 6
  21339612.523     2860340.035 7   2228832.42523
  22643962.688    -5012056.818 6  -3905486.06321
  23338602.031    -2904345.289 6  -2263118.09521
  23788663.250    -2739782.819 5  -2009193.79921
  20877711.8134     167682.63446    130663.31162
  24157749.180    -1726490.702 4  -1289544.82821
 91  4 30 19 58  0.0000000  0  6G18G 2G11G16G19G 6
  21346050.5944    2894177.47147   2255199.21262
  22636585.844    -5050834.330 6  -3935702.20521
  23335440.3364   -2920973.88646  -2276075.39061
  23785319.7114   -2757396.86045  -2022919.01061
  20878950.4774     174202.30346    135743.57762
  24151703.7734   -1758267.48444  -1314305.85561
 91  4 30 19 58 15.0000000  0  6G18G 2G11G16G19G 6
  21352495.8364    2928049.79747   2281593.23262
  22629209.063    -5089608.858 6  -3965916.01821
  23332285.0864   -2937535.04746  -2288980.15361
  23781976.500    -2774944.844 5  -2036592.73621
  20880189.7424     180703.01646    140809.07062
  24145647.7344   -1790090.89944  -1339103.23461
 91  4 30 19 58 30.0000000  0  6G18G 2G11G16G19G 6
  21358947.1024    2961956.07547   2308013.68462
  22621828.5634   -5128380.52546  -3996127.60461
  23329147.6254   -2954028.76246  -2301832.35461
  23778654.7344   -2792427.36445  -2050215.47261
  20881421.8914     187184.36947    145859.47962
  24139582.1884   -1821961.33044  -1363937.23161
 91  4 30 19 58 45.0000000  0  6G18G 2G11G16G19G 6
  21365406.945     2995895.985 7   2334460.31222
  22614450.5084   -5167149.45246  -4026337.05861
  23326020.133    -2970455.126 6  -2314632.06521
  23775340.195    -2809844.474 5  -2063787.21721
  20882653.1024     193646.07846    150894.57662
  24133507.0784   -1853879.08344  -1388808.14561
 91  4 30 19 59  0.0000000  0  6G18G 2G11G16G19G 6
  21371873.711     3029870.820 7   2360934.13322
  22607075.008    -5205914.043 6  -4056543.13321
  23322908.758    -2986812.473 6  -2327378.00021
  23772036.7274   -2827194.70745  -2077306.88161
  20883877.2194     200089.58946    155915.49962
  24127425.602    -1885842.781 4  -1413714.85221
 91  4 30 19 59 15.0000000  0  6G18G 2G11G16G19G 6
  21378344.984     3063881.903 7   2387436.18922
  22599698.8054   -5244672.72546  -4086744.60561
  23319808.984    -3003099.260 6  -2340068.96121
  23768748.328    -2844476.775 5  -2090773.41421
  20885102.0164     206516.42246    160923.41862
  24121338.367    -1917851.136 5  -1438656.31221
 91  4 30 19 59 30.0000000  0  6G18G 2G11G16G19G 6
  21384822.211     3097928.348 7   2413965.82822
  22592324.7734   -5283426.51246  -4116942.26461
  23316721.023    -3019316.150 6  -2352705.44921
  23765470.422    -2861691.520 5  -2104187.48021
  20886325.6954     212925.49446    165917.49962
  24115234.8204   -1949905.02444  -1463633.28661
 91  4 30 19 59 45.0000000  0  6G18G 2G11G16G19G 6
  21391310.117     3132012.970 7   2440525.23622
  22584949.6954   -5322171.99246  -4147133.45561
  23313652.4844   -3035459.79646  -2365284.87061
  23762204.7194   -2878835.42045  -2117546.34261
  20887539.7194     219319.94446    170900.18962
  24109123.438    -1982001.505 4  -1488643.44721
 91  4 30 20  0  0.0000000  0  6G18G 2G11G16G19G 6
  21397802.266     3166137.096 7   2467115.41523
  22577577.3134   -5360907.43246  -4177316.81861
  23310595.2424   -3051528.26546  -2377805.73261
  23758961.3054   -2895906.65545  -2130848.59861
  20888750.2894     225701.57846    175872.89362
  24103012.914    -2014138.919 5  -1513685.50021
 91  4 30 20  0 15.0000000  0  6G18G 2G11G16G19G 6
  21404305.039     3200306.932 7   2493741.21923
  22570211.281    -5399626.611 6  -4207487.50921
  23307550.055    -3067515.154 6  -2390262.99721
  23755728.289    -2912899.152 5  -2144089.49321
  20889965.8444     232076.50746    180840.37562
  24096893.383    -2046311.102 5  -1538754.65421
 91  4 30 20  0 30.0000000  0  6G18G 2G11G16G19G 6
  21410816.016     3234519.847 7   2520400.58022
  22562846.7504   -5438331.94046  -4237647.41861
  23304525.2974   -3083422.91646  -2402658.62961
  23752507.8204   -2929815.48645  -2157271.02461
  20891178.1724     238441.94546    185800.45762
  24090757.242    -2078520.916 4  -1563853.12921
 91  4 30 20  0 45.0000000  0  6G18G 2G11G16G19G 6
  21417336.9774    3268781.46747   2547097.88562
  22555486.3364   -5477017.28646  -4267791.75161
  23301511.0474   -3099245.37446  -2414987.77461
  23749306.695    -2946649.496 5  -2170388.42421
  20892387.3134     244803.97546    190757.87962
  24084626.6414   -2110762.30345  -1588976.20161
 91  4 30 20  1  0.0000000  0  6G18G 2G11G16G19G 6
  21423865.3594    3303094.23647   2573835.03962
  22548127.0474   -5515680.04846  -4297918.49461
  23298520.758    -3114979.745 6  -2427248.28121
  23746117.625    -2963398.571 5  -2183439.61721
  20893596.9614     251164.93346    195714.46662
  24078482.7344   -2143032.83145  -1614121.98861
 91  4 30 20  1 15.0000000  0  6G18G 2G11G16G19G 6
  21430404.336     3337457.710 7   2600611.72322
  22540774.4924   -5554320.47246  -4328027.82661
  23295542.1334   -3130626.01246  -2439440.13861
  23742944.5234   -2980062.93645  -2196424.84561
  20894808.3754     257524.87846    200670.26962
  24072341.172    -2175332.794 5  -1639290.70521
 91  4 30 20  1 30.0000000  0  6G18G 2G11G16G19G 6
  21436955.6254    3371877.01447   2627431.90862
  22533425.227    -5592933.274 6  -4358115.63821
  23292584.148    -3146178.821 6  -2451559.16421
  23739794.3834   -2996637.22345  -2209339.84261
  20896020.0634     263888.87747    205629.22762
  24066188.7584   -2207657.06945  -1664478.37361
 91  4 30 20  1 45.0000000  0  6G18G 2G11G16G19G 6
  21443515.0314    3406351.31647   2654294.93462
  22526081.7734   -5631518.85646  -4388182.23261
  23289638.7664   -3161638.47546  -2463605.62061
  23736653.969    -3013122.018 5  -2222185.11821
  20897230.8754     270256.54846    210591.05362
  24060028.367    -2240006.217 5  -1689685.43021
 91  4 30 20  2  0.0000000  0  6G18G 2G11G16G19G 6
  21450086.0234    3440883.10047   2681202.75162
  22518745.797    -5670074.481 6  -4418225.48721
  23286716.336    -3177002.244 6  -2475577.34421
  23733535.2274   -3029514.53745  -2234958.50361
  20898443.2734     276630.28347    215557.59862
  24053871.734    -2272377.696 5  -1714909.87121
 91  4 30 20  2 15.0000000  0  6G18G 2G11G16G19G 6
  21456668.9384    3475475.87547   2708158.10463
  22511419.1724   -5708596.34946  -4448242.44261
  23283812.219    -3192266.136 6  -2487471.24421
  23730434.375    -3045810.992 5  -2247657.03021
  20899660.2344     283013.88847    220531.83062
  24047707.414    -2304767.894 5  -1740148.90421
 91  4 30 20  2 30.0000000  0  6G18G 2G11G16G19G 6
  21463261.5474    3510128.94547   2735160.43562
  22504091.742    -5747084.785 6  -4478233.34721
  23280929.281    -3207430.494 6  -2499287.58321
  23727353.9924   -3062011.80145  -2260281.02261
  20900878.6884     289406.98446    225513.45862
  24041541.016    -2337177.279 5  -1765402.88721
 91  4 30 20  2 45.0000000  0  6G18G 2G11G16G19G 6
  21469869.164     3544840.281 7   2762208.17522
  22496774.266    -5785541.377 6  -4508199.43821
  23278058.3524   -3222496.76946  -2511027.50161
  23724287.891    -3078118.882 5  -2272831.98621
  20902093.3984     295807.76747    230501.08262
  24035367.359    -2369608.056 4  -1790673.53421
 91  4 30 20  3  0.0000000  0  6G18G 2G11G16G19G 6
  21476484.359     3579612.825 7   2789303.61422
  22489461.703    -5823963.576 6  -4538138.73521
  23275211.1484   -3237461.99546  -2522688.68261
  23721237.742    -3094129.338 5  -2285307.64221
  20903311.0554     302218.90547    235496.77162
  24029192.3754   -2402056.93344  -1815958.29561
 91  4 30 20  3 15.0000000  0  6G18G 2G11G16G19G 6
  21483115.2194    3614453.57447   2816452.18763
  22482157.2814   -5862343.96046  -4568045.43561
  23272382.469    -3252318.858 6  -2534265.40721
  23718212.117    -3110035.788 5  -2297702.26521
  20904537.8914     308647.51247    240506.07962
  24023016.0554   -2434517.12244  -1841251.86761
 91  4 30 20  3 30.0000000  0  6G18G 2G11G16G19G 6
  21489758.586     3649361.079 7   2843652.76022
  22474861.1564   -5900683.35846  -4597920.21061
  23269578.8674   -3267068.12046  -2545758.31261
  23715209.406    -3125838.964 5  -2310016.41221
  20905763.2274     315092.78247    245528.36562
  24016834.664    -2466989.674 4  -1866555.09021
 91  4 30 20  3 45.0000000  0  6G18G 2G11G16G19G 6
  21496413.4064    3684334.67547   2870904.84362
  22467575.484    -5938982.437 6  -4627763.56521
  23266792.1414   -3281710.35146  -2557167.80461
  23712217.531    -3141539.590 5  -2322250.66721
  20906991.9694     321554.09147    250563.15062
  24010651.156    -2499475.347 4  -1891868.51021
 91  4 30 20  4  0.0000000  0  6G18G 2G11G16G19G 6
  21503081.711     3719374.757 7   2898208.78423
  22460294.109    -5977240.528 6  -4657574.97921
  23264026.141    -3296244.762 6  -2568493.26921
  23709250.9534   -3157136.92145  -2334404.40561
  20908223.2894     328031.81547    255610.72662
  24004469.2274   -2531973.57144  -1917191.71661
 91  4 30 20  4 15.0000000  0  6G18G 2G11G16G19G 6
  21509761.930     3754487.099 7   2925569.00623
  22453023.359    -6015451.328 6  -4687349.54021
  23261280.8754   -3310664.89046  -2579729.70361
  23706305.094    -3172624.687 5  -2346472.78421
  20909463.3754     334532.17346    260675.94062
  23998282.898    -2564478.255 4  -1942519.95821
 91  4 30 20  4 30.0000000  0  6G18G 2G11G16G19G 6
  21516460.313     3789668.429 7   2952982.94423
  22445761.156    -6053618.163 6  -4717089.85521
  23258560.031    -3324973.932 6  -2590879.57121
  23703376.641    -3188006.399 5  -2358458.52521
  20910704.3754     341051.86246    265756.21462
  23992095.7664   -2596992.85444  -1967855.91061
 91  4 30 20  4 45.0000000  0  6G18G 2G11G16G19G 6
  21523167.336     3824923.152 7   2980454.07523
  22438507.000    -6091736.295 6  -4746792.21721
  23255857.9304   -3339167.08546  -2601939.12561
  23700472.211    -3203277.284 5  -2370357.88921
  20911949.9694     347595.45546    270855.11862
  23985906.8834   -2629512.82144  -1993196.05261
 91  4 30 20  5  0.0000000  0  6G18G 2G11G16G19G 6
  21529888.7894    3860247.65647   3007979.59663
  22431262.586    -6129809.085 6  -4776459.25321
  23253176.617    -3353247.678 6  -2612910.97521
  23697586.2664   -3218440.72045  -2382173.55761
  20913198.6564     354159.45146    275969.91962
  23979720.7034   -2662041.65844  -2018543.11461
 91  4 30 20  5 15.0000000  0  6G18G 2G11G16G19G 6
  21536625.703     3895643.887 7   3035560.99423
  22424024.469    -6167833.934 6  -4806088.92021
  23250520.344    -3367213.102 6  -2623793.08021
  23694720.9844   -3233494.47645  -2393903.73561
  20914450.2194     360746.23246    281102.47462
  23973527.773    -2694577.059 4  -2043895.29021
 91  4 30 20  5 30.0000000  0  6G18G 2G11G16G19G 6
  21543374.6564    3931115.23947   3063200.93863
  22416798.797    -6205807.481 6  -4835678.62121
  23247883.719    -3381059.736 6  -2634582.62521
  23691880.0474   -3248434.84645  -2405545.57461
  20915710.7894     367359.23446    286255.45762
  23967335.7974   -2727115.75844  -2069250.02661
 91  4 30 20  5 45.0000000  0  6G18G 2G11G16G19G 6
  21550138.8674    3966660.47247   3090898.45363
  22409583.383    -6243730.605 6  -4865229.02821
  23245272.0704   -3394788.44146  -2645280.28361
  23689059.656    -3263262.742 5  -2417099.76521
  20916974.5474     373997.38046    291428.03662
  23961147.7894   -2759658.74544  -2094608.11861
 91  4 30 20  6  0.0000000  0  6G18G 2G11G16G19G 6
  21556918.375     4002276.107 7   3118650.84723
  22402374.430    -6281606.594 6  -4894742.70821
  23242683.2504   -3408402.33246  -2655888.47061
  23686253.3364   -3277981.63245  -2428568.99461
  20918238.8834     380657.27146    296617.55362
  23954948.875    -2792209.444 4  -2119972.21221
 91  4 30 20  6 15.0000000  0  6G18G 2G11G16G19G 6
  21563708.2114    4037964.28447   3146459.76263
  22395175.156    -6319433.097 6  -4924217.82021
  23240112.1484   -3421899.18546  -2666405.46561
  23683474.7584   -3292589.40145  -2439951.67861
  20919512.4064     387341.24146    301825.84862
  23948755.5704   -2824765.74845  -2145340.67661
 91  4 30 20  6 30.0000000  0  6G18G 2G11G16G19G 6
  21570514.4694    4073729.87647   3174328.99563
  22387990.219    -6357204.694 7  -4953650.15621
  23237569.6484   -3435273.47846  -2676826.95161
  23680717.766    -3307080.550 5  -2451243.47421
  20920789.5864     394054.55246    307056.99662
  23942558.039    -2857322.466 5  -2170709.44421
 91  4 30 20  6 45.0000000  0  6G18G 2G11G16G19G 6
  21577331.1174    4109564.75247   3202252.20763
  22380809.531    -6394929.093 6  -4983045.71721
  23235046.2584   -3448532.80246  -2687158.85161
  23677981.6254   -3321463.21545  -2462450.74661
  20922070.7504     400789.33146    312304.87262
  23936364.7894   -2889887.53345  -2196084.74861
 91  4 30 20  7  0.0000000  0  6G18G 2G11G16G19G 6
  21584167.422     4145474.841 7   3230234.00922
  22373641.422    -6432600.605 6  -5012400.06921
  23232547.258    -3461671.195 6  -2697396.52421
  23675264.289    -3335731.191 5  -2473568.63921
  20923355.8364     407551.41846    317574.02762
  23930162.2344   -2922455.19744  -2221462.05361
 91  4 30 20  7 15.0000000  0  6G18G 2G11G16G19G 6
  21591013.078     4181457.690 7   3258272.51522
  22366481.102    -6470221.207 6  -5041714.74422
  23230066.1804   -3474690.51846  -2707541.41761
  23672571.719    -3349886.539 5  -2484598.78521
  20924650.3524     414338.67046    322862.79162
  23923967.195    -2955027.538 5  -2246843.01921
 91  4 30 20  7 30.0000000  0  6G18G 2G11G16G19G 6
  21597876.141     4217514.129 7   3286368.38722
  22359334.320    -6507789.779 7  -5070988.87821
  23227610.9384   -3487589.66446  -2717592.65761
  23669900.5234   -3363928.12845  -2495540.28761
  20925946.2814     421152.19946    328172.03662
  23917762.9384   -2987603.71944  -2272226.97261
 91  4 30 20  7 45.0000000  0  6G18G 2G11G16G19G 6
  21604752.7734    4253648.25247   3314524.78862
  22352196.0084   -6545302.12347  -5100219.19661
  23225181.820    -3500364.279 6  -2727546.86321
  23667254.172    -3377851.814 5  -2506389.89621
  20927248.2424     427996.13946    333504.96962
  23911563.9844   -3020179.44744  -2297610.60561
 91  4 30 20  8  0.0000000  0  6G18G 2G11G16G19G 6
  21611642.9064    4289862.24947   3342743.40162
  22345068.680    -6582755.732 6  -5129403.74621
  23222777.1954   -3513011.75846  -2737402.00961
  23664623.6954   -3391655.27945  -2517145.83361
  20928556.8364     434872.79546    338863.40362
  23905366.172    -3052752.527 4  -2322992.11921
 91  4 30 20  8 15.0000000  0  6G18G 2G11G16G19G 6
  21618550.5634    4326152.77447   3371021.64563
  22337950.961    -6620153.475 6  -5158544.78121
  23220391.4384   -3525535.01746  -2747160.36961
  23662016.6564   -3405341.39445  -2527810.33461
  20929871.7424     441779.19146    344245.00562
  23899170.0704   -3085326.09544  -2348374.05061
 91  4 30 20  8 30.0000000  0  6G18G 2G11G16G19G 6
  21625469.016     4362518.745 7   3399358.68422
  22330845.320    -6657496.265 6  -5187642.97921
  23218032.2424   -3537934.78646  -2756822.48461
  23659439.078    -3418911.076 5  -2538384.10421
  20931192.5314     448714.28546    349648.97362
  23892972.133    -3117901.139 4  -2373757.09821
 91  4 30 20  8 45.0000000  0  6G18G 2G11G16G19G 6
  21632404.2344    4398958.05247   3427752.88162
  22323749.633    -6694785.952 6  -5216699.80121
  23215695.7974   -3550212.79646  -2766389.72861
  23656874.6804   -3432366.34145  -2548868.71661
  20932515.3134     455676.32546    355073.94162
  23886766.9304   -3150479.60844  -2399142.82361
 91  4 30 20  9  0.0000000  0  6G18G 2G11G16G19G 6
  21639352.8754    4435473.41947   3456206.34062
  22316663.852    -6732019.648 6  -5245713.00021
  23213383.9614   -3562366.18746  -2775859.87361
  23654339.3754   -3445704.26545  -2559261.90261
  20933844.8674     462667.96947    360521.97762
  23880567.7974   -3183058.82344  -2424529.14561
 91  4 30 20  9 15.0000000  0  6G18G 2G11G16G19G 6
  21646315.125     4472065.875 7   3484719.86622
  22309587.734    -6769195.886 7  -5274681.42022
  23211095.0784   -3574393.46946  -2785231.75361
  23651818.3444   -3458923.33145  -2569562.44761
  20935183.9924     469690.69147    365994.22462
  23874374.3754   -3215637.41745  -2449914.95761
 91  4 30 20  9 30.0000000  0  6G18G 2G11G16G19G 6
  21653293.641     4508732.426 7   3513291.12422
  22302522.328    -6806317.459 6  -5303607.24622
  23208831.1644   -3586297.32246  -2794507.44061
  23649333.4064   -3472026.53645  -2579772.75561
  20936524.4064     476741.68047    371488.50162
  23868172.2734   -3248218.37345  -2475302.63061
 91  4 30 20  9 45.0000000  0  6G18G 2G11G16G19G 6
  21660284.578     4545475.474 7   3541921.98622
  22295471.4064   -6843381.62647  -5332488.34361
  23206589.0474   -3598074.95346  -2803684.77961
  23646859.711    -3485011.080 5  -2589890.56621
  20937872.7424     483823.67147    377006.93962
  23861969.0784   -3280799.01445  -2500690.03661
 91  4 30 20 10  0.0000000  0  6G18G 2G11G16G19G 6
  21667292.203     4582295.990 7   3570613.21422
  22288431.273    -6880387.317 7  -5361323.87322
  23204370.6644   -3609725.18146  -2812762.84761
  23644412.5234   -3497876.08845  -2599915.23161
  20939223.8674     490937.49847    382550.18162
  23855769.531    -3313378.555 5  -2526076.60621
 91  4 30 20 10 15.0000000  0  6G18G 2G11G16G19G 6
  21674311.516     4619190.718 7   3599362.27622
  22281396.641    -6917337.245 6  -5390115.95022
  23202178.9774   -3621250.64646  -2821743.69761
  23641985.172    -3510624.268 5  -2609848.87521
  20940585.9144     498080.20447    388115.93062
  23849574.719    -3345959.842 5  -2551464.53021
 91  4 30 20 10 30.0000000  0  6G18G 2G11G16G19G 6
  21681346.883     4656158.455 7   3628168.23022
  22274377.2974   -6954232.51746  -5418865.43962
  23200006.3594   -3632652.27546  -2830628.05061
  23639580.063    -3523256.703 5  -2619692.32321
  20941948.4614     505250.89447    393703.47862
  23843370.703    -3378543.942 5  -2576854.65421
 91  4 30 20 10 45.0000000  0  6G18G 2G11G16G19G 6
  21688397.109     4693204.712 7   3657035.36422
  22267366.7974   -6991067.42946  -5447567.89862
  23197863.0864   -3643924.30846  -2839411.42261
  23637202.7274   -3535767.36345  -2629440.89961
  20943320.9924     512455.13146    399317.16262
  23837168.7114   -3411125.41145  -2602242.71261
 91  4 30 20 11  0.0000000  0  6G18G 2G11G16G19G 6
  21695461.3754    4730324.32147   3685959.64462
  22260369.023    -7027846.764 6  -5476227.04521
  23195741.5784   -3655071.54146  -2848097.54761
  23634842.6254   -3548161.65545  -2639098.77161
  20944695.8594     519687.92147    404953.10162
  23830973.563    -3443709.221 5  -2627632.61021
 91  4 30 20 11 15.0000000  0  6G18G 2G11G16G19G 6
  21702540.805     4767523.885 7   3714946.23722
  22253381.180    -7064563.465 6  -5504837.38622
  23193646.7814   -3666086.90646  -2856680.91561
  23632501.1884   -3560432.25745  -2648660.27661
  20946078.4304     526956.42446    410616.86562
  23824772.156    -3476288.453 5  -2653018.92021
 91  4 30 20 11 30.0000000  0  6G18G 2G11G16G19G 6
  21709635.141     4804804.986 7   3743996.37322
  22246408.555    -7101215.856 7  -5533397.61822
  23191574.9924   -3676968.53246  -2865160.08161
  23630194.797    -3572577.709 5  -2658124.25521
  20947464.7424     534262.26346    416309.72162
  23818567.0084   -3508861.49245  -2678400.43961
 91  4 30 20 11 45.0000000  0  6G18G 2G11G16G19G 6
  21716743.0474    4842165.30247   3773108.24962
  22239444.281    -7137806.039 7  -5561909.37022
  23189530.5314   -3687718.58946  -2873536.71161
  23627910.1024   -3584600.22945  -2667492.46061
  20948867.6484     541603.07546    422029.83962
  23812377.5944   -3541430.66445  -2703778.95261
 91  4 30 20 12  0.0000000  0  6G18G 2G11G16G19G 6
  21723868.180     4879607.317 7   3802283.76822
  22232492.1024   -7174331.15746  -5590370.43262
  23187510.1254   -3698333.98046  -2881808.40761
  23625645.664    -3596497.099 5  -2676762.73821
  20950270.4384     548981.73346    427779.44162
  23806176.016    -3573993.135 5  -2729152.20021
 91  4 30 20 12 15.0000000  0  6G18G 2G11G16G19G 6
  21731009.836     4917128.680 7   3831521.10722
  22225555.8134   -7210793.32547  -5618782.43661
  23185514.586    -3708816.840 6  -2889976.85421
  23623400.594    -3608270.344 5  -2685936.69721
  20951681.1254     556396.16446    433556.91662
  23799986.172    -3606551.195 5  -2754522.05421
 91  4 30 20 12 30.0000000  0  6G18G 2G11G16G19G 6
  21738164.656     4954728.694 7   3860819.73922
  22218627.586    -7247193.241 7  -5647145.92622
  23183541.9224   -3719167.73546  -2898042.44661
  23621185.9844   -3619920.59245  -2695014.79561
  20953098.5394     563845.63246    439361.68862
  23793784.547    -3639105.638 5  -2779889.04321
 91  4 30 20 12 45.0000000  0  6G18G 2G11G16G19G 6
  21745332.7424    4992404.80447   3890177.65962
  22211714.3134   -7283533.12647  -5675462.64862
  23181601.227    -3729388.818 6  -2906006.89921
  23618990.922    -3631450.487 5  -2703999.12521
  20954524.6254     571327.80246    445191.94962
  23787593.1334   -3671658.81945  -2805255.09461
 91  4 30 20 13  0.0000000  0  6G18G 2G11G16G19G 6
  21752518.563     5030159.148 7   3919596.54522
  22204808.7584   -7319810.24347  -5703730.46262
  23179680.8204   -3739477.47146  -2913868.15961
  23616820.8984   -3642857.19445  -2712887.46061
  20955956.9924     578845.04746    451049.52962
  23781399.188    -3704208.341 5  -2830618.25021
 91  4 30 20 13 15.0000000  0  6G18G 2G11G16G19G 6
  21759716.836     5067987.555 7   3949073.14422
  22197918.750    -7356028.295 7  -5731952.23722
  23177784.7734   -3749437.35346  -2921629.07161
  23614669.125    -3654144.393 5  -2721682.68821
  20957389.5704     586393.86346    456931.71962
  23775206.1564   -3736758.03045  -2855981.56061
 91  4 30 20 13 30.0000000  0  6G18G 2G11G16G19G 6
  21766932.516     5105897.991 7   3978613.66222
  22191038.4144   -7392179.35347  -5760121.82962
  23175914.7344   -3759260.25446  -2929283.25961
  23612549.0164   -3665304.22245  -2730378.64561
  20958833.5554     593982.33146    462844.80662
  23769009.8364   -3769299.85945  -2881338.73861
 91  4 30 20 13 45.0000000  0  6G18G 2G11G16G19G 6
  21774159.320     5143882.831 7   4008212.15722
  22184172.125    -7428270.929 7  -5788245.05622
  23174072.2894   -3768953.50046  -2936836.39861
  23610446.7114   -3676343.84545  -2738980.94861
  20960284.3674     601602.69546    468782.74962
  23762821.8754   -3801841.48745  -2906695.76661
 91  4 30 20 14  0.0000000  0  6G18G 2G11G16G19G 6
  21781401.6884    5181944.27947   4037870.34262
  22177315.500    -7464300.481 7  -5816319.95522
  23172249.547    -3778514.667 6  -2944286.63921
  23608370.0234   -3687261.32945  -2747488.07661
  20961738.6094     609257.38546    474747.43762
  23756627.7814   -3834380.63845  -2932050.83161
 91  4 30 20 14 15.0000000  0  6G18G 2G11G16G19G 6
  21788660.4614    5220084.98747   4067590.28462
  22170469.352    -7500264.966 7  -5844344.16422
  23170455.0474   -3787940.75346  -2951631.61261
  23606315.938    -3698053.567 5  -2755897.60321
  20963206.3674     616949.26646    480741.10262
  23750437.5314   -3866914.46445  -2957401.81161
 91  4 30 20 14 30.0000000  0  6G18G 2G11G16G19G 6
  21795931.797     5258301.530 7   4097369.33322
  22163636.797    -7536167.329 7  -5872319.95922
  23168687.7194   -3797234.63746  -2958873.56661
  23604285.1884   -3708723.75845  -2764212.04061
  20964674.4694     624675.39846    486761.45662
  23744247.2344   -3899445.94445  -2982750.92361
 91  4 30 20 14 45.0000000  0  6G18G 2G11G16G19G 6
  21803219.375     5296594.233 7   4127207.72222
  22156818.563    -7572007.145 7  -5900247.01322
  23166946.4304   -3806395.81046  -2966012.11561
  23602277.9774   -3719271.49645  -2772431.04061
  20966152.1724     632436.34946    492808.94762
  23738053.813    -3931974.742 5  -3008097.94921
 91  4 30 20 15  0.0000000  0  6G18G 2G11G16G19G 6
  21810519.7274    5334967.86647   4157109.18462
  22150012.0164   -7607779.41447  -5928121.43762
  23165226.891    -3815419.331 6  -2973043.40221
  23600295.6174   -3729691.81245  -2780550.75761
  20967640.3444     640236.75546    498887.18162
  23731865.4384   -3964496.22345  -3033439.28161
 91  4 30 20 15 15.0000000  0  6G18G 2G11G16G19G 6
  21817840.0234    5373421.31647   4187072.84262
  22143216.313    -7643484.955 7  -5955943.86022
  23163538.0864   -3824305.88246  -2979967.95661
  23598336.4774   -3739985.45445  -2788571.77861
  20969128.2584     648075.97546    504995.66162
  23725678.6254   -3997011.13945  -3058775.50061
 91  4 30 20 15 30.0000000  0  6G18G 2G11G16G19G 6
  21825172.500     5411951.484 7   4217096.27322
  22136433.102    -7679126.663 7  -5983716.54822
  23161872.313    -3833058.045 6  -2986787.79321
  23596407.0164   -3750155.01745  -2796496.10761
  20970624.3754     655951.14147    511132.14762
  23719488.6804   -4029522.32244  -3084108.81461
 91  4 30 20 15 45.0000000  0  6G18G 2G11G16G19G 6
  21832517.430     5450561.723 7   4247182.09822
  22129664.984    -7714700.927 7  -6011436.68122
  23160233.2274   -3841672.43346  -2993500.26861
  23594492.2894   -3760197.21445  -2804321.19661
  20972132.8524     663865.58546    517299.24062
  23713307.938    -4062026.528 5  -3109436.67621
 91  4 30 20 16  0.0000000  0  6G18G 2G11G16G19G 6
  21839881.867     5489249.662 7   4277328.45222
  22122906.547    -7750209.509 7  -6039105.63222
  23158619.2814   -3850150.79846  -3000106.75261
  23592607.0314   -3770114.20745  -2812048.72161
  20973648.5084     671817.38546    523495.44962
  23707122.2814   -4094525.73445  -3134760.65361
 91  4 30 20 16 15.0000000  0  6G18G 2G11G16G19G 6
  21847258.313     5528015.533 7   4307535.54922
  22116163.5164   -7785652.20147  -6066723.24162
  23157031.289    -3858492.759 6  -3006606.96121
  23590733.656    -3779905.777 5  -2819678.49621
  20975166.8284     679806.76446    529720.93662
  23700941.8364   -4127019.74945  -3160080.61161
 91  4 30 20 16 30.0000000  0  6G18G 2G11G16G19G 6
  21854648.9144    5566860.56747   4337804.32662
  22109431.3284   -7821027.48847  -6094288.32762
  23155471.672    -3866696.563 6  -3012999.51121
  23588903.2034   -3789570.27645  -2827209.26961
  20976692.6484     687835.16647    535976.82562
  23694754.484    -4159507.145 4  -3185395.35821
 91  4 30 20 16 45.0000000  0  6G18G 2G11G16G19G 6
  21862056.578     5605782.559 7   4368133.07122
  22102711.922    -7856337.225 7  -6121802.33922
  23153934.6334   -3874764.14946  -3019285.91461
  23587082.133    -3799109.949 5  -2834642.77821
  20978229.4614     695900.65247    542261.61562
  23688578.8834   -4191989.97745  -3210706.58361
 91  4 30 20 17  0.0000000  0  6G18G 2G11G16G19G 6
  21869478.2034    5644779.04247   4398519.87362
  22096003.734    -7891583.678 7  -6149267.03622
  23152426.578    -3882697.892 6  -3025468.01821
  23585292.695    -3808527.159 5  -2841980.86121
  20979773.6334     704001.01046    548573.57062
  23682394.5704   -4224470.60945  -3236016.07561
 91  4 30 20 17 15.0000000  0  6G18G 2G11G16G19G 6
  21876912.5084    5683851.29447   4428965.72262
  22089307.148    -7926765.460 7  -6176681.34122
  23150944.3984   -3890496.31246  -3031544.68161
  23583528.0164   -3817820.50845  -2849222.40961
  20981317.6254     712137.65747    554913.81262
  23676211.0084   -4256947.67845  -3261322.78461
 91  4 30 20 17 30.0000000  0  6G18G 2G11G16G19G 6
  21884361.898     5722996.090 7   4459468.09222
  22082626.9304   -7961885.12547  -6204047.24262
  23149485.2504   -3898161.84246  -3037517.79761
  23581783.0474   -3826992.37545  -2856369.33361
  20982876.9454     720308.17446    561280.44062
  23670033.258    -4289423.887 5  -3286628.84521
 91  4 30 20 17 45.0000000  0  6G18G 2G11G16G19G 6
  21891826.508     5762217.065 7   4490029.81122
  22075956.438    -7996939.093 7  -6231361.94622
  23148051.8284   -3905690.77546  -3043384.47061
  23580058.7664   -3836038.98145  -2863418.63961
  20984435.6644     728515.89046    567676.06462
  23663860.7274   -4321895.74545  -3311931.50061
 91  4 30 20 18  0.0000000  0  6G18G 2G11G16G19G 6
  21899304.883     5801513.520 7   4520650.33822
  22069295.0944   -8031927.75247  -6258625.76662
  23146643.563    -3913083.401 6  -3049144.92321
  23578365.9064   -3844961.25145  -2870371.03461
  20986006.7664     736760.37746    574100.33062
  23657680.6174   -4354363.71645  -3337231.12361
 91  4 30 20 18 15.0000000  0  6G18G 2G11G16G19G 6
  21906795.914     5840888.589 7   4551332.12922
  22062653.805    -8066847.556 7  -6285835.93122
  23145262.828    -3920336.226 6  -3054796.45921
  23576692.0314   -3853755.61145  -2877223.77861
  20987580.3364     745045.22146    580556.04362
  23651503.0084   -4386824.44645  -3362525.12861
 91  4 30 20 18 30.0000000  0  6G18G 2G11G16G19G 6
  21914302.875     5880339.205 7   4582072.78222
  22056019.8834   -8101701.37047  -6312994.67362
  23143907.6024   -3927452.18846  -3060341.33761
  23575039.477    -3862425.373 5  -2883979.45721
  20989165.6804     753367.31647    587040.78362
  23645327.1804   -4419280.88645  -3387815.75361
 91  4 30 20 18 45.0000000  0  6G18G 2G11G16G19G 6
  21921824.664     5919865.635 7   4612872.51022
  22049399.4144   -8136488.52347  -6340101.47662
  23142579.3834   -3934430.60546  -3065779.03861
  23573415.0394   -3870969.61645  -2890637.29561
  20990754.7274     761727.40846    593555.13262
  23639143.016    -4451732.750 5  -3413102.83621
 91  4 30 20 19  0.0000000  0  6G18G 2G11G16G19G 6
  21929360.6644    5959471.20747   4643733.90462
  22042793.281    -8171205.275 7  -6367153.41822
  23141278.203    -3941267.637 6  -3071106.56721
  23571812.9844   -3879384.66645  -2897194.45861
  20992355.3594     770129.19946    600101.97262
  23632975.516    -4484176.223 5  -3438383.37321
 91  4 30 20 19 15.0000000  0  6G18G 2G11G16G19G 6
  21936913.7814    5999154.15847   4674655.58362
  22036199.7114   -8205853.15847  -6394151.69862
  23140005.5944   -3947964.82146  -3076325.13461
  23570238.5394   -3887672.22345  -2903652.30361
  20993963.1644     778570.99846    606679.99462
  23626803.148    -4516613.008 5  -3463658.69621
 91  4 30 20 19 30.0000000  0  6G18G 2G11G16G19G 6
  21944480.5474    6038913.86447   4705637.07962
  22029621.758    -8240432.684 7  -6421096.71022
  23138756.1094   -3954522.69346  -3081435.13561
  23568676.7664   -3895832.93545  -2910011.27561
  20995574.5314     787052.09746    613288.63062
  23620631.063    -4549043.769 5  -3488929.33121
 91  4 30 20 19 45.0000000  0  6G18G 2G11G16G19G 6
  21952060.2424    6078752.81347   4736680.32462
  22023054.422    -8274941.218 7  -6447986.40422
  23137536.9694   -3960938.42446  -3086434.37661
  23567147.797    -3903863.919 5  -2916269.20921
  20997196.7274     795575.27246    619930.05862
  23614459.3674   -4581465.82345  -3514193.19361
 91  4 30 20 20  0.0000000  0  6G18G 2G11G16G19G 6
  21959655.453     6118669.445 7   4767784.10622
  22016501.0234   -8309380.03847  -6474821.78262
  23136342.4774   -3967213.15546  -3091323.74161
  23565647.9694   -3911766.78745  -2922427.27561
  20998827.1804     804139.36246    626603.36662
  23608288.5554   -4613880.58645  -3539451.34961
 91  4 30 20 20 15.0000000  0  6G18G 2G11G16G19G 6
  21967266.977     6158658.138 7   4798944.05322
  22009958.266    -8343754.245 7  -6501606.80322
  23135174.5004   -3973352.05946  -3096107.28061
  23564166.914    -3919546.572 5  -2928489.44621
  21000462.0394     812739.06646    633304.42762
  23602127.313    -4646293.326 5  -3564707.93921
 91  4 30 20 20 30.0000000  0  6G18G 2G11G16G19G 6
  21974888.703     6198720.216 7   4830161.18122
  22003430.094    -8378062.337 7  -6528340.31222
  23134035.0234   -3979353.69046  -3100783.85261
  23562708.5864   -3927201.84945  -2934454.58761
  21002107.5784     821375.84447    640034.37562
  23595961.844    -4678702.627 5  -3589961.83721
 91  4 30 20 20 45.0000000  0  6G18G 2G11G16G19G 6
  21982527.1174    6238858.57347   4861437.73062
  21996913.7894   -8412301.13447  -6555019.82662
  23132918.156    -3985214.621 6  -3105350.78121
  23561277.117    -3934729.542 5  -2940320.34021
  21003757.1174     830053.04546    646795.82062
  23589793.047    -4711105.360 5  -3615210.62221
 91  4 30 20 21  0.0000000  0  6G18G 2G11G16G19G 6
  21990181.8134    6279072.98147   4892773.53262
  21990410.0234   -8446470.62847  -6581645.34262
  23131829.289    -3990934.916 6  -3109808.13321
  23559872.5084   -3942129.81745  -2946086.78061
  21005418.3914     838770.40446    653588.56562
  23583628.445    -4743501.687 5  -3640454.40121
 91  4 30 20 21 15.0000000  0  6G18G 2G11G16G19G 6
  21997845.672     6319357.222 7   4924163.74822
  21983923.4614   -8480576.81947  -6608221.52362
  23130764.961    -3996520.769 6  -3114160.72021
  23558487.4694   -3949408.95045  -2951758.82261
  21007082.9844     847521.96147    660407.95562
  23577462.3754   -4775897.73545  -3665697.97161
 91  4 30 20 21 30.0000000  0  6G18G 2G11G16G19G 6
  22005527.328     6359714.012 7   4955610.49222
  21977443.2504   -8514616.33547  -6634745.75462
  23129730.1884   -4001968.64846  -3118405.79861
  23557127.4694   -3956563.68945  -2957333.94861
  21008754.9304     856310.89347    667256.46962
  23571296.1254   -4808290.46545  -3690938.94461
 91  4 30 20 21 45.0000000  0  6G18G 2G11G16G19G 6
  22013218.906     6400141.851 7   4987112.60622
  21970978.6174   -8548590.96647  -6661219.42362
  23128717.930    -4007280.377 6  -3122544.78121
  23555791.9614   -3963595.66245  -2962813.41061
  21010432.8364     865135.56247    674132.83062
  23565136.109    -4840681.411 5  -3716178.53621
 91  4 30 20 22  0.0000000  0  6G18G 2G11G16G19G 6
  22020926.508     6440642.845 7   5018671.71422
  21964527.8364   -8582498.18547  -6687640.56662
  23127733.328    -4012453.307 6  -3126575.61221
  23554474.977    -3970502.232 5  -2968195.15221
  21012121.2664     873998.49147    681039.00262
  23558967.055    -4873068.197 5  -3741414.89121
 91  4 30 20 22 15.0000000  0  6G18G 2G11G16G19G 6
  22028648.750     6481216.878 7   5050287.74122
  21958086.6804   -8616337.80946  -6714009.03862
  23126774.320    -4017487.125 6  -3130498.04021
  23553183.117    -3977283.768 5  -2973479.45921
  21013816.4844     882899.76547    687975.05962
  23552808.117    -4905450.777 5  -3766647.95621
 91  4 30 20 22 30.0000000  0  6G18G 2G11G16G19G 6
  22036381.7274    6521861.52947   5081958.80262
  21951660.0314   -8650112.00046  -6740326.52062
  23125846.7034   -4022384.04246  -3134313.78361
  23551911.6484   -3983942.49445  -2978668.08161
  21015513.3134     891837.08647    694939.20662
  23546646.1954   -4937831.54645  -3791879.63161
 91  4 30 20 22 45.0000000  0  6G18G 2G11G16G19G 6
  22044132.9454    6562581.03147   5113688.20162
  21945245.7974   -8683815.86747  -6766589.20562
  23124939.680    -4027139.254 6  -3138019.10921
  23550672.453    -3990473.447 5  -2983757.12921
  21017222.8284     900815.48847    701935.37162
  23540484.8284   -4970205.80845  -3817106.22761
 91  4 30 20 23  0.0000000  0  6G18G 2G11G16G19G 6
  22051891.344     6603370.242 7   5145471.91721
  21938847.4064   -8717454.22947  -6792800.85262
  23124061.1724   -4031757.39546  -3141617.63461
  23549453.2814   -3996881.52745  -2988750.44561
  21018938.4924     909830.17047    708959.79362
  23534327.617    -5002578.239 5  -3842331.38221
 91  4 30 20 23 15.0000000  0  6G18G 2G11G16G19G 6
  22059670.852     6644233.745 7   5177313.52322
  21932457.4384   -8751022.85647  -6818958.16462
  23123209.805    -4036234.053 6  -3145105.91821
  23548259.414    -4003162.409 5  -2993644.64421
  21020662.2424     918885.31547    716015.75162
  23528162.977    -5034944.587 5  -3867551.80821
 91  4 30 20 23 30.0000000  0  6G18G 2G11G16G19G 6
  22067458.9694    6685166.04147   5209208.73161
  21926083.0004   -8784526.58747  -6845064.90262
  23122382.4384   -4040574.22846  -3148487.84961
  23547087.719    -4009321.177 5  -2998443.66621
  21022391.9924     927975.84347    723099.27662
  23522007.1174   -5067309.93345  -3892771.44561
 91  4 30 20 23 45.0000000  0  6G18G 2G11G16G19G 6
  22075261.453     6726171.160 7   5241160.67821
  21919720.0554   -8817961.27247  -6871117.83962
  23121582.5634   -4044773.92646  -3151760.31161
  23545933.086    -4015354.002 5  -3003144.57521
  21024130.4924     937105.98247    730213.67562
  23515846.992    -5099670.420 5  -3917987.31821
 91  4 30 20 24  0.0000000  0  6G18G 2G11G16G19G 6
  22083076.813     6767248.126 7   5273168.59821
  21913368.2974   -8851327.49247  -6897117.42562
  23120810.516    -4048833.731 6  -3154923.76721
  23544814.2424   -4021261.65345  -3007747.95261
  21025875.1174     946275.11247    737358.45062
  23509692.2504   -5132026.66045  -3943199.87761
 91  4 30 20 24 15.0000000  0  6G18G 2G11G16G19G 6
  22090910.7894    6808398.82547   5305233.98261
  21907034.6484   -8884623.03547  -6923061.94562
  23120064.383    -4052751.311 6  -3157976.40321
  23543710.406    -4027041.858 5  -3012251.99221
  21027628.1334     955485.29347    744535.21562
  23503536.4844   -5164376.52145  -3968407.44561
 91  4 30 20 24 30.0000000  0  6G18G 2G11G16G19G 6
  22098752.508     6849616.322 7   5337351.40921
  21900708.3834   -8917854.79147  -6948956.75862
  23119342.570    -4056533.460 6  -3160923.50621
  23542635.5314   -4032701.47345  -3016662.10361
  21029384.4614     964729.64747    751738.60762
  23497381.891    -5196727.030 5  -3993615.55021
 91  4 30 20 24 45.0000000  0  6G18G 2G11G16G19G 6
  22106606.5704    6890900.97246   5369521.17261
  21894398.8984   -8951022.01647  -6974801.28562
  23118652.7734   -4060179.40546  -3163764.46661
  23541580.8054   -4038240.07045  -3020977.87061
  21031153.3284     974009.08247    758969.33362
  23491223.758    -5229077.364 5  -4018823.48321
 91  4 30 20 25  0.0000000  0  6G18G 2G11G16G19G 6
  22114477.6024    6932251.94947   5401742.61261
  21888096.6884   -8984124.98347  -7000595.75062
  23117984.1954   -4063689.55646  -3166499.61661
  23540551.711    -4043657.775 5  -3025199.46521
  21032922.7974     983323.04947    766226.97062
  23485068.9774   -5261428.06445  -4044031.72861
 91  4 30 20 25 15.0000000  0  6G18G 2G11G16G19G 6
  22122357.6884    6973672.56746   5434018.32862
  21881814.3914   -9017160.37147  -7026337.54162
  23117346.172    -4067060.475 6  -3169126.28121
  23539543.8834   -4048951.46245  -3029324.41861
  21034702.9614     992675.06447    773514.25562
  23478910.367    -5293775.817 5  -4069237.67021
 91  4 30 20 25 30.0000000  0  6G18G 2G11G16G19G 6
  22130256.2194    7015164.20947   5466349.38462
  21875539.8444   -9050126.47947  -7052025.36162
  23116726.8444   -4070290.51146  -3171643.15561
  23538562.9924   -4054119.63145  -3033351.55561
  21036494.9144    1002066.78147    780832.47462
  23472758.3984   -5326119.03145  -4094440.07061
 91  4 30 20 25 45.0000000  0  6G18G 2G11G16G19G 6
  22138165.6954    7056728.89446   5498737.36161
  21869280.5164   -9083021.30047  -7077657.62562
  23116139.4144   -4073377.55546  -3174048.61561
  23537600.9614   -4059160.24345  -3037279.29861
  21038286.5554    1011500.16347    788183.16062
  23466607.477    -5358455.640 5  -4119637.33521
 91  4 30 20 26  0.0000000  0  6G18G 2G11G16G19G 6
  22146087.0704    7098362.72846   5531179.21662
  21863032.0394   -9115848.15247  -7103236.92862
  23115580.781    -4076325.059 6  -3176345.34421
  23536666.6804   -4064076.69245  -3041110.30461
  21040088.1094    1020971.81247    795563.66662
  23460447.258    -5390789.314 5  -4144832.29121
 91  4 30 20 26 15.0000000  0  6G18G 2G11G16G19G 6
  22154024.5474    7140064.60146   5563674.08462
  21856797.1884   -9148607.93947  -7128763.96962
  23115046.1724   -4079133.85046  -3178533.98261
  23535758.3914   -4068869.99045  -3044845.34961
  21041897.0634    1030480.84147    802973.30162
  23454301.922    -5423120.884 5  -4170025.62221
 91  4 30 20 26 30.0000000  0  6G18G 2G11G16G19G 6
  22161972.4774    7181833.61246   5596221.26962
  21850578.7664   -9181300.90747  -7154238.94362
  23114538.6804   -4081804.24746  -3180614.78261
  23534868.219    -4073540.549 5  -3048484.73821
  21043713.5704    1040026.75147    810411.67162
  23448144.094    -5455450.766 5  -4195217.66221
 91  4 30 20 26 45.0000000  0  6G18G 2G11G16G19G 6
  22169934.2664    7223671.15247   5628821.86261
  21844369.4774   -9213925.69947  -7179660.80262
  23114053.602    -4084334.820 6  -3182586.64021
  23534002.3524   -4078087.08645  -3052027.50161
  21045538.5554    1049611.06247    817879.96462
  23441991.133    -5487777.756 5  -4220407.41221
 91  4 30 20 27  0.0000000  0  6G18G 2G11G16G19G 6
  22177906.6174    7265573.01146   5661472.57061
  21838171.7034   -9246486.19347  -7205032.55362
  23113600.6334   -4086729.45346  -3184452.55661
  23533153.5394   -4082513.58145  -3055476.70161
  21047369.3284    1059229.90947    825375.17062
  23435840.625    -5520105.934 5  -4245598.09821
 91  4 30 20 27 15.0000000  0  6G18G 2G11G16G19G 6
  22185893.914     7307543.536 6   5694176.76822
  21831990.1334   -9278977.63147  -7230350.49462
  23113169.531    -4088983.397 6  -3186208.84821
  23532344.8054   -4086815.56245  -3058828.91761
  21049207.5554    1068888.23647    832901.13862
  23429690.6024   -5552430.27145  -4270785.81361
 91  4 30 20 27 30.0000000  0  6G18G 2G11G16G19G 6
  22193893.2734    7349579.96846   5726932.33262
  21825820.9774   -9311402.71347
  23112765.0784   -4091099.37746  -3187857.64361
  23531544.6414   -4090995.88245  -3062086.30161
  21051052.8674    1078583.24646    840455.69062
  23423539.8444   -5584753.85245
 91  4 30 20 27 45.0000000  0  6G18G 2G11G16G19G 6
  22201906.156     7391681.603 6   5759738.68921
  21819659.7424   -9343762.14847
  23112388.445    -4093077.946 6  -3189399.36121
  23530772.3364   -4095055.29345  -3065249.49161
  21052904.0634    1088314.42647    848038.41762
  23417390.2814   -5617077.18745
 91  4 30 20 28  0.0000000  0  6G18G 2G11G16G19G 6
  22209928.453     7433848.240 6   5792595.69722
  21813518.5394   -9376055.69247
  23112038.1564   -4094918.83646  -3190833.78561
  23530022.2734   -4098993.38545  -3068318.13561
  21054759.4064    1098081.67747    855649.26562
  23411237.3204   -5649400.11945
 91  4 30 20 28 15.0000000  0  6G18G 2G11G16G19G 6
  22217966.211     7476079.262 6   5825502.88821
  21807384.5554   -9408283.67247  -7331108.19062
  23111713.578    -4096622.385 6  -3192161.20521
  23529296.2734   -4102810.67145  -3071292.64961
  21056626.1954    1107884.67647    863287.96062
  23405083.078    -5681723.148 5  -4371533.13321
 91  4 30 20 28 30.0000000  0  6G18G 2G11G16G19G 6
  22226013.750     7518375.936 6   5858461.23621
  21801264.2274   -9440444.25147  -7356168.32162
  23111417.891    -4098186.982 6  -3193380.35921
  23528591.4534   -4106505.76945  -3074171.94461
  21058501.2584    1117725.23546    870955.92862
  23398933.656    -5714044.693 5  -4396718.67521
 91  4 30 20 28 45.0000000  0  6G18G 2G11G16G19G 6
  22234075.336     7560735.410 6   5891468.50521
  21795154.8984   -9472540.25547  -7381178.13762
  23111147.8754   -4099615.40946  -3194493.38761
  23527911.227    -4110081.264 5  -3076958.03921
  21060379.9384    1127600.48247    878650.92562
  23392780.8444   -5746367.55545  -4421905.22361
 91  4 30 20 29  0.0000000  0  6G18G 2G11G16G19G 6
  22242144.555     7603156.295 6   5924523.64221
  21789061.8524   -9504572.81347  -7406138.50462
  23110900.055    -4100908.600 6  -3195501.04021
  23527254.617    -4113538.368 5  -3079651.88921
  21062262.0234    1137509.49247    886372.22862
  23386634.8674   -5778692.73645  -4447093.57461
 91  4 30 20 29 15.0000000  0  6G18G 2G11G16G19G 6
  22250230.094     7645642.342 6   5957629.54421
  21782977.8444   -9536537.57747  -7431046.05662
  23110679.9224   -4102062.53646  -3196400.18861
  23526624.0394   -4116873.05045  -3082250.36061
  21064157.1094    1147456.37047    894123.03662
  23380482.0164   -5811016.23345  -4472280.62961
 91  4 30 20 29 30.0000000  0  6G18G 2G11G16G19G 6
  22258328.4774    7688191.11346   5990784.31861
  21776907.6484   -9568436.86647  -7455902.57862
  23110484.9614   -4103079.47646  -3197192.57661
  23526007.7814   -4120087.71345  -3084755.28761
  21066057.5004    1157438.71747    901901.48562
  23374332.7034   -5843340.39345  -4497468.19261
 91  4 30 20 29 45.0000000  0  6G18G 2G11G16G19G 6
  22266435.586     7730801.017 6   6023986.73621
  21770848.8594   -9600272.09447  -7480709.19362
  23110318.016    -4103960.846 6  -3197879.33621
  23525418.1724   -4123184.12545  -3087168.08761
  21067960.5634    1167455.28847    909706.60562
  23368178.055    -5875666.880 5  -4522657.57721
 91  4 30 20 30  0.0000000  0  6G18G 2G11G16G19G 6
  22274557.391     7773477.006 6   6057240.64021
  21764804.4924   -9632037.99047  -7505461.77262
  23110179.375    -4104701.318 6  -3198456.31021
  23524850.7424   -4126156.97645  -3089484.60361
  21069877.5784    1177511.29047    917542.44662
  23362025.516    -5907990.266 5  -4547844.55121
 91  4 30 20 30 15.0000000  0  6G18G 2G11G16G19G 6
  22282693.211     7816218.189 6   6090545.35421
  21758773.5864   -9663735.02447  -7530160.69862
  23110067.3834   -4105301.52146  -3198923.97161
  23524306.4844   -4129007.05645  -3091705.45161
  21071796.9614    1187606.01147    925408.46062
  23355875.6174   -5940311.41845  -4573029.77961
 91  4 30 20 30 30.0000000  0  6G18G 2G11G16G19G 6
  22290837.3754    7859024.56646   6123900.86561
  21752752.1564   -9695363.02047  -7554805.82762
  23109973.617    -4105760.947 6  -3199281.94521
  23523793.5004   -4131733.93345  -3093830.28561
  21073729.2114    1197739.84846    933304.95062
  23349729.516    -5972629.905 5  -4598212.93321
 91  4 30 20 30 45.0000000  0  6G18G 2G11G16G19G 6
  22298996.031     7901895.482 6   6157306.66521
  21746748.8834   -9726922.40547  -7579397.49262
  23109918.6094   -4106080.14946  -3199530.64461
  23523297.3524   -4134338.45545  -3095859.79361
  21075663.4224    1207912.43447    941231.64462
  23343578.5944   -6004946.17845  -4623394.37261
 91  4 30 20 31  0.0000000  0  6G18G 2G11G16G19G 6
  22307166.266     7944838.669 6   6190768.78322
  21740756.7344   -9758405.18247  -7603929.46562
  23109880.5474   -4106251.25746
  23522823.2194   -4136812.71345  -3097787.80061
  21077606.8914    1218131.71347    949194.70662
  23337433.383    -6037252.500 5  -4648568.03521
 91  4 30 20 31 15.0000000  0  6G18G 2G11G16G19G 6
  22315350.609     7987845.192 6   6224280.24921
  21734777.9534   -9789819.93847  -7628408.43262
  23109879.3204   -4106282.93746
  23522374.836    -4139165.358 5  -3099621.03521
  21079557.2814    1228389.06147    957187.44262
  23331281.7814   -6069557.57545  -4673740.74761
 91  4 30 20 31 30.0000000  0  6G18G 2G11G16G19G 6
  22323549.172     8030916.397 6   6257842.11821
  21728815.0944   -9821164.86747  -7652832.99262
  23109896.3984   -4106173.29546
  23521954.016    -4141394.631 5  -3101358.14221
  21081518.9774    1238686.38546    965211.32762
  23325137.102    -6101859.622 5  -4698911.09621
 91  4 30 20 31 45.0000000  0  6G18G 2G11G16G19G 6
  22331754.3754    8074048.16546   6291451.17161
  21722862.6644   -9852444.37747  -7677206.57662
  23109946.8134   -4105926.54846
  23521553.703    -4143504.977 5  -3103002.58821
  21083482.9844    1249019.22647    973262.88962
  23318984.3524   -6134162.76445  -4724082.29361
 91  4 30 20 32  0.0000000  0  6G18G 2G11G16G19G 6
  22339973.859     8117247.076 6   6325112.55221
  21716922.6094   -9883651.35647  -7701523.63962
  23110019.3524   -4105535.74446
  23521172.1954   -4145489.44445  -3104548.93461
  21085457.2194    1259394.70347    981347.67662
  23312841.906    -6166460.241 5  -4749249.08821
 91  4 30 20 32 15.0000000  0  6G18G 2G11G16G19G 6
  22348209.500     8160510.872 6   6358824.48921
  21710998.9224   -9914787.79747  -7725785.73962
  23110117.8524   -4105002.92646  -3198691.06161
  23520817.398    -4147349.972 5  -3105998.71821
  21087439.0234    1269811.01247    989464.28162
  23306697.359    -6198754.058 5  -4774413.01521
 91  4 30 20 32 30.0000000  0  6G18G 2G11G16G19G 6
  22356454.609     8203839.791 6   6392587.17721
  21705087.7114   -9945853.00347  -7749992.33562
  23110249.695    -4104327.516 6  -3198164.74021
  23520489.8524   -4149086.48445  -3107351.84761
  21089431.8834    1280268.73947    997613.16162
  23300555.773    -6231043.737 5  -4799573.71921
 91  4 30 20 32 45.0000000  0  6G18G 2G11G16G19G 6
  22364711.2034    8247233.03146   6426399.97161
  21699189.6254   -9976847.73947  -7774144.01862
  23110404.1024   -4103510.14746  -3197527.79961
  23520183.805    -4150699.683 5  -3108608.89421
  21091428.5234    1290767.02647   1005793.63962
  23294406.961    -6263329.927 5  -4824731.70021
 91  4 30 20 33  0.0000000  0  6G18G 2G11G16G19G 6
  22372983.555     8290690.577 6   6460262.88321
  21693303.758   -10007771.627 7  -7798240.50322
  23110589.1804   -4102550.66946  -3196780.12261
  23519896.7274   -4152189.35445  -3109769.68861
  21093432.3754    1301306.13447   1014005.93362
  23288264.7274   -6295612.54645  -4849886.90061
 91  4 30 20 33 15.0000000  0  6G18G 2G11G16G19G 6
  22381259.3284    8334210.55446   6494174.44061
  21687432.3134  -10038626.58647  -7822283.26862
  23110798.109    -4101450.731 6  -3195922.99421
  23519639.313    -4153557.401 5  -3110835.69821
  21095446.8754    1311884.29447   1022248.65162
  23282121.789    -6327893.308 5  -4875040.66821
 91  4 30 20 33 30.0000000  0  6G18G 2G11G16G19G 6
  22389557.898     8377792.912 6   6528134.61121
  21681574.4694  -10069412.11747  -7846271.93962
  23111034.609    -4100209.911 6  -3194956.07921
  23519401.742    -4154803.624 5  -3111806.78421
  21097467.7344    1322501.84846   1030522.06762
  23275977.3444   -6360171.77445  -4900192.63261
 91  4 30 20 33 45.0000000  0  6G18G 2G11G16G19G 6
  22397863.2894    8421438.75446   6562144.24061
  21675729.6414  -10100126.68347  -7870205.30462
  23111297.7114   -4098826.75646  -3193878.26261
  23519187.508    -4155926.244 5  -3112681.56221
  21099497.4454    1333160.53147   1038827.53062
  23269838.6644   -6392446.63645  -4925341.78961
 91  4 30 20 34  0.0000000  0  6G18G 2G11G16G19G 6
  22406181.125     8465155.883 6   6596209.42921
  21669900.5314  -10130762.13847  -7894077.03262
  23111586.1564   -4097293.31446  -3192683.34061
  23518999.602    -4156917.594 5  -3113454.06621
  21101532.9774    1343868.36546   1047171.29362
  23263697.3284   -6424709.90345  -4950481.93461
 91  4 30 20 34 15.0000000  0  6G18G 2G11G16G19G 6
  22414512.7974    8508937.43846   6630324.80161
  21664082.8444  -10161325.06147  -7917892.23762
  23111907.6094   -4095616.26846  -3191376.51961
  23518836.0474   -4157784.40845  -3114129.50261
  21103577.3364    1354618.78746   1055548.24762
  23257562.555    -6456968.213 5  -4975618.19621
 91  4 30 20 34 30.0000000  0  6G18G 2G11G16G19G 6
  22422858.563     8552785.251 6   6664491.81221
  21658282.5234  -10191813.67247  -7941649.53862
  23112254.7974   -4093793.72046  -3189956.32061
  23518688.656    -4158524.944 5  -3114706.56521
  21105631.0164    1365413.73446   1063959.88862
  23251421.422    -6489219.787 5  -5000749.21221
 91  4 30 20 34 45.0000000  0  6G18G 2G11G16G19G 6
  22431212.7504    8596698.69846   6698709.96761
  21652493.781   -10222228.094 7  -7965349.03022
  23112626.0234   -4091825.86146  -3188422.89061
  23518573.3284   -4159139.67645  -3115185.58761
  21107695.7504    1376252.86546   1072405.96262
  23245286.1094   -6521464.85345  -5025875.14561
 91  4 30 20 35  0.0000000  0  6G18G 2G11G16G19G 6
  22439581.3834    8640674.50146   6732976.70261
  21646718.5784  -10252571.55047  -7988993.22762
  23113029.906    -4089715.773 6  -3186778.63321
  23518481.4064   -4159631.71345  -3115568.98661
  21109765.7734    1387133.20146   1080884.14562
  23239145.938    -6553706.372 5  -5050998.33021
 91  4 30 20 35 15.0000000  0  6G18G 2G11G16G19G 6
  22447962.3914    8684714.88946   6767293.77361
  21640961.461   -10282841.599 7  -8012580.22822
  23113459.1024   -4087461.01146  -3185021.64261
  23518413.3054   -4159998.50345  -3115854.83861
  21111843.8984    1398057.20846   1089396.35762
  23233017.406    -6585942.110 5  -5076117.01521
 91  4 30 20 35 30.0000000  0  6G18G 2G11G16G19G 6
  22456354.352     8728818.122 6   6801659.81421
  21635212.219   -10313039.415 7  -8036110.93822
  23113913.6884   -4085062.88146  -3183152.94361
  23518367.9384   -4160241.70845  -3116044.35061
  21113931.5314    1409023.60946   1097941.60262
  23226882.906    -6618173.308 5  -5101232.15221
 91  4 30 20 35 45.0000000  0  6G18G 2G11G16G19G 6
  22464764.148     8772986.905 6   6836076.93321
  21629479.9924  -10343162.06847  -8059583.08062
  23114401.758    -4082518.729 6  -3181170.46621
  23518341.789    -4160358.613 5
  21116026.3444    1420035.23146   1106522.08762
  23220748.328    -6650397.085 5  -5126341.51521
 91  4 30 20 36  0.0000000  0  6G18G 2G11G16G19G 6
  22473177.7424    8817218.20546   6870542.76061
  21623761.8914  -10373212.43647  -8082998.89262
  23114911.2974   -4079831.36346  -3179076.38661
  23518345.867    -4160351.932 5
  21118131.5554    1431089.34547   1115135.68262
  23214623.2664   -6682616.55945  -5151447.51061
 91  4 30 20 36 15.0000000  0  6G18G 2G11G16G19G 6
  22481605.852     8861514.945 6   6905059.59121
  21618057.922   -10403187.031 7  -8106355.66322
  23115450.4614   -4076997.40646  -3176868.07761
  23518370.3444   -4160218.58645
  21120243.0554    1442189.16446   1123784.89362
  23208490.469    -6714828.411 5  -5176547.56921
 91  4 30 20 36 30.0000000  0  6G18G 2G11G16G19G 6
  22490050.922     8905874.678 6   6939625.50221
  21612367.000   -10433088.355 7  -8129655.34722
  23116018.5394   -4074019.26246  -3174547.41161
  23518417.836    -4159961.412 5
  21122361.1414    1453332.27547   1132467.83762
  23202360.500    -6747034.949 5  -5201643.49521
 91  4 30 20 36 45.0000000  0  6G18G 2G11G16G19G 6
  22498501.922     8950300.109 6   6974242.61121
  21606692.719   -10462913.281 7  -8152895.49422
  23116609.0084   -4070893.85646  -3172111.99961
  23518489.7194   -4159577.17145  -3115526.60661
  21124494.2194    1464522.08247   1141187.17262
  23196237.336    -6779233.055 5  -5226732.85121
 91  4 30 20 37  0.0000000  0  6G18G 2G11G16G19G 6
  22506967.875     8994787.572 6   7008908.05321
  21601029.8674  -10492665.27347  -8176078.80962
  23117231.305    -4067624.754 6  -3169564.62421
  23518590.2344   -4159069.28345  -3115130.84761
  21126629.6414    1475755.05047   1149940.13662
  23190111.180    -6811426.324 5  -5251818.43321
 91  4 30 20 37 15.0000000  0  6G18G 2G11G16G19G 6
  22515445.406     9039338.339 6   7043622.83321
  21595384.211   -10522342.773 7  -8199204.07522
  23117881.5784   -4064210.41446  -3166904.07061
  23518708.9774   -4158436.58645  -3114637.87561
  21128775.9844    1487032.74947   1158727.95862
  23183982.7034   -6843613.30945  -5276899.11161
 91  4 30 20 37 30.0000000  0  6G18G 2G11G16G19G 6
  22523939.5314    9083951.53846   7078386.24161
  21589748.828   -10551946.356 7  -8222271.75422
  23118559.5234   -4060651.42146  -3164130.80261
  23518851.4844   -4157679.59345  -3114048.00561
  21130929.9694    1498354.62247   1167550.20162
  23177863.9924   -6875794.42845  -5301975.23061
 91  4 30 20 37 45.0000000  0  6G18G 2G11G16G19G 6
  22532438.945     9128626.837 6   7113198.05721
  21584131.820   -10581476.065 7  -8245281.86022
  23119265.570    -4056947.896 6  -3161244.92521
  23519025.4694   -4156798.75945  -3113361.67961
  21133094.0554    1509720.55847   1176406.77962
  23171732.8594   -6907969.93345  -5327046.96061
 91  4 30 20 38  0.0000000  0  6G18G 2G11G16G19G 6
  22540952.984     9173365.303 6   7148059.08521
  21578526.344   -10610930.718 7  -8268233.48522
  23119994.641    -4053098.704 6  -3158245.53421
  23519212.7584   -4155793.06245  -3112578.03761
  21135266.6724    1521131.74347   1185298.61062
  23165615.234    -6940138.650 5  -5352113.42021
 91  4 30 20 38 15.0000000  0  6G18G 2G11G16G19G 6
  22549475.492     9218166.347 6   7182968.87721
  21572936.813   -10640310.526 7  -8291126.78922
  23120755.758    -4049103.885 6  -3155132.66521
  23519427.961    -4154662.484 5  -3111697.09721
  21137446.6484    1532588.24147   1194225.75362
  23159495.6954   -6972300.85945  -5377174.80861
 91  4 30 20 38 30.0000000  0  6G18G 2G11G16G19G 6
  22558013.688     9263030.696 6   7217927.99621
  21567356.945   -10669614.580 7  -8313961.06022
  23121544.3754   -4044962.73346  -3151905.76661
  23519663.1414   -4153406.67345  -3110718.56361
  21139633.0634    1544090.81047   1203188.79762
  23153376.273    -7004455.722 5  -5402230.46221
 91  4 30 20 38 45.0000000  0  6G18G 2G11G16G19G 6
  22566565.305     9307958.863 6   7252936.84221
  21561796.0084  -10698841.71047  -8336735.39262
  23122362.8054   -4040674.35946  -3148564.13661
  23519927.4224   -4152024.81245  -3109641.81561
  21141832.6724    1555640.59147   1212188.62662
  23147259.570    -7036602.175 5  -5427279.55921
 91  4 30 20 39  0.0000000  0  6G18G 2G11G16G19G 6
  22575125.1644    9352952.91346   7287997.02161
  21556248.813   -10727989.630 7  -8359448.00422
  23123206.891    -4036236.458 6  -3145105.99221
  23520211.1094   -4150514.56045  -3108465.02661
  21144038.0084    1567239.79347   1221226.96962
  23141145.008    -7068737.985 5  -5452320.37221
 91  4 30 20 39 15.0000000  0  6G18G 2G11G16G19G 6
  22583698.602     9398005.262 6   7323102.64021
  21550716.9304  -10757065.89947  -8382104.77862
  23124076.9224   -4031656.48246  -3141537.14961
  23520527.977    -4148883.263 5  -3107193.88521
  21146255.1254    1578881.01647   1230298.05262
  23135028.711    -7100870.602 5  -5477358.69321
 91  4 30 20 39 30.0000000  0  6G18G 2G11G16G19G 6
  22592283.6024    9443114.15946   7358252.30861
  21545196.977   -10786071.882 7  -8404706.78922
  23124976.6414   -4026936.01346  -3137858.83761
  23520862.6254   -4147132.78745  -3105829.92761
  21148479.6024    1590562.67747   1239400.64962
  23128914.914    -7133001.637 5  -5502395.77521
 91  4 30 20 39 45.0000000  0  6G18G 2G11G16G19G 6
  22600879.570     9488285.519 6   7393450.66121
  21539691.391   -10815001.628 7  -8427249.39422
  23125902.742    -4022068.944 6  -3134066.29121
  23521219.117    -4145257.167 5  -3104368.41721
  21150709.4144    1602290.93047   1248539.54562
  23122801.8914   -7165124.91645  -5527426.82461
 91  4 30 20 40  0.0000000  0  6G18G 2G11G16G19G 6
  22609487.422     9533521.301 6   7428699.21021
  21534202.023   -10843852.753 7  -8449730.73622
  23126854.523    -4017052.976 6  -3130157.72421
  23521600.2664   -4143254.24645  -3102807.72161
  21152952.4454    1614068.18646   1257716.63162
  23116690.7664   -7197238.14246  -5552450.03461
 91  4 30 20 40 15.0000000  0  6G18G 2G11G16G19G 6
  22618108.3984    9578816.21446   7463993.83061
  21528727.258   -10872630.391 7  -8472154.81322
  23127838.977    -4011893.421 6  -3126137.27721
  23522002.7034   -4141128.95945  -3101151.67461
  21155198.1484    1625889.39646   1266927.96062
  23110576.164    -7229346.552 5  -5577469.49221
 91  4 30 20 40 30.0000000  0  6G18G 2G11G16G19G 6
  22626735.4694    9624168.51646   7499333.16861
  21523262.930   -10901335.802 7  -8494522.61322
  23128849.094    -4006591.509 6  -3122005.90421
  23522432.0634   -4138883.23645  -3099401.79561
  21157455.3364    1637753.30047   1276172.56162
  23104469.7814   -7261451.41845  -5602486.19361
 91  4 30 20 40 45.0000000  0  6G18G 2G11G16G19G 6
  22635379.3134    9669581.62546   7534719.88261
  21517815.1094  -10929965.50947  -8516831.42062
  23129884.9454   -4001143.69546  -3117760.82161
  23522879.641    -4136513.608 5  -3097555.36721
  21159724.4304    1649663.46746   1285453.21062
  23098366.391    -7293549.296 5  -5627497.45021
 91  4 30 20 41  0.0000000  0  6G18G 2G11G16G19G 6
  22644033.297     9715053.411 6   7570152.33221
  21512380.063   -10958521.126 7  -8539082.49722
  23130947.234    -3995551.902 6  -3113403.56621
  23523354.7424   -4134022.07545  -3095613.95261
  21162001.0004    1661618.07046   1294768.48762
  23092257.7274   -7325641.85245  -5652504.55961
 91  4 30 20 41 15.0000000  0  6G18G 2G11G16G19G 6
  22652694.539     9760585.614 6   7605631.85421
  21506960.320   -10987001.160 7  -8561274.67322
  23132038.359    -3989814.486 6  -3108932.83221
  23523853.023    -4131406.727 5  -3093576.03621
  21164283.3594    1673618.86546   1304119.75562
  23086147.125    -7357727.545 5  -5677506.31521
 91  4 30 20 41 30.0000000  0  6G18G 2G11G16G19G 6
  22661372.664     9806178.931 6   7641158.99821
  21501557.617   -11015404.228 7  -8583406.88022
  23133161.2814   -3983930.11346  -3104347.58561
  23524374.250    -4128666.668 5  -3091440.95121
  21166574.7664    1685667.21946   1313508.08062
  23080047.8364   -7389805.10545  -5702501.74861
 91  4 30 20 41 45.0000000  0  6G18G 2G11G16G19G 6
  22670056.8674    9851827.31446   7676729.04561
  21496163.188   -11043736.064 7  -8605483.58322
  23134308.547    -3977904.799 6  -3099652.51621
  23524923.398    -4125807.848 5  -3089213.32821
  21168876.8364    1697757.28746   1322928.91062
  23073944.430    -7421880.368 5  -5727495.38621
 91  4 30 20 42  0.0000000  0  6G18G 2G11G16G19G 6
  22678756.5004    9897531.77746   7712342.79361
  21490785.102   -11071995.261 7  -8627503.68222
  23135478.586    -3971737.193 6  -3094846.57521
  23525486.7664   -4122828.98545  -3086892.16961
  21171186.0704    1709890.57546   1332383.41362
  23067840.453    -7453952.008 5  -5752486.19521
 91  4 30 20 42 15.0000000  0  6G18G 2G11G16G19G 6
  22687468.0164    9943291.22146   7747999.38661
  21485424.063   -11100182.789 7  -8649467.93623
  23136681.336    -3965428.282 6  -3089930.52121
  23526073.9774   -4119731.07245  -3084478.23261
  21173500.7194    1722066.31646   1341871.00562
  23061734.7734   -7486020.91845  -5777474.87861
 91  4 30 20 42 30.0000000  0  6G18G 2G11G16G19G 6
  22696181.0474    9989111.43346   7783703.33561
  21480073.281   -11128292.767 7  -8671371.75723
  23137910.508    -3958972.200 6  -3084899.80221
  23526686.836    -4116508.801 5  -3081967.40221
  21175829.6414    1734290.23746   1351396.13162
  23055631.4534   -7518081.26045  -5802456.88261
 91  4 30 20 42 45.0000000  0  6G18G 2G11G16G19G 6
  22704916.3914   10034991.62946   7819454.00261
  21474738.063   -11156325.552 7  -8693215.43823
  23139163.492    -3952369.445 6  -3079754.78721
  23527331.2194   -4113162.53145  -3079359.95761
  21178163.3364    1746561.78246   1360958.37162
  23049535.055    -7550133.348 5  -5827432.47021
 91  4 30 20 43  0.0000000  0  6G18G 2G11G16G19G 6
  22713656.7034   10080928.33146   7855248.71561
  21469418.273   -11184284.241 7  -8715001.37923
  23140448.758    -3945623.141 6  -3074497.90821
  23527983.7034   -4109695.46345  -3076658.37261
  21180510.8364    1758878.16446   1370555.54662
  23043438.648    -7582180.360 5  -5852404.09321
 91  4 30 20 43 15.0000000  0  6G18G 2G11G16G19G 6
  22722409.0864   10126919.19946   7891085.63761
  21464112.938   -11212170.971 7  -8736731.24923
  23141762.039    -3938735.515 6  -3069130.90821
  23528664.883    -4106109.535 5  -3073864.16521
  21182855.5944    1771237.30046   1380186.03462
  23037342.2974   -7614224.54745  -5877373.52061
 91  4 30 20 43 30.0000000  0  6G18G 2G11G16G19G 6
  22731170.8754   10172966.56446   7926966.58261
  21458821.836   -11239983.458 7  -8758403.26322
  23143096.8754   -3931704.32946  -3063652.03761
  23529372.555    -4102402.961 5  -3070975.97321
  21185218.7664    1783641.49146   1389851.63262
  23031241.313    -7646263.589 5  -5902338.93321
 91  4 30 20 43 45.0000000  0  6G18G 2G11G16G19G 6
  22739944.023    10219069.022 6   7962890.45421
  21453540.664   -11267722.672 7  -8780018.19023
  23144464.797    -3924530.663 6  -3058062.14221
  23530102.6804   -4098576.98345  -3067994.71561
  21187589.2034    1796089.82946   1399551.63262
  23025145.586    -7678298.496 5  -5927301.11021
 91  4 30 20 44  0.0000000  0  6G18G 2G11G16G19G 6
  22748725.945    10265226.832 6   7998857.45421
  21448276.391   -11295388.112 7  -8801575.62423
  23145856.156    -3917213.887 6  -3052360.74221
  23530852.570    -4094630.820 5  -3064919.83321
  21189966.1804    1808582.90346   1409286.49062
  23019049.531    -7710328.620 5  -5952259.57421
 91  4 30 20 44 15.0000000  0  6G18G 2G11G16G19G 6
  22757523.6334   10311435.23646   8034863.86861
  21443024.672   -11322984.163 7  -8823078.99223
  23147276.8444   -3909758.60846  -3046551.41561
  23531623.141    -4090569.204 5  -3061754.95021
  21192350.6414    1821116.27346   1419052.74062
  23012956.086    -7742358.532 5  -5977217.87921
 91  4 30 20 44 30.0000000  0  6G18G 2G11G16G19G 6
  22766325.4454   10357700.09046   8070914.28761
  21437787.961   -11350504.824 7  -8844523.61323
  23148718.797    -3902159.037 6  -3040629.66521
  23532420.5164   -4086386.42445  -3058495.67561
  21194746.0164    1833695.95747   1428855.08262
  23006862.0634   -7774382.16745  -6002171.29661
 91  4 30 20 44 45.0000000  0  6G18G 2G11G16G19G 6
  22775140.391    10404016.756 6   8107005.06321
  21432563.617   -11377954.584 7  -8865912.99023
  23150192.453    -3894419.555 6  -3034598.87721
  23533244.7194   -4082087.00545  -3055145.51161
  21197148.320     1846317.552 7   1438690.07922
  23000771.945    -7806404.066 5  -6027123.35121
 91  4 30 20 45  0.0000000  0  6G18G 2G11G16G19G 6
  22783961.2274   10450386.92046   8143137.53361
  21427354.906   -11405330.964 7  -8887245.19023
  23151693.672    -3886537.823 6  -3028457.24921
  23534080.875    -4077669.062 5  -3051702.99221
  21199556.6884    1858983.32247   1448559.50562
  22994677.055    -7838421.785 5  -6052072.14821
 91  4 30 20 45 15.0000000  0  6G18G 2G11G16G19G 6
  22792798.8834   10496814.45546   8179314.70261
  21422160.211   -11432630.019 7  -8908517.13523
  23153221.7814   -3878510.11046  -3022201.86361
  23534947.7344   -4073128.63645  -3048165.03261
  21201977.7194    1871697.38247   1458466.55562
  22988587.2814   -7870431.55145  -6077014.75161
 91  4 30 20 45 30.0000000  0  6G18G 2G11G16G19G 6
  22801643.336    10543295.287 6   8215533.40021
  21416978.266   -11459855.597 7  -8929731.82823
  23154773.703    -3870340.149 6  -3015835.63221
  23535831.1094   -4068469.75845  -3044534.77061
  21204403.5784    1884456.17447   1468408.46462
  22982490.813    -7902436.906 5  -6101953.91421
 91  4 30 20 45 45.0000000  0  6G18G 2G11G16G19G 6
  22810498.117    10589827.310 6   8251791.97821
  21411812.117   -11487009.829 7  -8950890.92523
  23156358.430    -3862030.187 6  -3009360.32421
  23536737.5234   -4063694.60745  -3040813.90561
  21206840.8364    1897257.55647   1478383.56362
  22976399.6174   -7934440.19645  -6126891.48461
 91  4 30 20 46  0.0000000  0  6G18G 2G11G16G19G 6
  22819360.9454   10636416.32546   8288094.98661
  21406659.711   -11514086.595 7  -8971989.65723
  23157967.125    -3853574.235 6  -3002771.25521
  23537672.6724   -4058797.52445  -3036998.04661
  21209286.2974    1910107.44446   1488396.45862
  22970313.5234   -7966435.19045  -6151822.57561
 91  4 30 20 46 15.0000000  0  6G18G 2G11G16G19G 6
  22828240.891    10683061.383 6   8324441.66321
  21401520.766   -11541086.532 7  -8993028.52223
  23159600.617    -3844972.990 6  -2996068.96321
  23538626.688    -4053778.894 5  -3033087.44421
  21211739.5704    1923005.29247   1498446.72262
  22964228.328    -7998422.719 5  -6176747.84721
 91  4 30 20 46 30.0000000  0  6G18G 2G11G16G19G 6
  22837124.6484   10729756.18846   8360827.08761
  21396395.039   -11568015.467 7  -9014012.06323
  23161267.273    -3836232.268 6  -2989258.00021
  23539602.6334   -4048644.75045  -3029086.86961
  21214202.5944    1935945.48247   1508529.97962
  22958143.9064   -8030408.43445  -6201671.71461
 91  4 30 20 46 45.0000000  0  6G18G 2G11G16G19G 6
  22846023.8444   10776504.33346   8397254.08061
  21391287.953   -11594869.555 7  -9034937.28523
  23162958.055    -3827348.503 6  -2982335.57721
  23540603.805    -4043391.685 5  -3024993.60921
  21216673.0394    1948931.75247   1518649.14262
  22952054.164    -8062388.755 5  -6226591.36621
 91  4 30 20 47  0.0000000  0  6G18G 2G11G16G19G 6
  22854929.0234   10823307.67146   8433724.08661
  21386189.133   -11621646.813 7  -9055802.63523
  23164672.586    -3818319.600 6  -2975300.05521
  23541631.2114   -4038017.73445  -3020806.13261
  21219155.383     1961966.183 7   1528805.82822
  22945969.5554   -8094361.49945  -6251505.12361
 91  4 30 20 47 15.0000000  0  6G18G 2G11G16G19G 6
  22863842.648    10870163.003 6   8470234.59921
  21381112.125   -11648350.110 7  -9076610.35423
  23166418.8524   -3809148.56746  -2968153.78061
  23542666.078    -4032526.091 5  -3016526.99421
  21221642.1484    1975045.92647   1538997.82562
  22939889.070    -8126329.595 5  -6276415.25821
 91  4 30 20 47 30.0000000  0  6G18G 2G11G16G19G 6
  22872773.3444   10917072.69746   8506787.47961
  21376043.578   -11674976.695 7  -9097358.30223
  23168188.219    -3799832.759 6  -2960894.70221
  23543738.727    -4026914.082 5  -3012154.02221
  21224139.9774    1988173.80747   1549227.33162
  22933804.1884   -8158290.30846  -6301319.64261
 91  4 30 20 47 45.0000000  0  6G18G 2G11G16G19G 6
  22881707.078    10964037.486 6   8543383.29821
  21370989.992   -11701525.635 7  -9118045.74523
  23169994.727    -3790371.426 6  -2953522.21921
  23544828.961    -4021180.871 5  -3007686.62821
  21226647.4614    2001350.66847   1559495.00562
  22927727.891    -8190242.823 6  -6326217.63721
 91  4 30 20 48  0.0000000  0  6G18G 2G11G16G19G 6
  22890656.422    11011055.997 6   8580020.95821
  21365952.180   -11727998.017 7  -9138673.53323
  23171819.859    -3780765.833 6  -2946037.33321
  23545941.172    -4015327.780 5  -3003125.81421
  21229165.5314    2014575.52247   1569800.07562
  22921644.430    -8222188.173 6  -6351110.04021
 91  4 30 20 48 15.0000000  0  6G18G 2G11G16G19G 6
  22899615.031    11058124.271 6   8616697.40821
  21360926.383   -11754397.729 7  -9159244.69123
  23173673.1334   -3771019.88946  -2938443.09061
  23547076.3914   -4009358.77645  -2998474.69461
  21231689.3134    2027844.49647   1580139.53262
  22915566.625    -8254130.225 6  -6375999.88221
 91  4 30 20 48 30.0000000  0  6G18G 2G11G16G19G 6
  22908579.039    11105239.801 6   8653410.67021
  21355918.539   -11780726.643 7  -9179760.68423
  23175556.289    -3761135.537 6  -2930740.98421
  23548236.0084   -4003276.09545  -2993734.97161
  21234221.5394    2041155.73647   1590511.91962
  22909494.375    -8286070.879 6  -6400888.63121
 91  4 30 20 48 45.0000000  0  6G18G 2G11G16G19G 6
  22917555.516    11152407.740 6   8690164.77921
  21350922.625   -11806979.750 7  -9200217.60523
  23177464.0394   -3751107.84146  -2922927.18161
  23549414.195    -3997075.108 5  -2988903.08121
  21236762.5704    2054514.39946   1600921.25662
  22903411.8834   -8318005.07146  -6425772.35161
 91  4 30 20 49  0.0000000  0  6G18G 2G11G16G19G 6
  22926538.898    11199624.893 6   8726957.22521
  21345942.438   -11833159.826 7  -9220617.61923
  23179399.383    -3740939.739 6  -2915003.96921
  23550614.6484   -3990758.62445  -2983981.18061
  21239313.9534    2067917.57847   1611365.28162
  22897333.813    -8349935.710 6  -6450653.28921
 91  4 30 20 49 15.0000000  0  6G18G 2G11G16G19G 6
  22935531.352    11246890.876 6   8763787.72621
  21340972.461   -11859266.936 7  -9240960.78123
  23181363.4694   -3730631.47346  -2906971.54461
  23551844.2424   -3984326.80445  -2978969.41761
  21241874.750     2081365.431 6   1621844.12022
  22891262.7814   -8381862.83946  -6475531.50561
 91  4 30 20 49 30.0000000  0  6G18G 2G11G16G19G 6
  22944541.492    11294209.674 6   8800659.37121
  21336021.000   -11885296.757 7  -9261243.71723
  23183349.836    -3720178.721 6  -2898826.53621
  23553092.898    -3977775.395 5  -2973864.47121
  21244440.750     2094862.410 6   1632361.23422
  22885186.7344   -8413782.11346  -6500403.59561
 91  4 30 20 49 45.0000000  0  6G18G 2G11G16G19G 6
  22953551.727    11341581.174 6   8837572.10321
  21331080.086   -11911249.416 7  -9281466.52523
  23185367.328    -3709581.372 6  -2890568.84921
  23554360.2114   -3971104.86145  -2968666.67961
  21247021.539     2108408.422 7   1642916.55522
  22879114.0234   -8445693.35946  -6525269.43361
 91  4 30 20 50  0.0000000  0  6G18G 2G11G16G19G 6
  22962577.250    11389001.076 6   8874522.53421
  21326156.7114  -11937128.66847  -9301632.13463
  23187407.7584   -3698843.61846  -2882201.76461
  23555648.7424   -3964319.02845  -2963379.05261
  21249607.5554    2121999.50946   1653507.00362
  22873043.031    -8477600.730 6  -6550132.23921
 91  4 30 20 50 15.0000000  0  6G18G 2G11G16G19G 6
  22971612.1484   11436472.54146   8911513.15661
  21321247.531   -11962931.296 7  -9321738.03623
  23189477.0944   -3687962.47046  -2873722.94161
  23556962.6414   -3957414.98345  -2957999.33761
  21252202.9614    2135638.96947   1664135.14662
  22866974.078    -8509500.982 6  -6574989.50321
 91  4 30 20 50 30.0000000  0  6G18G 2G11G16G19G 6
  22980651.320    11483991.231 6   8948540.57221
  21316350.1724  -11988661.20947  -9341787.28063
  23191576.820    -3676941.938 6  -2865135.50321
  23558298.7274   -3950396.84145  -2952530.68561
  21254807.0704    2149322.96746   1674797.98862
  22860904.008    -8541397.948 6  -6599844.20821
 91  4 30 20 50 45.0000000  0  6G18G 2G11G16G19G 6
  22989708.0314   11531559.82046   8985606.85561
  21311467.6024  -12014315.63347  -9361777.69863
  23193703.5084   -3665778.91046  -2856437.03361
  23559653.867    -3943262.107 5  -2946971.19621
  21257417.8834    2163054.56547   1685497.92662
  22854830.906    -8573288.760 6  -6624694.12021
 91  4 30 20 51  0.0000000  0  6G18G 2G11G16G19G 6
  22998766.063    11579174.287 6   9022708.89921
  21306600.3834  -12039898.14347  -9381712.08163
  23195852.164    -3654477.389 6  -2847630.64321
  23561036.0314   -3936014.43045  -2941323.70061
  21260040.0084    2176829.93347   1696231.97262
  22848765.6884   -8605177.04546  -6649542.06461
 91  4 30 20 51 15.0000000  0  6G18G 2G11G16G19G 6
  23007836.406    11626834.302 6   9059846.42821
  21301745.102   -12065409.048 7  -9401590.66723
  23198029.4774   -3643037.87246  -2838716.71461
  23562438.1804   -3928654.47045  -2935588.69661
  21262671.7814    2190648.91847   1707000.00162
  22842698.4774   -8637063.17746  -6674388.33061
 91  4 30 20 51 30.0000000  0  6G18G 2G11G16G19G 6
  23016914.281    11674545.146 6   9097023.57621
  21296904.1254  -12090842.86847  -9421409.18963
  23200231.8364   -3631454.78946  -2829690.92961
  23563861.266    -3921176.687 5  -2929761.90121
  21265309.3204    2204517.30347   1717806.52762
  22836634.4844   -8668941.53046  -6699228.54361
 91  4 30 20 51 45.0000000  0  6G18G 2G11G16G19G 6
  23026002.727    11722303.571 6   9134237.78921
  21292080.539   -12116202.409 7  -9441169.82823
  23202465.2814   -3619731.14746  -2820555.61261
  23565306.6644   -3913584.03345  -2923845.56961
  21267957.4144    2218432.27846   1728649.35062
  22830564.5004   -8700814.97946  -6724064.92861
 91  4 30 20 52  0.0000000  0  6G18G 2G11G16G19G 6
  23035100.430    11770109.092 6   9171488.71221
  21287268.5234  -12141487.82447  -9460872.71363
  23204721.7424   -3607867.24046  -2811311.00761
  23566771.508    -3905876.827 5  -2917840.00821
  21270613.8444    2232393.55946   1739528.26362
  22824499.6724   -8732683.64946  -6748897.59661
 91  4 30 20 52 15.0000000  0  6G18G 2G11G16G19G 6
  23044205.945    11817963.325 6   9208777.57421
  21282471.438   -12166697.060 7  -9480516.22723
  23207006.3834   -3595861.13146  -2801955.60461
  23568260.1884   -3898053.49245  -2911743.93861
  21273280.2664    2246403.23046   1750444.88262
  22818441.0474   -8764545.51146  -6773724.94661
 91  4 30 20 52 30.0000000  0  6G18G 2G11G16G19G 6
  23053324.039    11865866.247 6   9246104.36921
  21277690.203   -12191830.187 7  -9500100.44423
  23209320.2894   -3583712.83746  -2792489.40361
  23569772.250    -3890114.084 5  -2905557.42521
  21275955.766     2260461.305 6   1761399.21222
  22812377.766    -8796400.534 6  -6798546.97721
 91  4 30 20 52 45.0000000  0  6G18G 2G11G16G19G 6
  23062448.2344   11913813.60946   9283465.80561
  21272917.8914  -12216891.20547  -9519628.46663
  23211657.4774   -3571426.50746  -2782915.63761
  23571305.4144   -3882062.58745  -2899283.58461
  21278636.852     2274563.700 6   1772388.07622
  22806314.2664   -8828252.74546  -6823366.80861
 91  4 30 20 53  0.0000000  0  6G18G 2G11G16G19G 6
  23071579.4694   11961807.08546   9320863.15961
  21268165.469   -12241878.007 7  -9539098.66023
  23214020.1174   -3559000.13246  -2773232.75261
  23572856.7344   -3873897.27445  -2892921.04361
  21281331.359     2288712.836 7   1783413.36122
  22800256.5704   -8860099.95246  -6848182.74461
 91  4 30 20 53 15.0000000  0  6G18G 2G11G16G19G 6
  23080721.1334   12009847.82846   9358297.36761
  21263423.6484  -12266789.34447  -9558510.05763
  23216412.8914   -3546432.57046  -2763439.85361
  23574432.8524   -3865617.34945  -2886469.19261
  21284034.5474    2302910.11246   1794476.16462
  22794194.3674   -8891940.94246  -6872993.83261
 91  4 30 20 53 30.0000000  0  6G18G 2G11G16G19G 6
  23089873.008    12057933.767 6   9395766.78821
  21258696.914   -12291627.217 7  -9577864.19723
  23218831.6484   -3533726.06346  -2753538.66461
  23576030.8444   -3857224.96045  -2879929.70561
  21286746.539     2317153.280 6   1805574.72022
  22788136.914    -8923777.692 6  -6897801.62821
 91  4 30 20 53 45.0000000  0  6G18G 2G11G16G19G 6
  23099028.891    12106062.192 6   9433269.31021
  21253983.9304  -12316393.85447  -9597162.83663
  23221274.9064   -3520883.05646  -2743531.12861
  23577649.3444   -3848722.43845  -2873304.39761
  21289460.367     2331440.049 6   1816707.24722
  22782080.1724   -8955612.57746  -6922607.96961
 91  4 30 20 54  0.0000000  0  6G18G 2G11G16G19G 6
  23108200.3834   12154234.43546   9470805.97461
  21249286.9774  -12341087.35147  -9616404.48263
  23223742.3204   -3507901.65946  -2733415.75161
  23579289.906    -3840108.240 5  -2866592.08521
  21292186.828     2345772.711 6   1827875.54122
  22776020.9924   -8987443.69246  -6947411.36861
 91  4 30 20 54 15.0000000  0  6G18G 2G11G16G19G 6
  23117373.3984   12202451.68446   9508377.70261
  21244599.1094  -12365706.54547  -9635588.22763
  23226239.8444   -3494780.87946  -2723191.76561
  23580950.7664   -3831381.32645  -2859791.94761
  21294924.422     2360152.266 6   1839080.37422
  22769967.2814   -9019269.80346  -6972210.85961
 91  4 30 20 54 30.0000000  0  6G18G 2G11G16G19G 6
  23126559.9924   12250717.16346   9545987.01461
  21239928.6094  -12390248.10947  -9654711.48563
  23228764.3364   -3481517.35746  -2712856.56161
  23582633.6644   -3822538.50545  -2852901.47061
  21297674.852     2374582.242 6   1850324.49422
  22763915.0784   -9051087.51346  -6997003.82061
 91  4 30 20 54 45.0000000  0  6G18G 2G11G16G19G 6
  23135750.898    12299025.981 6   9583630.11321
  21235273.563   -12414716.229 7  -9673777.50823
  23231316.1724   -3468115.40246  -2702413.48161
  23584332.406    -3813583.878 5  -2845923.87821
  21300429.070     2389058.676 6   1861604.81022
  22757856.2734   -9082900.93146  -7021793.43261
 91  4 30 20 55  0.0000000  0  6G18G 2G11G16G19G 6
  23144951.484    12347380.367 6   9621308.70721
  21230633.336   -12439108.762 7  -9692784.64023
  23233892.6644   -3454573.09046  -2691861.03361
  23586062.8834   -3804515.67545  -2838857.78061
  21303193.820     2403583.634 6   1872922.94322
  22751802.3984   -9114707.92946  -7046578.04561
 91  4 30 20 55 15.0000000  0  6G18G 2G11G16G19G 6
  23154162.5704   12395778.05946   9659021.04061
  21226003.3754  -12463428.06547  -9711734.70763
  23236496.1174   -3440892.84246  -2681201.10261
  23587806.9924   -3795336.56245  -2831705.25561
  21305966.602     2418154.747 6   1884277.04522
  22745753.219    -9146510.830 6  -7071359.45321
 91  4 30 20 55 30.0000000  0  6G18G 2G11G16G19G 6
  23163380.9534   12444220.91046   9696768.56461
  21221393.0164  -12487671.45147  -9730625.61763
  23239126.1094   -3427072.04146  -2670431.65461
  23589578.063    -3786044.070 5  -2824464.41221
  21308747.891     2432774.792 6   1895669.27422
  22739701.523    -9178306.943 6  -7096135.57021
 91  4 30 20 55 45.0000000  0  6G18G 2G11G16G19G 6
  23172612.2734   12492706.02146   9734549.00761
  21216790.9224  -12511841.53647  -9749459.40863
  23241783.641    -3413113.592 6  -2659554.95121
  23591359.266    -3776641.402 5  -2817137.70721
  21311537.102     2447441.191 7   1907097.62322
  22733644.9454   -9210098.92545  -7120908.48661
 91  4 30 20 56  0.0000000  0  6G18G 2G11G16G19G 6
  23181841.352    12541235.518 6   9772364.04321
  21212206.766   -12535936.204 7  -9768234.43323
  23244467.5164   -3399015.42746  -2648569.37861
  23593174.8834   -3767126.10345  -2809723.21061
  21314335.078     2462156.181 7   1918563.83222
  22727599.688    -9241884.482 6  -7145676.38821
 91  4 30 20 56 15.0000000  0  6G18G 2G11G16G19G 6
  23191088.4454   12589814.09746   9810217.32861
  21207636.3134  -12559950.46247  -9786946.80663
  23247174.5004   -3384772.68746  -2637471.14361
  23595005.9454   -3757493.41145  -2802217.27361
  21317147.875     2476924.790 6   1930071.82422
  22721560.0944   -9273658.63646  -7170435.39561
 91  4 30 20 56 30.0000000  0  6G18G 2G11G16G19G 6
  23200341.016    12638434.263 6   9848103.00121
  21203081.875   -12583891.577 7  -9805602.17923
  23249912.9454   -3370392.80746  -2626266.04561
  23596864.117    -3747751.146 5  -2794625.93621
  21319969.781     2491739.616 6   1941615.83022
  22715510.2194   -9305428.75046  -7195191.26961
 91  4 30 20 56 45.0000000  0  6G18G 2G11G16G19G 6
  23209600.0554   12687100.09946   9886024.28261
  21198541.742   -12607755.093 7  -9824197.08823
  23252675.5634   -3355871.38246  -2614950.64361
  23598739.445    -3737894.581 5  -2786945.55821
  21322796.023     2506605.373 6   1953199.51922
  22709465.273    -9337190.302 6  -7219940.45621
 91  4 30 20 57  0.0000000  0  6G18G 2G11G16G19G 6
  23218872.297    12735809.894 6   9923979.79421
  21194015.0554  -12631542.48047  -9842732.67363
  23255466.438    -3341210.077 6  -2603526.23621
  23600641.4844   -3727925.70945  -2779177.66061
  21325631.633     2521520.529 7   1964821.70322
  22703423.1254   -9368944.64946  -7244684.03161
 91  4 30 20 57 15.0000000  0  6G18G 2G11G16G19G 6
  23228146.4064   12784562.32246   9961968.54961
  21189498.523   -12655254.966 7  -9861209.89423
  23258282.4384   -3326410.06846  -2591993.77161
  23602552.219    -3717845.772 5  -2771323.20421
  21328480.414     2536484.057 6   1976481.57822
  22697383.7114   -9400692.91346  -7269422.87161
 91  4 30 20 57 30.0000000  0  6G18G 2G11G16G19G 6
  23237432.047    12833355.484 5   9999989.02421
  21185002.1804  -12678894.05547  -9879629.92663
  23261124.1564   -3311473.23946
  23604489.609    -3707656.627 5  -2763383.66021
  21331336.805     2551494.464 6
  22691342.4614   -9432436.89346  -7294158.37261
 91  4 30 20 57 45.0000000  0  6G18G 2G11G16G19G 6
  23246727.898    12882191.337 5  10038042.77021
  21180517.6414  -12702457.66947  -9897991.14663
  23263993.8594   -3296397.66646
  23606452.6174   -3697356.76945  -2755357.86361
  21334205.289     2566553.836 6
  22685300.547    -9464174.362 6  -7318888.79421
 91  4 30 20 58  0.0000000  0  6G18G 2G11G16G19G 6
  23256028.633    12931068.724 6  10076128.88021
  21176047.8984  -12725946.22147  -9916293.87463
  23266890.172    -3281183.831 6  -2556752.58721
  23608433.719    -3686946.625 5  -2747246.10521
  21337076.898     2581661.692 6   2011684.89522
  22679262.500    -9495905.704 6  -7343614.44821
 91  4 30 20 58 15.0000000  0  6G18G 2G11G16G19G 6
  23265336.3674   12979989.12245  10114248.52361
  21171592.6254  -12749358.57447  -9934537.22963
  23269810.4694   -3265830.42246  -2544788.88261
  23610435.742    -3676424.875 5  -2739047.39721
  21339962.141     2596819.635 6   2023496.26922
  22673227.1094   -9527629.47646  -7368334.20161
 91  4 30 20 58 30.0000000  0  6G18G 2G11G16G19G 6
  23274654.703    13028947.327 5  10152397.60721
  21167152.4144  -12772699.45147  -9952724.88263
  23272759.6564   -3250342.49346  -2532720.37861
  23612459.930    -3665796.498 5  -2730765.58721
  21342858.250     2612022.932 6   2035342.97322
  22667189.500    -9559350.505 6  -7393051.81421
 91  4 30 20 58 45.0000000  0  6G18G 2G11G16G19G 6
  23283977.3134   13077951.51445  10190582.51861
  21162725.4924  -12795960.41147  -9970850.26863
  23275733.0234   -3234711.90246  -2520540.70761
  23614508.945    -3655053.597 5  -2722394.56021
  21345762.031     2627279.969 6   2047231.56022
  22661157.5004   -9591060.40846  -7417760.76561
 91  4 30 20 59  0.0000000  0  6G18G 2G11G16G19G 6
  23293309.477    13126994.509 5  10228797.67321
  21158313.922   -12819148.355 7  -9988918.75823
  23278730.8674   -3218945.74846  -2508255.40361
  23616566.4304   -3644203.06945  -2713939.62161
  21348670.719     2642583.942 6   2059156.71822
  22655124.047    -9622766.085 6  -7442466.41621
 91  4 30 20 59 15.0000000  0  6G18G 2G11G16G19G 6
  23302652.320    13176076.519 6  10267043.22521
  21153914.7344  -12842262.96747 -10006930.10663
  23281761.0704   -3203043.55746  -2495864.09661
  23618654.4144   -3633244.71045  -2705400.70961
  21351592.992     2657935.208 6   2071118.72822
  22649094.0864   -9654466.93746  -7467168.30661
 91  4 30 20 59 30.0000000  0  6G18G 2G11G16G19G 6
  23311998.633    13225202.835 5  10305323.30521
  21149531.3444  -12865298.57947 -10024879.89463
  23284807.7974   -3186999.93946  -2483362.58661
  23620759.6644   -3622173.19045  -2696773.60161
  21354524.977     2673339.674 6   2083122.19022
  22643060.3594   -9686157.42646  -7491862.12761
 91  4 30 20 59 45.0000000  0  6G18G 2G11G16G19G 6
  23321355.9924   13274370.31446  10343635.45961
  21145160.992   -12888258.369 7 -10042770.59723
  23287890.633    -3170818.215 6  -2470753.46621
  23622891.7344   -3610991.52345  -2688060.65461
  21357465.188     2688794.141 6   2095164.61122
  22637027.7974   -9717840.61746  -7516550.26161
 91  4 30 21  0  0.0000000  0  6G18G 2G11G16G19G 6
  23330716.9064   13323575.28846  10381976.82661
  21140806.1564  -12911145.22547 -10060604.47263
  23290995.828    -3154501.536 6  -2458039.18021
  23625037.6334   -3599703.41145  -2679264.77861
  21360415.781     2704295.463 6   2107243.54422
  22631003.6414   -9749519.46746  -7541235.00661
 91  4 30 21  0 15.0000000  0  6G18G 2G11G16G19G 6
  23340089.273    13372823.108 6  10420351.58021
  21136466.8834  -12933953.74147 -10078377.30063
  23294126.102    -3138044.539 6  -2445215.56021
  23627207.2034   -3588303.51845  -2670381.79261
  21363375.438     2719849.363 6   2119363.45022
  22624979.063    -9781188.505 6  -7565912.10221
 91  4 30 21  0 30.0000000  0  6G18G 2G11G16G19G 6
  23349473.9064   13422113.22546  10458759.29661
  21132140.2504  -12956684.31247 -10096089.39463
  23297285.508    -3121447.727 6  -2432282.99421
  23629398.633    -3576792.508 5  -2661412.23221
  21366344.453     2735455.480 6   2131524.03622
  22618949.922    -9812848.092 6  -7590581.83521
 91  4 30 21  0 45.0000000  0  6G18G 2G11G16G19G 6
  23358858.9144   13471443.51146  10497198.32061
  21127830.3204  -12979339.01047 -10113742.36663
  23300465.945    -3104713.167 6  -2419243.09721
  23631607.711    -3565172.479 5  -2652357.71521
  21369326.375     2751111.935 6   2143723.85022
  22612930.7194   -9844500.07046  -7615245.64461
 91  4 30 21  1  0.0000000  0  6G18G 2G11G16G19G 6
  23368255.758    13520815.868 6  10535670.12221
  21123533.5234  -13001915.40247 -10131334.32563
  23303679.4454   -3087838.76246  -2406094.21661
  23633840.1484   -3553441.36545  -2643216.64461
  21372311.859     2766821.114 6   2155964.74322
  22606906.797    -9876142.162 6  -7639901.74421
 91  4 30 21  1 15.0000000  0  6G18G 2G11G16G19G 6
  23377661.9774   13570223.62046  10574169.48561
  21119253.4384  -13024420.03647 -10148870.36463
  23306916.4224   -3070831.22746  -2392841.59761
  23636091.4694   -3541606.05345  -2633994.34461
  21375310.719     2782576.563 6   2168241.69422
  22600888.063    -9907780.899 6  -7664555.23621
 91  4 30 21  1 30.0000000  0  6G18G 2G11G16G19G 6
  23387067.8594   13619668.71546  10612697.96161
  21114982.8914  -13046850.60947 -10166348.69563
  23310180.977    -3053688.427 6  -2379483.59821
  23638361.766    -3529664.251 5  -2624689.10821
  21378316.570     2798380.670 6   2180556.55722
  22594868.0704   -9939413.86046  -7689204.23761
 91  4 30 21  1 45.0000000  0  6G18G 2G11G16G19G 6
  23396485.1024   13669153.09646  10651257.03161
  21110728.5634  -13069204.94247 -10183767.61763
  23313468.7504   -3036408.26946  -2366018.55161
  23640654.2274   -3517614.11345  -2615299.45761
  21381335.164     2814235.779 6   2192911.17222
  22588849.039    -9971038.682 6  -7713846.88121
 91  4 30 21  2  0.0000000  0  6G18G 2G11G16G19G 6
  23405908.0004   13718677.84946  10689847.57261
  21106488.7584  -13091481.91947 -10201126.26763
  23316783.5554   -3018989.63746  -2352445.59461
  23642972.1564   -3505454.50445  -2605824.47461
  21384359.703     2830142.999 6   2205306.38922
  22582833.961   -10002654.272 6  -7738482.33821
 91  4 30 21  2 15.0000000  0  6G18G 2G11G16G19G 6
  23415338.6644   13768240.92145  10728467.96761
  21102267.469   -13113683.057 7 -10218425.80923
  23320124.297    -3001434.441 6  -2338766.24221
  23645303.289    -3493187.297 5  -2596265.65921
  21387397.922     2846100.737 6   2217740.97222
  22576813.7424  -10034262.23246  -7763111.84961
 91  4 30 21  2 30.0000000  0  6G18G 2G11G16G19G 6
  23424777.977    13817842.237 5  10767118.17621
  21098054.8674  -13135808.29947 -10235666.22363
  23323488.8444   -2983742.77046  -2324980.52961
  23647660.8594   -3480812.61545  -2586623.11861
  21390445.258     2862109.151 6   2230215.03622
  22570804.7894  -10065862.44746  -7787735.32561
 91  4 30 21  2 45.0000000  0  6G18G 2G11G16G19G 6
  23434220.531    13867480.297 5  10805796.99721
  21093858.8204  -13157858.97647 -10252848.53263
  23326883.6954   -2965916.01846  -2311089.56961
  23650034.8834   -3468332.11945  -2576898.10361
  21393501.477     2878167.073 6   2242727.68222
  22564795.500   -10097456.148 6  -7812353.72221
 91  4 30 21  3  0.0000000  0  6G18G 2G11G16G19G 6
  23443675.156    13917153.644 5  10844503.32621
  21089675.0944  -13179835.72547 -10269973.23163
  23330300.3054   -2947955.14046  -2297094.09061
  23652431.141    -3455746.704 5  -2567091.31321
  21396569.961     2894273.706 6   2255278.28022
  22558783.3674  -10129044.03646  -7836967.60361
 91  4 30 21  3 15.0000000  0  6G18G 2G11G16G19G 6
  23453132.508    13966866.571 5  10883240.47721
  21085510.4454  -13201734.59747 -10287037.25163
  23333742.0784   -2929856.04846  -2282990.91361
  23654846.9144   -3443052.59345  -2557199.86661
  21399641.438     2910433.396 6   2267870.22022
  22552770.8444  -10160621.90546  -7861573.67261
 91  4 30 21  3 30.0000000  0  6G18G 2G11G16G19G 6
  23462603.6334   14016611.89645  10922002.87561
  21081354.7344  -13223562.50047 -10304045.97263
  23337213.469    -2911625.881 6  -2268785.61421
  23657280.969    -3430257.091 5  -2547229.40121
  21402723.148     2926639.179 6   2280498.08122
  22546762.9064  -10192196.67646  -7886177.32661
 91  4 30 21  3 45.0000000  0  6G18G 2G11G16G19G 6
  23472075.375    14066391.830 5  10960792.24921
  21077216.5784  -13245316.90547 -10320997.41863
  23340707.8834   -2893262.33146  -2254476.36261
  23659736.5554   -3417357.54845  -2537177.87561
  21405818.570     2942893.699 6   2293163.92322
  22540758.859   -10223765.676 6  -7910776.49621
 91  4 30 21  4  0.0000000  0  6G18G 2G11G16G19G 6
  23481552.6414   14116208.27745  10999610.08361
  21073090.9924  -13266995.69747 -10337889.95163
  23344227.320    -2874763.361 6  -2240061.58821
  23662210.375    -3404352.024 5  -2527043.75121
  21408922.656     2959199.345 7   2305869.60422
  22534749.8914  -10255326.73846  -7935369.45961
 91  4 30 21  4 15.0000000  0  6G18G 2G11G16G19G 6
  23491045.7664   14166061.11345  11038456.24761
  21068978.5004  -13288598.71147 -10354723.43063
  23347771.2974   -2856129.03646  -2225541.34761
  23664707.367    -3391240.765 5  -2516827.26721
  21412036.328     2975556.211 7   2318615.18222
  22528747.4534  -10286879.75846  -7959956.17061
 91  4 30 21  4 30.0000000  0  6G18G 2G11G16G19G 6
  23500537.0554   14215952.37245  11077332.36861
  21064884.4924  -13310123.46447 -10371495.93063
  23351346.5704   -2837357.07946  -2210913.87861
  23667224.2814   -3378021.60745  -2506526.67961
  21415157.055     2991966.742 7   2331402.58622
  22522741.8754  -10318422.15346  -7984534.60761
 91  4 30 21  4 45.0000000  0  6G18G 2G11G16G19G 6
  23510038.461    14265878.599 5  11116235.72521
  21060799.4694  -13331573.53847 -10388210.23963
  23354945.0314   -2818451.20746  -2196182.03461
  23669754.2504   -3364698.37645  -2496144.99361
  21418289.719     3008427.456 7   2344229.09422
  22516744.9304  -10349957.43446  -8009107.49161
 91  4 30 21  5  0.0000000  0  6G18G 2G11G16G19G 6
  23519542.961    14315840.506 5  11155166.89021
  21056733.5084  -13352947.71447 -10404865.40863
  23358567.2664   -2799410.34246  -2181345.02261
  23672308.9614   -3351269.87145  -2485681.28061
  21421433.922     3024939.706 6   2357095.76022
  22510741.2194  -10381484.30846  -8033673.83261
 91  4 30 21  5 15.0000000  0  6G18G 2G11G16G19G 6
  23529057.6414   14365834.61945  11194123.13961
  21052682.0234  -13374249.26947 -10421463.98763
  23362211.680    -2780237.872 6  -2166405.44921
  23674886.2194   -3337739.87545  -2475138.52261
  21424582.258     3041500.441 7   2370000.20722
  22504740.9454  -10413005.93046  -8058236.07761
 91  4 30 21  5 30.0000000  0  6G18G 2G11G16G19G 6
  23538583.6174   14415862.99845  11233106.09061
  21048640.5474  -13395476.06647 -10438004.31663
  23365888.367    -2760931.794 6  -2151361.76321
  23677487.5864   -3324106.31745  -2464515.00161
  21427742.4534    3058111.69847   2382944.01762
  22498747.9144  -10444520.09146  -8082792.50761
 91  4 30 21  5 45.0000000  0  6G18G 2G11G16G19G 6
  23548104.1094   14465925.08045  11272115.34061
  21044613.8754  -13416628.21247 -10454486.47663
  23369586.117    -2741492.355 6  -2136214.16821
  23680095.188    -3310369.252 5  -2453810.87121
  21430915.4844    3074773.57746   2395927.27062
  22492753.539   -10476026.941 6  -8107343.24521
 91  4 30 21  6  0.0000000  0  6G18G 2G11G16G19G 6
  23557637.5944   14516018.54345  11311148.99961
  21040603.3594  -13437707.61447 -10470911.95263
  23373312.094    -2721921.833 6  -2120964.42421
  23682731.2894   -3296531.14945  -2443027.98361
  21434093.8754    3091484.03546   2408948.37462
  22486756.9614  -10507528.33246  -8131889.72661
 91  4 30 21  6 15.0000000  0  6G18G 2G11G16G19G 6
  23567174.2424   14566143.16345  11350206.93761
  21036608.7894  -13458714.63147 -10487281.02463
  23377064.9774   -2702220.70546  -2105612.92961
  23685385.289    -3282592.572 5  -2432166.82721
  21437282.3674    3108242.90246   2422007.20462
  22480762.8134  -10539024.54946  -8156432.16961
 91  4 30 21  6 30.0000000  0  6G18G 2G11G16G19G 6
  23576720.547    14616299.725 5  11389289.79621
  21032623.8594  -13479648.42947 -10503593.04163
  23380837.195    -2682388.137 6  -2090158.99821
  23688055.4534   -3268552.69245  -2421226.72061
  21440479.500     3125051.200 7   2435104.55622
  22474770.609   -10570514.580 6  -8180969.80621
 91  4 30 21  6 45.0000000  0  6G18G 2G11G16G19G 6
  23586273.1094   14666489.54445  11428398.53161
  21028654.8364  -13500507.05747 -10519846.48663
  23384636.5394   -2662422.56946  -2074601.43761
  23690741.766    -3254409.891 5  -2410206.43521
  21443691.430     3141910.672 6   2448241.78122
  22468780.375   -10601996.565 6  -8205501.17321
 91  4 30 21  7  0.0000000  0  6G18G 2G11G16G19G 6
  23595819.805    14716710.471 5  11467531.52521
  21024698.2034  -13521292.37547 -10536042.80963
  23388460.891    -2642325.941 6  -2058941.74421
  23693457.547    -3240166.154 5  -2399107.48121
  21446910.2274    3158819.77146   2461417.66962
  22462789.2274  -10633472.16046  -8230027.55761
 91  4 30 21  7 15.0000000  0  6G18G 2G11G16G19G 6
  23605391.180    14766966.322 5  11506691.71721
  21020756.4694  -13542000.55447 -10552179.02163
  23392313.6884   -2622094.45646  -2043176.95761
  23696185.563    -3225818.354 5  -2387927.44321
  21450136.414     3175782.456 6   2474635.31622
  22456803.672   -10664937.435 6  -8254545.89821
 91  4 30 21  7 30.0000000  0  6G18G 2G11G16G19G 6
  23614960.4304   14817252.05545  11545875.21161
  21016832.7424  -13562636.21547 -10568258.72963
  23396182.055    -2601733.045 6  -2027310.95021
  23698934.930    -3211371.333 5  -2376670.09321
  21453375.625     3192793.989 6   2487891.03122
  22450817.367   -10696397.061 6  -8279059.84221
 91  4 30 21  7 45.0000000  0  6G18G 2G11G16G19G 6
  23624530.7974   14867570.70245  11585084.33661
  21012920.4614  -13583195.94047 -10584279.26063
  23400087.1174   -2581238.56246  -2011341.23661
  23701707.125    -3196821.700 5  -2365332.77221
  21456621.883     3209857.985 6   2501187.62522
  22444830.180   -10727847.637 6  -8303566.73521
 91  4 30 21  8  0.0000000  0  6G18G 2G11G16G19G 6
  23634115.680    14917915.045 5  11624313.49721
  21009019.6644  -13603686.80747 -10600246.14063
  23404009.234    -2560618.267 6  -1995273.49921
  23704489.609    -3182176.931 5  -2353921.30521
  21459879.938     3226967.251 6   2514519.49122
  22438847.523   -10759296.167 6  -8328072.02121
 91  4 30 21  8 15.0000000  0  6G18G 2G11G16G19G 6
  23643702.5944   14968287.61045  11663564.63961
  21005135.0234  -13624106.16647 -10616157.29663
  23407958.336    -2539869.537 6  -1979105.66821
  23707296.4774   -3167434.40145  -2342433.70661
  21463142.2424    3244124.64346   2527888.86162
  22432864.148   -10790739.814 6  -8352573.51421
 91  4 30 21  8 30.0000000  0  6G18G 2G11G16G19G 6
  23653294.719    15018692.576 5  11702841.03421
  21001263.9844  -13644449.75447 -10632009.40863
  23411930.4454   -2518988.17346  -1962834.48461
  23710121.1884   -3152589.76645  -2330866.52461
  21466417.3914    3261334.55946   2541299.15862
  22426882.023   -10822174.129 6  -8377067.73221
 91  4 30 21  8 44.9990000  0  6G18G 2G11G16G19G 6
  23662898.394    15069124.689 5  11742138.58021
  20997406.0344  -13664717.71047 -10647802.59363
  23415927.956    -2497977.322 6  -1946462.41621
  23712963.2144   -3137645.91645  -2319222.02761
  21469700.7224    3278594.60146   2554748.51762
  22420903.526   -10853598.442 6  -8401554.15421
 91  4 30 21  8 59.9990000  0  6G18G 2G11G16G19G 6
  23672496.5114   15119591.20445  11781462.93561
  20993561.0974  -13684912.08847 -10663538.44363
  23419952.417    -2476833.730 6  -1929986.90621
  23715829.940    -3122600.613 5  -2307498.50421
  21473000.7374    3295907.75646   2568239.25762
  22414924.956   -10885016.236 6  -8426035.49621
 91  4 30 21  9 14.9990000  0  6G18G 2G11G16G19G 6
  23682104.776    15170089.864 5  11820812.31921
  20989735.4874  -13705030.09547 -10679214.78363
  23423999.105    -2455557.487 6  -1913408.04521
  23718707.128    -3107453.733 5  -2295695.80721
  21476300.401     3313274.454 6   2581771.72322
  22408946.792   -10916423.875 6  -8450508.92821
 91  4 30 21  9 29.9990000  0  6G18G 2G11G16G19G 6
  23691717.105    15220618.909 5  11860185.39421
  20985922.4874  -13725073.25347 -10694832.80563
  23428075.808    -2434150.403 6  -1896727.22021
  23721611.480    -3092206.850 5  -2283815.17021
  21479615.886     3330693.086 6   2595344.66322
  22402971.511   -10947822.853 6  -8474975.60721
 91  4 30 21  9 44.9990000  0  6G18G 2G11G16G19G 6
  23701347.487    15271179.444 5  11899583.00421
  20982120.995   -13745040.066 7 -10710391.32523
  23432170.0344   -2412611.15446  -1879943.41261
  23724532.8784   -3076858.68945  -2271855.65261
  21482940.808     3348165.272 6   2608959.32722
  22396998.2224  -10979211.67646  -8499434.37761
 91  4 30 21  9 59.9990000  0  6G18G 2G11G16G19G 6
  23710974.480    15321772.402 5  11939005.88021
  20978336.4094  -13764929.61547 -10725889.64463
  23436294.4644   -2390938.88246  -1863055.94661
  23727467.519    -3061408.646 5  -2259816.71821
  21486275.894     3365692.064 6   2622616.54322
  22391029.9174  -11010589.20346  -8523884.34161
 91  4 30 21 10 14.9990000  0  6G18G 2G11G16G19G 6
  23720600.0194   15372392.21945  11978449.69361
  20974564.9954  -13784747.05947 -10741331.77863
  23440442.9564   -2369139.05346  -1846069.07961
  23730432.8704   -3045862.13145  -2247702.60961
  21489620.7924    3383268.27646   2636312.26362
  22385056.9644  -11041960.61846  -8548329.53361
 91  4 30 21 10 29.9990000  0  6G18G 2G11G16G19G 6
  23730242.065    15423038.952 5  12017914.47021
  20970808.8474  -13804492.13147 -10756717.51963
  23444618.183    -2347211.572 6  -1828982.74821
  23733404.5034   -3030219.43345  -2235513.56061
  21492973.159     3400894.236 6   2650046.75622
  22379088.901   -11073325.572 6  -8572769.70921
 91  4 30 21 10 44.9990000  0  6G18G 2G11G16G19G 6
  23739881.4874   15473709.83245  12057398.06961
  20967063.6284  -13824167.39947 -10772048.86663
  23448811.737    -2325159.138 6  -1811799.05021
  23736398.1984   -3014482.92945  -2223251.43061
  21496337.159     3418567.409 6   2663818.03722
  22373120.0424  -11104686.47546  -8597206.71161
 91  4 30 21 10 59.9990000  0  6G18G 2G11G16G19G 6
  23749528.6054   15524408.38445  12096903.20761
  20963332.6904  -13843768.87847 -10787322.71963
  23453035.042    -2302978.016 6  -1794515.07621
  23739415.284    -2998648.851 5  -2210913.27621
  21499714.831     3436292.011 6   2677629.39422
  22367156.8394  -11136039.31646  -8621637.44061
 91  4 30 21 11 14.9990000  0  6G18G 2G11G16G19G 6
  23759187.0264   15575136.36445  12136431.28261
  20959616.4174  -13863294.75547 -10802537.65663
  23457282.464    -2280666.455 6  -1777129.46621
  23742451.4094   -2982715.93145  -2198498.08661
  21503093.526     3454070.003 6   2691482.34922
  22361189.4174  -11167382.13446  -8646060.35461
 91  4 30 21 11 29.9990000  0  6G18G 2G11G16G19G 6
  23768844.7694   15625894.18645  12175982.63361
  20955918.5034  -13882744.48947 -10817693.26363
  23461550.8864   -2258224.10746  -1759641.93061
  23745497.1124   -2966683.66545  -2186005.48361
  21506485.5584    3471901.82146   2705377.24562
  22355227.823   -11198714.312 6  -8670474.98321
 91  4 30 21 11 44.9990000  0  6G18G 2G11G16G19G 6
  23778506.2064   15676680.84145  12215556.44061
  20952229.784   -13902118.877 7 -10832790.16223
  23465845.8704   -2235651.99946  -1742053.28861
  23748569.5424   -2950553.28945  -2173436.44961
  21509889.4404    3489786.75346   2719313.52662
  22349267.886   -11230036.634 6  -8694881.93621
 91  4 30 21 11 59.9990000  0  6G18G 2G11G16G19G 6
  23788178.8474   15727494.12645  12255150.99261
  20948556.4874  -13921419.54447 -10847829.61663
  23470165.784    -2212952.051 6  -1724365.02821
  23751654.7844   -2934326.83045  -2160792.52761
  21513302.3234    3507723.04746   2733289.83462
  22343309.808   -11261350.741 6  -8719282.49021
 91  4 30 21 12 14.9990000  0  6G18G 2G11G16G19G 6
  23797849.222    15778333.717 5  12294766.05321
  20944897.3784  -13940646.80847 -10862811.86763
  23474510.4014   -2190124.71746  -1706577.50761
  23754765.3314   -2918004.61845  -2148074.02061
  21516725.8084    3525710.60846   2747306.09262
  22337351.6674  -11292656.80646  -8743676.76461
 91  4 30 21 12 29.9990000  0  6G18G 2G11G16G19G 6
  23807526.761    15829196.848 5  12334399.44321
  20941251.7144  -13959803.09947 -10877738.81963
  23478878.526    -2167172.509 6  -1688692.69221
  23757886.9724   -2901589.23445  -2135282.89661
  21520158.4014    3543747.37546   2761360.68762
  22331394.5264  -11323957.09546  -8768066.54361
 91  4 30 21 12 44.9990000  0  6G18G 2G11G16G19G 6
  23817212.8234   15880089.05545  12374055.49461
  20937622.7534  -13978882.77047 -10892606.06563
  23483271.1364   -2144089.91646  -1670706.27161
  23761028.6674   -2885075.33745  -2122415.00061
  21523600.190     3561839.183 6   2775458.17522
  22325442.347   -11355245.755 6  -8792447.27021
 91  4 30 21 12 59.9990000  0  6G18G 2G11G16G19G 6
  23826904.456    15931004.690 5  12413729.79021
  20934006.7764  -13997891.11647 -10907417.73463
  23487686.8474   -2120882.57846  -1652622.64661
  23764190.620    -2868468.285 5  -2109474.53421
  21527053.0734    3579980.83646   2789594.49562
  22319486.862   -11386528.042 6  -8816823.03121
 91  4 30 21 13 14.9990000  0  6G18G 2G11G16G19G 6
  23836597.4254   15981943.94245  12453422.50261
  20930400.386   -14016827.682 7 -10922173.47523
  23492125.2534   -2097550.27146  -1634441.64261
  23767368.1444   -2851768.23245  -2096461.58561
  21530516.6284    3598172.45446   2803769.75162
  22313535.776   -11417803.628 6  -8841193.56521
 91  4 30 21 13 29.9990000  0  6G18G 2G11G16G19G 6
  23846297.2374   16032907.66045  12493134.26761
  20926809.972   -14035691.643 7 -10936872.63923
  23496592.386    -2074092.127 6  -1616162.59521
  23770560.683    -2834974.155 5  -2083375.37721
  21533986.5424    3616415.25746   2817984.89362
  22307586.948   -11449071.244 6  -8865557.88821
 91  4 30 21 13 44.9990000  0  6G18G 2G11G16G19G 6
  23855998.261    16083899.145 5  12532867.67521
  20923236.323   -14054479.221 7 -10951512.28323
  23501076.550    -2050504.867 6  -1597782.91521
  23773778.0194   -2818082.90045  -2070213.43861
  21537471.2064    3634712.92546   2832242.77762
  22301637.8314  -11480327.31746  -8889913.21161
 91  4 30 21 13 59.9990000  0  6G18G 2G11G16G19G 6
  23865709.792    16134918.699 5  12572622.93521
  20919675.894   -14073190.022 7 -10966092.10323
  23505592.4174   -2026788.05046  -1579302.30361
  23777012.230    -2801094.060 5  -2056975.50221
  21540959.3004    3653066.05246   2846543.88162
  22295694.722   -11511571.136 6  -8914259.00021
 91  4 30 21 14 14.9990000  0  6G18G 2G11G16G19G 6
  23875419.7374   16185962.05545  12612396.78561
  20916128.581   -14091828.071 7 -10980615.23523
  23510131.808    -2002945.776 6  -1560723.91821
  23780262.847    -2784011.681 5  -2043664.64421
  21544466.3394    3671470.83046   2860885.23162
  22289748.550   -11542806.623 6  -8938598.29221
 91  4 30 21 14 29.9990000  0  6G18G 2G11G16G19G 6
  23885134.175    16237027.006 5  12652187.41121
  20912595.972   -14110395.436 7 -10995083.28623
  23514686.972    -1978980.428 6  -1542049.62921
  23783527.2064   -2766838.31045  -2030282.89661
  21547973.5194    3689925.13546   2875265.17362
  22283809.901   -11574035.820 6  -8962932.68021
 91  4 30 21 14 44.9990000  0  6G18G 2G11G16G19G 6
  23894864.5814   16288117.07645  12691997.63361
  20909074.9644  -14128888.22847 -11009493.22863
  23519274.5194   -1954888.38446  -1523276.62061
  23786816.6284   -2749570.61045  -2016827.63061
  21551498.6834    3708432.82646   2889686.71562
  22277864.808   -11605254.710 6  -8987259.04121
 91  4 30 21 14 59.9990000  0  6G18G 2G11G16G19G 6
  23904589.394    16339228.404 5  12731824.43321
  20905570.042   -14147310.021 7 -11023847.84723
  23523883.4644   -1930673.51446  -1504407.90161
  23790117.761    -2732212.154 5  -2003301.67021
  21555028.0584    3726990.41746   2904147.13662
  22271925.253   -11636466.863 6  -9011580.14521
 91  4 30 21 15 14.9990000  0  6G18G 2G11G16G19G 6
  23914319.198    16390360.806 5  12771667.61321
  20902079.667   -14165660.839 7 -11038147.16123
  23528513.2304   -1906335.98846  -1485443.59561
  23793438.8784   -2714763.45045  -1989705.35361
  21558567.9644    3745598.07246   2918646.57062
  22265990.1204  -11667672.13746  -9035895.90761
 91  4 30 21 15 29.9990000  0  6G18G 2G11G16G19G 6
  23924055.089    16441515.531 5  12811528.21021
  20898601.565   -14183939.345 7 -11052390.13023
  23533166.597    -1881874.550 6  -1466382.74221
  23796771.167    -2697223.050 5  -1976037.60521
  21562122.9334    3764257.43146   2933186.29262
  22260050.542   -11698868.961 6  -9060205.06921
 91  4 30 21 15 44.9990000  0  6G18G 2G11G16G19G 6
  23933797.612    16492696.501 5  12851409.27821
  20895137.3864  -14202140.89247 -11066573.12463
  23537848.1674   -1857284.95146  -1447222.02861
  23800132.4404   -2679586.67945  -1962295.06861
  21565683.7144    3782973.03846   2947769.84462
  22254119.753   -11730052.816 6  -9084504.12421
 91  4 30 21 15 59.9990000  0  6G18G 2G11G16G19G 6
  23943539.097    16543899.785 5  12891307.72421
  20891686.6054  -14220269.69947 -11080699.44263
  23542551.144    -1832571.450 6  -1427964.77621
  23803510.3554   -2661858.89245  -1948481.31161
  21569251.5894    3801740.74946   2962394.00062
  22248181.214   -11761227.752 6  -9108796.23021
 91  4 30 21 16 14.9990000  0  6G18G 2G11G16G19G 6
  23953280.9724   16595120.56345  12931219.80161
  20888250.2374  -14238330.19747 -11094772.53063
  23547278.659    -1807738.654 6  -1408614.55921
  23806895.870    -2644044.328 5  -1934599.91821
  21572834.5974    3820556.06346   2977055.24162
  22242254.808   -11792398.075 6  -9133084.74821
 91  4 30 21 16 29.9990000  0  6G18G 2G11G16G19G 6
  23963032.6514   16646361.31845  12971147.43661
  20884828.034   -14256319.546 7 -11108790.17923
  23552023.651    -1782784.090 6  -1389169.46521
  23810302.315    -2626140.545 5  -1920649.00921
  21576423.5894    3839422.08346   2991755.99662
  22236322.1904  -11823560.80346  -9157367.33961
 91  4 30 21 16 44.9990000  0  6G18G 2G11G16G19G 6
  23972788.2924   16697621.18945  13011089.97461
  20881417.878   -14274238.292 7 -11122752.81823
  23556795.7694   -1757708.35046  -1369629.94261
  23813730.2304   -2608148.22845  -1906629.09961
  21580022.2764    3858338.22546   3006495.80762
  22230396.464   -11854716.352 6  -9181644.33621
 91  4 30 21 16 59.9990000  0  6G18G 2G11G16G19G 6
  23982547.3864   16748904.31945  13051050.64461
  20878023.065   -14292082.233 7 -11136657.16323
  23561592.300    -1732507.420 6  -1349992.87121
  23817167.8554   -2590063.51745  -1892537.21561
  21583636.6754    3877308.92246   3021278.12862
  22224466.792   -11885860.511 6  -9205912.46321
 91  4 30 21 17 14.9990000  0  6G18G 2G11G16G19G 6
  23992311.839    16800206.253 5  13091025.92221
  20874640.823   -14309855.870 7 -11150506.72723
  23566413.628    -1707186.005 6  -1330261.92121
  23820625.862    -2571891.083 5  -1878376.96221
  21587252.1514    3896329.89546   3036099.62862
  22218543.6834  -11916997.51346  -9230175.00361
 91  4 30 21 17 29.9990000  0  6G18G 2G11G16G19G 6
  24002079.120    16851526.115 5  13131015.21521
  20871270.378   -14327559.656 7 -11164301.86123
  23571251.355    -1681744.641 6  -1310437.50921
  23824095.5894   -2553631.61045  -1864148.89761
  21590887.823     3915400.705 6   3050959.95322
  22212620.964   -11948127.714 6  -9254432.26021
 91  4 30 21 17 44.9990000  0  6G18G 2G11G16G19G 6
  24011845.573    16902866.564 5  13171020.51021
  20867916.9094  -14345190.76547 -11178040.36163
  23576118.0034   -1656180.72046  -1290517.57761
  23827597.9404   -2535282.28345  -1849850.83661
  21594524.503     3934524.268 6   3065861.38522
  22206698.331   -11979248.257 6  -9278681.98421
 91  4 30 21 17 59.9990000  0  6G18G 2G11G16G19G 6
  24021621.1124   16954223.92045  13211039.00761
  20864574.620   -14362752.399 7 -11191724.73023
  23581003.901    -1630497.708 6  -1270504.86421
  23831100.1984   -2516846.81945  -1835485.62961
  21598169.9874    3953697.42246   3080801.46662
  22200774.323   -12010362.173 6  -9302926.53821
 91  4 30 21 18 14.9990000  0  6G18G 2G11G16G19G 6
  24031396.261    17005599.004 5  13251071.31721
  20861245.042   -14380243.369 7 -11205354.03423
  23585918.769    -1604694.850 6  -1250398.77421
  23834630.730    -2498324.278 5  -1821052.56221
  21601829.3864    3972921.27846   3095781.05262
  22194858.956   -12041468.244 6  -9327164.98521
 91  4 30 21 18 29.9990000  0  6G18G 2G11G16G19G 6
  24041174.550    17056993.772 5  13291118.94721
  20857929.081   -14397661.607 7 -11218926.66123
  23590847.542    -1578770.213 6  -1230197.76621
  23838164.659    -2479712.987 5  -1806550.34821
  21605498.6284    3992198.02246   3110801.85662
  22188939.964   -12072564.298 6  -9351395.63021
 91  4 30 21 18 44.9990000  0  6G18G 2G11G16G19G 6
  24050961.659    17108409.628 5  13331183.02921
  20854630.378   -14415005.687 7 -11232441.50123
  23595807.690    -1552722.493 6  -1209900.86721
  23841724.019    -2461011.482 5  -1791977.85321
  21609175.0894    4011529.27746   3125865.13262
  22183025.042   -12103648.735 6  -9375617.22121
 91  4 30 21 18 59.9990000  0  6G18G 2G11G16G19G 6
  24060752.7454   17159847.60145  13371264.33561
  20851344.2614  -14432274.34447 -11245897.57163
  23600783.815    -1526550.647 6  -1189507.24921
  23845302.690    -2442218.756 5  -1777334.28021
  21612863.2374    4030916.44746   3140971.97862
  22177112.472   -12134720.137 6  -9399828.65421
 91  4 30 21 19 14.9990000  0  6G18G 2G11G16G19G 6
  24070541.0584   17211306.45945  13411361.90961
  20848072.261   -14449468.526 7 -11259295.60923
  23605787.480    -1500255.886 6  -1169017.84621
  23848896.8154   -2423336.43745  -1762620.89061
  21616563.261     4050358.738 6   3156121.77022
  22171199.956   -12165779.353 6  -9424030.59221
 91  4 30 21 19 29.9990000  0  6G18G 2G11G16G19G 6
  24080339.355    17262781.638 5  13451472.20421
  20844813.2924  -14466592.68447 -11272639.08563
  23610815.6594   -1473842.80046  -1148436.25761
  23852506.6754   -2404369.08545  -1747841.22361
  21620275.0114    4069851.70446   3171311.05962
  22165291.237   -12196830.741 6  -9448226.42821
 91  4 30 21 19 44.9990000  0  6G18G 2G11G16G19G 6
  24090134.7844   17314275.74845  13491597.26061
  20841569.0504  -14483644.02947 -11285925.81863
  23615867.284    -1447308.655 6  -1127760.31621
  23856129.8704   -2385313.46645  -1732992.76861
  21623994.8084    4089398.35146   3186542.17762
  22159386.526   -12227871.248 6  -9472413.78721
 91  4 30 21 19 59.9990000  0  6G18G 2G11G16G19G 6
  24099940.7064   17365787.76445  13531736.24961
  20838338.480   -14500623.231 7 -11299156.34123
  23620933.815    -1420654.440 6  -1106990.80021
  23859776.6754   -2366171.02845  -1718076.70361
  21627724.8314    4108998.05846   3201814.64162
  22153480.011   -12258901.560 6  -9496593.20221
 91  4 30 21 20 14.9990000  0  6G18G 2G11G16G19G 6
  24109746.636    17417317.313 5  13571888.94721
  20835121.761   -14517530.293 7 -11312330.64823
  23626033.120    -1393880.429 6  -1086127.95921
  23863439.3234   -2346942.25845  -1703093.34661
  21631463.0344    4128650.90946   3217128.51762
  22147575.394   -12289921.596 6  -9520764.61621
 91  4 30 21 20 29.9990000  0  6G18G 2G11G16G19G 6
  24119553.417    17468866.021 5  13612056.52921
  20831917.1834  -14534363.50747 -11325447.41163
  23631151.081    -1366985.113 6  -1065170.58721
  23867107.0734   -2327625.43945  -1688041.39461
  21635215.1444    4148358.66746   3232485.17562
  22141675.776   -12320929.398 6  -9544926.49021
 91  4 30 21 20 44.9990000  0  6G18G 2G11G16G19G 6
  24129370.6984   17520432.37645  13652237.88861
  20828726.355   -14551124.024 7 -11338507.52823
  23636289.5654   -1339969.85146  -1044119.74561
  23870796.1204   -2308222.00945  -1672921.92161
  21638973.7374    4168120.30546   3247883.81562
  22135779.690   -12351926.121 6  -9569079.73321
 91  4 30 21 20 59.9990000  0  6G18G 2G11G16G19G 6
  24139187.0034   17572017.56945  13692433.88761
  20825552.315   -14567810.617 7 -11351510.04423
  23641454.995    -1312833.592 6  -1022974.62921
  23874505.4094   -2288730.94044  -1657734.17461
  21642744.7694    4187937.18746   3263325.50362
  22129882.378   -12382910.314 6  -9593223.21521
 91  4 30 21 21 14.9990000  0  6G18G 2G11G16G19G 6
  24149005.7764   17623623.58545  13732646.15761
  20822390.6904  -14584420.91847 -11364453.10663
  23646638.815    -1285574.306 6  -1001733.64621
  23878233.050    -2269150.045 4  -1642476.41721
  21646527.6984    4207811.53446   3278811.96862
  22123986.378   -12413879.569 6  -9617355.05921
 91  4 30 21 21 29.9990000  0  6G18G 2G11G16G19G 6
  24158830.237    17675247.241 5  13772872.14621
  20819245.065   -14600958.028 7 -11377339.13923
  23651849.003    -1258195.164 6   -980399.26921
  23881983.8314   -2249482.97145  -1627151.56561
  21650321.1284    4227740.63446   3294341.09762
  22118097.745   -12444836.758 6  -9641477.49021
 91  4 30 21 21 44.9990000  0  6G18G 2G11G16G19G 6
  24168658.4804   17726886.58745  13813110.38561
  20816112.112   -14617423.623 7 -11390169.44923
  23657084.5344   -1230698.18046   -958973.05361
  23885735.1364   -2229731.65045  -1611761.01561
  21654122.2614    4247722.77046   3309911.55262
  22112208.714   -12475783.616 6  -9665591.88021
 91  4 30 21 21 59.9990000  0  6G18G 2G11G16G19G 6
  24178482.409    17778540.959 5  13853360.33321
  20812991.3554  -14633817.87947 -11402944.16863
  23662342.081    -1203083.916 6   -937455.46721
  23889512.8314   -2209896.61545  -1596305.26961
  21657933.800     4267757.751 6   3325523.18022
  22106319.847   -12506720.222 6  -9689698.27821
 91  4 30 21 22 14.9990000  0  6G18G 2G11G16G19G 6
  24188321.292    17830210.317 5  13893621.88921
  20809883.784   -14650140.957 7 -11415663.42323
  23667616.1594   -1175352.45046   -915846.54961
  23893299.980    -2189978.204 5  -1580784.52121
  21661759.487     4287845.717 6   3341176.09622
  22100435.347   -12537646.367 6  -9713796.52621
 91  4 30 21 22 29.9990000  0  6G18G 2G11G16G19G 6
  24198152.120    17881891.580 5  13933892.79121
  20806791.636   -14666395.706 7 -11428329.43823
  23672912.526    -1147506.731 6   -894148.59321
  23897115.167    -2169979.195 5  -1565200.98721
  21665590.081     4307983.933 6   3356868.16922
  22094553.120   -12568564.772 6  -9737888.74121
 91  4 30 21 22 44.9990000  0  6G18G 2G11G16G19G 6
  24207989.6754   17933585.64945  13974173.62461
  20803711.198   -14682580.992 7 -11440941.32223
  23678236.769    -1119545.990 6   -872361.02421
  23900928.0264   -2149898.79844
  21669431.3394    4328173.49346
  22088673.722   -12599474.262 6  -9761974.01121
 91  4 30 21 22 59.9990000  0  6G18G 2G11G16G19G 6
  24217827.362    17985293.944 5  14014465.57121
  20800644.628   -14698694.952 7 -11453497.62923
  23683576.1904   -1091468.57746   -850482.52661
  23904769.8004   -2129735.96645
  21673281.3624    4348416.44946
  22082791.612   -12630372.778 6  -9786050.72921
 91  4 30 21 23 14.9990000  0  6G18G 2G11G16G19G 6
  24227669.519    18037011.836 4  14054765.00821
  20797592.331   -14714742.254 7 -11466001.99923
  23688939.183    -1063279.265 6   -828516.84921
  23908620.5424   -2109494.86345
  21677145.3474    4368708.15746
  22076912.456   -12661264.879 6  -9810122.44521
 91  4 30 21 23 29.9990000  0  6G18G 2G11G16G19G 6
  24237515.589    18088741.411 4  14095073.50521
  20794550.167   -14730720.497 7 -11478452.55323
  23694331.878    -1034976.005 6   -806462.37921
  23912486.862    -2089173.695 5
  21681017.8624    4389051.15146
  22071031.503   -12692148.010 6  -9834187.17321
 91  4 30 21 23 44.9990000  0  6G18G 2G11G16G19G 6
  24247366.8084   18140482.39845  14135390.90161
  20791523.730   -14746629.839 7 -11490849.42223
  23699742.003    -1006559.262 6   -784319.47621
  23916364.980    -2068772.806 5
  21684897.0894    4409445.41246
  22065160.620   -12723022.263 6  -9858244.98621
 91  4 30 21 23 59.9990000  0  6G18G 2G11G16G19G 6
  24257212.4724   18192234.49944  14175716.96561
  20788509.222   -14762470.300 7 -11503192.61623
  23705164.8394    -978029.31946   -762088.36861
  23920261.4644   -2048292.71845
  21688787.4484    4429890.86146
  22059287.823   -12753887.552 6  -9882295.81821
 91  4 30 21 24 14.9990000  0  6G18G 2G11G16G19G 6
  24267059.120    18243997.870 4  14216051.80121
  20785508.495   -14778241.318 7 -11515481.69723
  23710616.472     -949385.809 6   -739768.75821
  23924176.355    -2027733.018 5
  21692691.5114    4450388.30946
  22053415.597   -12784743.048 6  -9906339.01621
 91  4 30 21 24 29.9990000  0  6G18G 2G11G16G19G 6
  24276914.6674   18295774.33644  14256396.82061
  20782520.714   -14793940.777 7 -11527715.02223
  23716089.558     -920626.786 6   -717359.14221
  23928110.347    -2007091.711 5  -1438276.51221
  21696597.1284    4470939.94746   3483846.60062
  22047548.948   -12815586.722 6  -9930372.99721
 91  4 30 21 24 44.9990000  0  6G18G 2G11G16G19G 6
  24286770.925    18347562.706 4  14296751.11421
  20779546.456   -14809570.041 7 -11539893.64823
  23721583.4564    -891753.72046   -694860.65661
  23932055.9404   -1986370.45645  -1422130.21261
  21700519.9404    4491544.47246   3499902.04062
  22041675.956   -12846419.444 6  -9954398.45121
 91  4 30 21 24 59.9990000  0  6G18G 2G11G16G19G 6
  24296630.7454   18399359.14144  14337111.72061
  20776584.730   -14825132.412 7 -11552020.14923
  23727099.1674    -862770.25046   -672276.17061
  23936008.644    -1965573.206 5  -1405924.65921
  21704448.9094    4512198.49246   3515996.05062
  22035812.901   -12877244.804 6  -9978418.16321
 91  4 30 21 25 14.9990000  0  5G 2G11G16G19G 6
  20773638.831   -14840625.561 7 -11564092.71423
  23732635.1984    -833674.21946   -649603.94061
  23939977.1984   -1944697.38845  -1389657.89661
  21708389.4404    4532904.64646   3532130.67462
  22029949.261   -12908060.019 6 -10002429.97521
 91  4 30 21 25 29.9990000  0  5G 2G11G16G19G 6
  20770704.831   -14856043.920 7 -11576107.00223
  23738196.097     -804460.282 6   -626839.85621
  23943969.034    -1923737.780 5  -1373325.80121
  21712340.5344    4553668.56946   3548310.32862
  22024087.644   -12938859.430 6 -10026429.46821
 91  4 30 21 25 44.9990000  0  5G 2G11G16G19G 6
  20767782.308   -14871400.051 7 -11588072.79723
  23743772.683     -775141.365 6   -603993.97121
  23947972.386    -1902707.526 5  -1356938.71821
  21716300.2064    4574477.63846   3564525.15062
  22018228.183   -12969655.599 6 -10050426.43821
 91  4 30 21 25 59.9990000  0  5G 2G11G16G19G 6
  20764871.058   -14886687.749 7 -11599985.27023
  23749374.526     -745711.431 6   -581061.58521
  23951991.3864   -1881600.60045  -1340491.86961
  21720270.9484    4595338.37646   3580780.23962
  22012368.0814  -13000442.07346 -10074415.85961
 91  4 30 21 26 14.9990000  0  5G 2G11G16G19G 6
  20761976.472   -14901907.603 7 -11611844.87723
  23754997.6514    -716171.05046   -558043.10661
  23956018.612    -1860417.643 5  -1323985.75721
  21724251.4644    4616250.26046   3597075.18762
  22006510.714   -13031219.195 6 -10098397.98621
 91  4 30 21 26 29.9990000  0  5G 2G11G16G19G 6
  20759091.659   -14917064.033 7 -11623655.06523
  23760635.097     -686525.021 6   -534942.32221
  23960066.003    -1839163.398 5  -1307424.15021
  21728239.7614    4637208.95846   3613406.60562
  22000654.792   -13061991.227 6 -10122376.14221
 91  4 30 21 26 44.9990000  0  5G 2G11G16G19G 6
  20756218.112   -14932154.628 7 -11635413.95423
  23766298.495     -656771.260 6   -511757.59121
  23964121.269    -1817835.990 5  -1290805.48321
  21732234.7064    4658216.89146   3629776.39462
  21994801.5654  -13092755.73146 -10146348.44461
 91  4 30 21 26 59.9990000  0  5G 2G11G16G19G 6
  20753360.948   -14947175.314 7 -11647118.36923
  23771982.2144    -626905.80346   -488485.82261
  23968196.987    -1796431.305 5  -1274126.61421
  21736244.9644    4679278.41046   3646187.93462
  21988948.5814  -13123508.54446 -10170311.63661
 91  4 30 21 27 14.9990000  0  5G 2G11G16G19G 6
  20750516.230   -14962125.641 7 -11658767.95623
  23777682.940     -596928.551 6   -465126.94321
  23972282.628    -1774949.217 5  -1257387.42021
  21740263.5584    4700394.04646   3662641.64562
  21983103.222   -13154249.024 6 -10194265.21621
 91  4 30 21 27 29.9990000  0  5G 2G11G16G19G 6
  20747684.378   -14977011.246 7 -11670367.10923
  23783410.917     -566845.202 5   -441685.39921
  23976385.9644   -1753395.44145  -1240592.38361
  21744288.4254    4721558.23846   3679133.19862
  21977252.175   -13184982.553 6 -10218213.37121
 91  4 30 21 27 44.9990000  0  5G 2G11G16G19G 6
  20744862.050   -14991838.511 7 -11681920.80623
  23789155.3004    -536662.55146   -418166.48361
  23980496.503    -1731776.910 5  -1223746.88621
  21748327.612     4742764.535 6   3695657.55722
  21971401.3784  -13215715.34546 -10242160.95761
 91  4 30 21 27 59.9990000  0  5G 2G11G16G19G 6
  20742053.081   -15006595.461 7 -11693419.71023
  23794919.3554    -506368.75446   -394560.92861
  23984627.565    -1710081.756 5  -1206841.69221
  21752371.5194    4764025.04146   3712224.15862
  21965557.0654  -13246435.44646 -10266098.66261
 91  4 30 21 28 14.9990000  0  5G 2G11G16G19G 6
  20739255.925   -15021286.262 7 -11704867.06823
  23800705.8784    -475968.18646   -370872.20661
  23988770.128    -1688314.555 5  -1189880.34021
  21756427.3004    4785335.76246   3728829.88662
  21959713.597   -13277146.745 6 -10290029.50021
 91  4 30 21 28 29.9990000  0  5G 2G11G16G19G 6
  20736473.534   -15035910.066 7 -11716262.22223
  23806508.9954    -445460.28546   -347099.81861
  23992928.7764   -1666474.70945  -1172862.37861
  21760489.9484    4806697.52846   3745475.38762
  21953869.0654  -13307848.36246 -10313952.79661
 91  4 30 21 28 44.9990000  0  5G 2G11G16G19G 6
  20733703.417   -15050470.559 7 -11727608.04323
  23812332.886     -414848.997 5   -323246.88621
  23997092.433    -1644566.374 5  -1155791.03821
  21764565.6984    4828106.79246   3762157.90262
  21948029.323   -13338543.755 6 -10337871.25021
 91  4 30 21 28 59.9990000  0  5G 2G11G16G19G 6
  20730947.769   -15064965.372 7 -11738902.68223
  23818174.112     -384132.115 5   -299311.68421
  24001279.9724   -1622587.18045  -1138664.49661
  21768649.355     4849566.158 6   3778879.45722
  21942188.1364  -13369230.32946 -10361782.82161
 91  4 30 21 29 14.9990000  0  5G 2G11G16G19G 6
  20728198.276   -15079394.730 7 -11750146.31923
  23824045.7304    -353310.06645   -275294.53261
  24005474.386    -1600537.459 5  -1121483.00721
  21772743.4644    4871075.49346   3795639.94562
  21936353.6054  -13399908.16046 -10385687.57861
 91  4 30 21 29 29.9990000  0  5G 2G11G16G19G 6
  20725467.448   -15093758.835 7 -11761339.11723
  23829927.4094    -322383.23145   -251195.72561
  24009683.4874   -1578417.61945  -1104246.89061
  21776844.347     4892634.743 6   3812439.30922
  21930516.5114  -13430577.25246 -10409585.54461
 91  4 30 21 29 44.9990000  0  5G 2G11G16G19G 6
  20722744.784   -15108061.611 7 -11772484.11023
  23835837.925     -291355.954 6   -227018.64121
  24013905.261    -1556232.189 5  -1086959.66221
  21780956.972     4914239.930 6   3829274.51222
  21924679.675   -13461241.575 6 -10433479.76621
 91  4 30 21 29 59.9990000  0  5G 2G11G16G19G 6
  20720034.769   -15122300.570 7 -11783579.38723
  23841760.9644    -260225.94845   -202761.51161
  24018140.1834   -1533979.08344  -1069619.70161
  21785081.9174    4935893.65646   3846147.50962
  21918847.7694  -13491898.39846 -10457368.16261
 91  4 30 21 30 14.9990000  0  5G 2G11G16G19G 6
  20717340.245   -15136472.084 7 -11794622.10623
  23847704.3234    -228989.50046   -178421.42761
  24022387.253    -1511654.432 4  -1052223.95221
  21789206.4404    4957599.87446   3863061.41662
  21913014.6984  -13522543.67846 -10481247.55561
 91  4 30 21 30 29.9990000  0  5G 2G11G16G19G 6
  20714655.386   -15150577.874 7 -11805613.61423
  23853666.534     -197648.883 6   -154000.18421
  24026649.042    -1489260.484 4  -1034774.25921
  21793347.2374    4979356.65846   3880014.71462
  21907184.7764  -13553179.16946 -10505119.32761
 91  4 30 21 30 44.9990000  0  5G 2G11G16G19G 6
  20711984.308   -15164618.483 7 -11816554.33023
  23859652.2694    -166205.00946   -129498.47161
  24030928.120    -1466798.222 4  -1017271.32021
  21797498.3784    5001163.44046   3897006.98161
  21901358.050   -13583805.428 6 -10528983.90421
 91  4 30 21 30 59.9990000  0  5G 2G11G16G19G 6
  20709322.198   -15178592.317 7 -11827443.01223
  23865655.714     -134656.377 6   -104915.15821
  24035211.5194   -1444266.16744   -999713.99261
  21801660.5504    5023022.12146   3914039.68962
  21895529.933   -13614420.579 6 -10552839.82121
 91  4 30 21 31 14.9990000  0  5G 2G11G16G19G 6
  20706676.315   -15192499.094 7 -11838279.44223
  23871677.214     -103002.908 6    -80250.12221
  24039512.5814   -1421664.50444   -982102.42661
  21805827.5424    5044933.19746   3931113.22762
  21889708.980   -13645024.126 6 -10576686.70521
 91  4 30 21 31 29.9990000  0  5G 2G11G16G19G 6
  20704042.940   -15206341.905 7 -11849066.02523
  23877719.042      -71247.960 5    -55505.99821
  24043824.6124   -1398996.67543   -964439.29961
  21810003.5734    5066893.55046   3948225.15762
  21883887.440   -13675619.104 6 -10600526.89921
 91  4 30 21 31 44.9990000  0  5G 2G11G16G19G 6
  20701420.269   -15220119.473 7 -11859801.77523
  23883784.3154     -39390.43946    -30681.97261
  24048150.581    -1376261.456 3   -946723.68221
  21814194.3154    5088904.39346   3965376.43662
  21878067.151   -13706203.928 6 -10624359.18321
 91  4 30 21 31 59.9990000  0  5G 2G11G16G19G 6
  20698811.831   -15233834.091 7 -11870488.47023
  23889862.980       -7432.953 5     -5780.04521
  24052484.776    -1353461.458 4   -928957.53321
  21818394.0654    5110963.52246   3982565.33161
  21872248.9644  -13736780.78646 -10648185.26761
 91  4 30 21 32 14.9990000  0  5G 2G11G16G19G 6
  20696213.464   -15247482.619 7 -11881123.66723
  23895960.1514      24627.56645     19202.15961
  24056840.9564   -1330593.55244   -911138.51261
  21822601.1834    5133074.55846   3999794.68461
  21866431.886   -13767346.257 6 -10672002.47221
 91  4 30 21 32 29.9990000  0  5G 2G11G16G19G 6
  20693629.815   -15261066.246 7 -11891708.29523
  23902082.667       56789.637 5     44263.49321
  24061208.284    -1307659.068 3   -893267.59121
  21826816.7614    5155236.30446   4017063.53962
  21860616.136   -13797901.427 6 -10695811.65721
 91  4 30 21 32 44.9990000  0  5G 2G11G16G19G 6
  20691056.659   -15274586.088 7 -11902243.21223
  23908225.3554      89051.90845     69402.93561
  24065584.081    -1284659.606 3   -875346.04921
  21831044.0344    5177447.85246   4034371.20361
  21854801.847   -13828447.143 6 -10719613.46121
 91  4 30 21 32 59.9990000  0  5G 2G11G16G19G 6
  20688497.230   -15288040.933 7 -11912727.48623
  23914383.355      121415.223 5     94621.08421
  24069975.589    -1261594.710 4   -857373.53121
  21835283.0424    5199710.22446   4051718.47262
  21848994.151   -13858982.286 6 -10743407.03821
 91  4 30 21 33 14.9990000  0  4G 2G11G19G 6
  20685948.909   -15301427.149 7 -11923158.28123
  23920560.378      153882.928 6    119920.57221
  21839524.4484    5222027.15046   4069108.24562
  21843186.214   -13889502.912 6 -10767189.30021
 91  4 30 21 33 29.9990000  0  4G 2G11G19G 6
  20683413.980   -15314749.290 7 -11933539.14523
  23926757.480      186450.255 5    145297.69521
  21843783.9014    5244394.23546   4086537.11062
  21837380.042   -13920013.549 6 -10790963.77521
 91  4 30 21 33 44.9990000  0  4G 2G11G19G 6
  20680890.472   -15328008.393 7 -11943870.89223
  23932975.933      219116.084 6    170751.58221
  21848049.0344    5266810.47646   4104004.27662
  21831576.730   -13950514.909 6 -10814731.02621
 91  4 30 21 33 59.9990000  0  4G 2G11G19G 6
  20678380.651   -15341203.688 7 -11954152.91323
  23939209.269      251880.867 6    196282.55821
  21852325.5734    5289276.81546   4121510.48162
  21825773.2694  -13981006.06546 -10838490.32361
 91  4 30 21 34 14.9990000  0  4G 2G11G19G 6
  20675879.706   -15354334.056 7 -11964384.35023
  23945465.651      284745.389 6    221891.27621
  21856611.675     5311794.527 6   4139056.72021
  21819972.6904  -14011485.71146 -10862240.66061
 91  4 30 21 34 29.9990000  0  4G 2G11G19G 6
  20673393.347   -15367399.533 7 -11974565.22023
  23951737.8784     317709.63445    247577.68161
  21860903.4564    5334363.67546   4156643.02962
  21814177.940   -14041953.625 6 -10885981.84121
 91  4 30 21 34 44.9990000  0  4G 2G11G19G 6
  20670922.1754  -15380395.32047 -11984691.78063
  23958027.128      350777.901 5    273345.14921
  21865209.1834    5356989.08846   4174273.18561
  21808379.714   -14072405.001 6 -10909710.13921
 91  4 30 21 34 59.9990000  0  4G 2G11G19G 6
  20668461.839   -15393322.259 7 -11994764.69923
  23964342.1204     383949.18345    299192.89961
  21869526.3784    5379670.18046   4191946.72361
  21802589.0114  -14102840.37046 -10933425.97661
 91  4 30 21 35 14.9990000  0  4G 2G11G19G 6
  20666013.378   -15406183.850 7 -12004786.69623
  23970673.5894     417219.64545    325117.90861
  21873851.4954    5402403.36146   4209660.86061
  21796799.3474  -14133263.13946 -10957131.99061
 91  4 30 21 35 29.9990000  0  4G 2G11G19G 6
  20663581.315   -15418979.449 7 -12014757.27123
  23977023.9404     450589.84845    351120.65761
  21878186.339     5425189.588 6   4227416.33321
  21791011.112   -14163672.378 6 -10980827.44921
 91  4 30 21 35 44.9990000  0  4G 2G11G19G 6
  20661156.862   -15431711.064 7 -12024677.98823
  23983390.3394     484057.34245    377199.23261
  21882533.4874    5448026.67046   4245211.42361
  21785228.105   -14194070.039 6 -11004513.89421
 91  4 30 21 35 59.9990000  0  4G 2G11G19G 6
  20658748.237   -15444376.076 7 -12034546.80423
  23989777.2534     517624.58945    403355.49161
  21886891.7534    5470917.31646   4263048.25361
  21779443.800   -14224453.397 6 -11028189.19421
 91  4 30 21 36 14.9990000  0  4G 2G11G19G 6
  20656349.284   -15456975.784 7 -12044364.73623
  23996186.894      551290.158 6    429588.41421
  21891256.8554    5493860.49046   4280926.01861
  21773667.276   -14254823.408 6 -11051854.09321
 91  4 30 21 36 29.9990000  0  4G 2G11G19G 6
  20653965.175   -15469510.633 7 -12054132.13023
  24002612.4174     585053.18045    455897.25861
  21895630.0424    5516855.76446   4298844.37861
  21767889.706   -14285180.384 6 -11075508.83421
 91  4 30 21 36 44.9990000  0  4G 2G11G19G 6
  20651590.448   -15481980.887 7 -12063849.19323
  24009057.253      618913.308 6    482281.74521
  21900020.3154    5539903.01446   4316803.24361
  21762114.042   -14315524.406 6 -11099153.48221
 91  4 30 21 36 59.9990000  0  3G11G19G 6
  24015516.1594     652872.20246    508743.20261
  21904413.3004    5563004.35346   4334804.24961
  21756346.042   -14345853.130 6 -11122786.20621
 91  4 30 21 37 14.9990000  0  4G 2G11G19G 6
  20646882.925          -0.04317
  24021997.8784     686929.02045    535281.00361
  21908820.2534    5586159.55346   4352847.23361
  21750573.261   -14376167.026 6 -11146407.38021
 91  4 30 21 37 29.9990000  0  4G 2G11G19G 6
  20644548.0504     -12270.88047
  24028496.2534     721084.17645    561895.37761
  21913236.136     5609369.122 6   4370932.57021
  21744810.480   -14406465.429 7 -11170016.47721
 91  4 30 21 37 44.9990000  0  4G 2G11G19G 6
  20642223.011      -24477.809 7        -0.01633
  24035015.190      755334.573 5    588583.98221
  21917662.730     5632630.304 6   4389058.14121
  21739048.511   -14436750.841 7 -11193615.46021
 91  4 30 21 37 59.9990000  0  4G 2G11G19G 6
  20639913.839      -36619.887 7     -9461.35623
  24041547.1124     789681.08845    615347.49961
  21922098.5814    5655944.15746   4407224.75261
  21733286.6364  -14467021.99047 -11217203.32161
 91  4 30 21 38 14.9990000  0  4G 2G11G19G 6
  20637615.511      -48692.929 7    -18868.90123
  24048105.9874     824127.63845    642188.95961
  21926548.1754    5679314.97346   4425435.74461
  21727531.300   -14497274.703 7 -11240776.81421
 91  4 30 21 38 29.9990000  0  4G 2G11G19G 6
  20635330.339      -60705.193 7    -28229.08523
  24054677.6984     858665.62245    669101.67261
  21931003.3864    5702734.65146   4443684.80861
  21721774.190   -14527516.957 7 -11264342.16021
 91  4 30 21 38 44.9990000  0  4G 2G11G19G 6
  20633056.261      -72650.376 7    -37537.00023
  24061266.495      893301.232 5    696090.45421
  21935472.4724    5726209.61946   4461976.95461
  21716024.8554  -14557742.11347 -11287894.19361
 91  4 30 21 38 59.9990000  0  4G 2G11G19G 6
  20630796.519      -84530.269 7    -46794.04023
  24067878.8234     928032.23045    723153.55161
  21939949.0264    5749737.92946   4480310.66261
  21710276.058   -14587952.043 7 -11311434.35521
 91  4 30 21 39 14.9990000  0  4G 2G11G19G 6
  20628547.690      -96348.577 7    -56003.08623
  24074505.144      962854.723 6    750287.95521
  21944433.4014    5773316.15746   4498683.27561
  21704527.956   -14618150.218 7 -11334965.35021
 91  4 30 21 39 29.9990000  0  4G 2G11G19G 6
  20626311.612     -108101.582 7    -65161.25323
  24081147.0654     997772.28745    777496.44861
  21948933.2764    5796948.26046   4517097.86161
  21698785.362   -14648332.639 7 -11358484.07321
 91  4 30 21 39 44.9990000  0  4G 2G11G19G 6
  20624085.261     -119791.525 7    -74270.27823
  24087810.6284    1032782.35946    804777.00861
  21953439.1594    5820632.05246   4535552.72761
  21693044.886   -14678501.366 7 -11381992.13021
 91  4 30 21 39 59.9990000  0  4G 2G11G19G 6
  20621874.456     -131414.776 7    -83327.33623
  24094488.2304    1067888.33845    832132.28861
  21957955.0344    5844371.24346   4554050.77061
  21687307.120   -14708652.458 7 -11405486.43721
 91  4 30 21 40 14.9990000  0  3G11G19G 6
  24101187.886     1103086.563 5    859559.46621
  21962482.6754    5868162.30946   4572589.22361
  21681570.487   -14738789.243 7 -11428969.59921
 91  4 30 21 40 29.9990000  0  4G 2G11G19G 6
  20617487.0264         -0.86057
  24107905.8394    1138379.12745    887060.14161
  21967025.269     5892007.784 6   4591170.07221
  21675841.3234  -14768909.11746 -11452439.58661
 91  4 30 21 40 44.9990000  0  4G 2G11G19G 6
  20615312.0344     -11430.25447
  24114639.245     1173765.032 5    914633.56121
  21971567.472     5915907.164 6   4609792.92521
  21670111.823   -14799012.631 6 -11475896.82321
 91  4 30 21 40 59.9990000  0  4G 2G11G19G 6
  20613152.253      -22791.506 7        -0.42633
  24121388.7844    1209247.16945    942281.95161
  21976129.2534    5939863.58546   4628460.22961
  21664386.644   -14829096.397 7 -11499338.66722
 91  4 30 21 41 14.9990000  0  4G 2G11G19G 6
  20611001.628      -34087.707 7     -8802.64423
  24128163.948     1244822.248 5    970002.77921
  21980697.980     5963874.144 6   4647169.71621
  21658664.190   -14859163.414 6 -11522767.47021
 91  4 30 21 41 29.9990000  0  4G 2G11G19G 6
  20608864.128      -45314.204 7    -17550.54723
  24134942.7614    1280494.59445    997799.40961
  21985275.167     5987943.734 6   4665925.19921
  21652949.386   -14889208.757 7 -11546179.38322
 91  4 30 21 41 44.9990000  0  4G 2G11G19G 6
  20606742.589      -56469.329 7    -26242.83823
  24141760.050     1316265.559 5   1025672.87721
  21989870.722     6012073.822 6   4684727.81921
  21647234.987   -14919230.623 7 -11569572.99822
 91  4 30 21 41 59.9990000  0  4G 2G11G19G 6
  20604633.651      -67554.807 7    -34880.85523
  24148578.261     1352133.381 5   1053621.83121
  21994473.1444    6036262.95246   4703576.45761
  21641525.940   -14949230.382 7 -11592949.38722
 91  4 30 21 42 14.9990000  0  4G 2G11G19G 6
  20602535.081      -78577.508 7    -43469.95523
  24155427.4644    1388090.90845   1081640.65061
  21999084.995     6060504.400 6   4722465.85521
  21635817.605   -14979214.793 6 -11616313.81922
 91  4 30 21 42 29.9990000  0  4G 2G11G19G 6
  20600449.558      -89532.723 7    -52006.47423
  24162288.9014    1424142.53345   1109732.81461
  22003713.175     6084803.051 6   4741399.82421
  21630118.105   -15009178.854 7 -11639662.39322
 91  4 30 21 42 44.9990000  0  4G 2G11G19G 6
  20598376.323     -100424.763 7    -60493.76023
  24169167.987     1460283.662 5   1137894.70221
  22008342.8084    6109154.60346   4760375.02261
  21624416.644   -15039126.618 7 -11662998.26822
 91  4 30 21 42 59.9990000  0  4G 2G11G19G 6
  20596317.003     -111248.372 7    -68927.73023
  24176057.698     1496519.283 5   1166130.22821
  22012988.0264    6133564.28546   4779395.50961
  21618723.862   -15069052.795 7 -11686317.32122
 91  4 30 21 43 14.9990000  0  4G 2G11G19G 6
  20594270.526     -122003.503 7    -77308.33523
  24182973.980     1532849.357 5   1194439.35121
  22017642.995     6158032.387 6   4798461.52021
  21613030.534   -15098957.037 7 -11709619.28622
 91  4 30 21 43 29.9990000  0  4G 2G11G19G 6
  20592236.198     -132696.400 7    -85640.44723
  24189901.003     1569267.202 5   1222816.84021
  22022310.5974    6182552.48746   4817568.05361
  21607344.237   -15128845.340 7 -11732908.82722
 91  4 30 21 43 44.9990000  0  4G 2G11G19G 6
  20590215.097     -143321.522 7    -93919.74523
  24196851.433     1605778.208 5   1251266.95221
  22026988.565     6207130.350 6   4836719.59021
  21601660.026   -15158711.984 7 -11756181.48722
 91  4 30 21 43 59.9990000  0  4G 2G11G19G 6
  20588202.847     -153882.269 7   -102148.88623
  24203817.9334    1642378.51845   1279786.64561
  22031673.534     6231762.714 6   4855913.59621
  21595983.183   -15188560.291 7 -11779439.86322
 91  4 30 21 44 14.9990000  0  4G 2G11G19G 6
  20586208.839     -164376.292 7   -110326.02723
  24210794.847     1679070.099 5   1308377.44921
  22036374.1204    6256451.90146   4875151.88361
  21590304.651   -15218387.774 7 -11802682.01722
 91  4 30 21 44 29.9990000  0  4G 2G11G19G 6
  20584222.722     -174802.700 7   -118450.48623
  24217793.917     1715854.037 5   1337040.26321
  22041084.3234    6281199.15646   4894435.41661
  21584634.823   -15248193.027 7 -11825906.84022
 91  4 30 21 44 44.9990000  0  4G 2G11G19G 6
  20582252.190     -185156.464 7   -126518.33623
  24224810.4804    1752734.91345   1365778.58561
  22045803.456     6306009.531 6   4913768.13721
  21578965.573   -15277971.032 7 -11849110.43422
 91  4 30 21 44 59.9990000  0  4G 2G11G19G 6
  20580297.386     -195440.691 7   -134532.00123
  24231851.1284    1789709.31245   1394589.79461
  22050537.1674    6330879.87946   4933147.58561
  21573305.1444  -15307724.64647 -11872295.02662
 91  4 30 21 45 14.9990000  0  4G 2G11G19G 6
  20578351.237     -205654.719 7   -142490.96723
  24238898.800     1826777.608 5   1423474.17621
  22055281.3394    6355811.02546   4952574.41961
  21567649.3154  -15337453.01347 -11895459.94462
 91  4 30 21 45 29.9990000  0  4G 2G11G19G 6
  20576421.253     -215807.656 7   -150402.32523
  24245971.0734    1863930.54445   1452424.49761
  22060038.8704    6380793.97646   4972041.61961
  21561992.745   -15367164.915 7 -11918612.03222
 91  4 30 21 45 44.9990000  0  4G 2G11G19G 6
  20574501.159     -225896.224 7   -158263.52923
  24253060.1674    1901171.15845   1481443.14161
  22064800.1834    6405832.15846   4991551.84962
  21556344.159   -15396856.877 7 -11941748.58521
 91  4 30 21 45 59.9990000  0  4G 2G11G19G 6
  20572592.230     -235919.948 7   -166074.20023
  24260159.065     1938499.535 5   1510530.17821
  22069575.1984    6430926.01046   5011105.46561
  21550699.0734  -15426528.29147 -11964869.12262
 91  4 30 21 46 14.9990000  0  4G 2G11G19G 6
  20570697.753     -245879.914 7   -173835.19623
  24267282.3554    1975914.51445   1539684.69261
  22074361.3704    6456074.51346   5030701.66462
  21545054.894   -15456179.886 7 -11987974.22021
 91  4 30 21 46 29.9990000  0  4G 2G11G19G 6
  20568815.105     -255772.598 7   -181543.76323
  24274426.159     2013419.226 6   1568909.13221
  22079158.5114    6481281.47646   5050343.42661
  21539415.636   -15485808.034 6 -12011061.04222
 91  4 30 21 46 44.9990000  0  4G 2G11G19G 6
  20566946.730     -265601.196 7   -189202.39423
  24281573.8084    2051010.26445   1598200.83061
  22083967.0344    6506543.61246   5070028.16761
  21533782.440   -15515415.717 6 -12034131.92122
 91  4 30 21 46 59.9990000  0  4G 2G11G19G 6
  20565086.519     -275365.480 8   -196810.90223
  24288744.6904    2088687.39745   1627559.63661
  22088780.3154    6531861.44246   5089756.31362
  21528152.198   -15545002.563 7 -12057186.56222
 91  4 30 21 47 14.9990000  0  4G 2G11G19G 6
  20563242.065     -285061.145 8   -204365.94423
  24295930.737     2126454.719 5   1656988.67521
  22093611.5584    6557239.09846   5109531.07661
  21522527.6204  -15574563.99347 -12080221.40962
 91  4 30 21 47 29.9990000  0  4G 2G11G19G 6
  20561411.675     -294686.295 8   -211866.04423
  24303134.089     2164314.129 5   1686489.49321
  22098451.7534    6582678.78846   5129354.17362
  21516906.7144  -15604097.70646 -12103234.64861
 91  4 30 21 47 44.9990000  0  4G 2G11G19G 6
  20559591.831     -304242.136 8   -219312.12823
  24310355.5584    2202263.99945   1716060.78161
  22103304.1284    6608179.27846   5149224.65561
  21511292.558   -15633604.926 6 -12126227.24622
 91  4 30 21 47 59.9990000  0  4G 2G11G19G 6
  20557786.378     -313733.647 8   -226708.09023
  24317595.964     2240299.131 5   1745698.51321
  22108168.1834    6633735.60946   5169138.63961
  21505681.0504  -15663090.18047 -12149202.72961
 91  4 30 21 48 14.9990000  0  4G 2G11G19G 6
  20555991.347     -323159.193 8   -234052.65023
  24324847.378     2278420.862 5   1775403.74721
  22113041.7224    6659349.64046   5189097.58961
  21500074.7694  -15692551.84347 -12172159.82962
 91  4 30 21 48 29.9990000  0  4G 2G11G19G 6
  20554209.769     -332521.572 7   -241347.99023
  24332114.167     2316626.082 5   1805174.00321
  22117929.855     6685018.638 6   5209099.36121
  21494472.800   -15721992.365 7 -12195100.45222
 91  4 30 21 48 44.9990000  0  3G 2G19G 6
  20552441.237     -341820.602 7   -248593.97323
  22122821.7454    6710742.73346   5229144.08061
  21488872.8784  -15751411.54746 -12218024.45362
 91  4 30 21 48 59.9990000  0  3G 2G19G 6
  20550682.737     -351059.949 7   -255793.44923
  22127728.8944    6736518.58746   5249229.12262
  21483276.2764  -15780812.64946 -12240934.36262
 91  4 30 21 49 14.9990000  0  3G 2G19G 6
  20548936.190     -360233.760 7   -262941.85523
  22132643.2614    6762352.04746   5269359.06062
  21477689.675   -15810189.482 7 -12263825.35922
 91  4 30 21 49 29.9990000  0  3G 2G19G 6
  20547206.433     -369334.117 7   -270033.02023
  22137572.5034    6788251.07146   5289540.08262
  21472104.3474  -15839534.14347 -12286691.28962
 91  4 30 21 49 44.9990000  0  3G 2G19G 6
  20545486.550     -378366.622 7   -277071.31323
  22142510.3624    6814210.15546   5309767.89962
  21466527.769   -15868851.894 7 -12309536.24522
 91  4 30 21 49 59.9990000  0  3G 2G19G 6
  20543779.394     -387335.489 7   -284060.02423
  22147459.6834    6840225.03846   5330039.20461
  21460953.120   -15898146.975 7 -12332363.54022
 91  4 30 21 50 14.9990000  0  3G 2G19G 6
  20542085.112     -396236.774 7   -290996.07023
  22152423.4174    6866300.03046   5350357.34262
  21455380.878   -15927415.008 7 -12355169.75622
 91  4 30 21 50 29.9990000  0  3G 2G19G 6
  20540405.112     -405072.492 7   -297881.02623
  22157395.7844    6892432.91846   5370720.59861
  21449814.269   -15956657.701 7 -12377956.22522
 91  4 30 21 50 44.9990000  0  3G 2G19G 6
  20538734.151     -413842.474 7   -304714.76023
  22162381.776     6918624.006 6   5391129.19821
  21444255.425   -15985874.807 7 -12400722.75722
 91  4 30 21 50 59.9990000  0  3G 2G19G 6
  20537079.675     -422549.288 7   -311499.27323
  22167374.7764    6944870.97346   5411581.34861
  21438701.511   -16015068.427 7 -12423470.99222
 91  4 30 21 51 14.9990000  0  3G 2G19G 6
  20535434.472     -431193.407 7   -318234.93023
  22172380.8864    6971173.31146   5432076.62961
  21433153.464   -16044239.003 7 -12446201.26722
 91  4 30 21 51 29.9990000  0  3G 2G19G 6
  20533800.542     -439770.375 7   -324918.26523
  22177397.1984    6997535.55446   5452618.60161
  21427604.823   -16073381.873 7 -12468909.95022
 91  4 30 21 51 44.9990000  0  3G 2G19G 6
  20532182.198     -448279.077 7   -331548.39523
  22182425.7064    7023958.84446   5473208.13661
  21422065.464   -16102495.589 7 -12491595.91822
 91  4 30 21 51 59.9990000  0  3G 2G19G 6
  20530575.409     -456721.907 7   -338127.20723
  22187461.8944    7050440.99646   5493843.54561
  21416528.5264  -16131582.35347 -12514260.89162
 91  4 30 21 52 14.9990000  0  3G 2G19G 6
  20528981.737     -465094.694 7   -344651.43323
  22192518.651     7076986.423 6   5514528.24821
  21411001.714   -16160637.657 7 -12536901.34522
 91  4 30 21 52 29.9990000  0  3G 2G19G 6
  20527402.276     -473403.008 7   -351125.42423
  22197577.519     7103589.434 6   5535257.81921
  21405476.253   -16189666.996 7 -12559521.56622
 91  4 30 21 52 44.9990000  0  3G 2G19G 6
  20525833.565     -481645.664 7   -357548.25623
  22202654.7304    7130251.29046   5556033.25061
  21399959.972   -16218668.958 7 -12582120.45222
 91  4 30 21 52 59.9990000  0  3G 2G19G 6
  20524276.808     -489824.254 7   -363921.16023
  22207739.511     7156970.578 6   5576853.41921
  21394442.2224  -16247644.83847 -12604699.01562
 91  4 30 21 53 14.9990000  0  3G 2G19G 6
  20522733.784     -497933.203 7   -370239.79823
  22212835.917     7183752.930 6   5597722.73921
  21388935.9174  -16276588.71947 -12627252.65562
 91  4 30 21 53 29.9990000  0  3G 2G19G 6
  20521204.558     -505972.520 7   -376504.17623
  22217943.401     7210598.464 6   5618641.29421
  21383434.5264  -16305500.47947 -12649781.25862
 91  4 30 21 53 44.9990000  0  3G 2G19G 6
  20519685.058     -513943.492 7   -382715.30123
  22223064.433     7237505.891 6   5639608.07321
  21377938.628   -16334381.247 7 -12672285.71022
 91  4 30 21 53 59.9990000  0  3G 2G19G 6
  20518184.315     -521846.101 7   -388873.15823
  22228194.433     7264475.401 6   5660623.23421
  21372447.331   -16363230.627 7 -12694765.70322
 91  4 30 21 54 14.9990000  0  3G 2G19G 6
  20516691.300     -529678.602 7   -394976.39123
  22233338.573     7291508.735 6   5681688.12421
  21366964.065   -16392046.696 7 -12717219.75022
 91  4 30 21 54 29.9990000  0  3G 2G19G 6
  20515215.472     -537440.966 7   -401024.95623
  22238496.362     7318605.982 6   5702802.81321
  21361487.2694  -16420829.22247 -12739647.64662
 91  4 30 21 54 44.9990000  0  3G 2G19G 6
  20513752.519     -545129.629 7   -407016.10323
  22243665.4804    7345770.84646   5723970.20461
  21356014.917   -16449574.402 7 -12762046.44322
 91  4 30 21 54 59.9990000  0  3G 2G19G 6
  20512301.769     -552747.956 8   -412952.44023
  22248848.534     7372999.886 6   5745187.59621
  21350554.534   -16478285.427 7 -12784418.63022
 91  4 30 21 55 14.9990000  0  3G 2G19G 6
  20510865.394     -560298.894 8   -418836.26823
  22254040.042     7400290.280 6   5766452.79921
  21345097.9954  -16506965.09047 -12806766.38362
 91  4 30 21 55 29.9990000  0  3G 2G19G 6
  20509441.761     -567782.611 8   -424667.71423
  22259240.9254    7427642.02946   5787765.80861
  21339647.5194  -16535613.06447 -12829089.43062
 91  4 30 21 55 44.9990000  0  3G 2G19G 6
  20508030.284     -575194.676 8   -430443.32723
  22264462.972     7455059.792 6   5809130.25321
  21334199.5424  -16564224.74547 -12851384.21162
 91  4 30 21 55 59.9990000  0  3G 2G19G 6
  20506634.308     -582537.302 8   -436164.83423
  22269691.878     7482541.449 6   5830544.48321
  21328762.331   -16592801.974 7 -12873652.13622
 91  4 30 21 56 14.9990000  0  3G 2G19G 6
  20505249.198     -589808.896 8   -441830.98623
  22274932.519     7510088.416 6   5852009.61121
  21323328.7304  -16621343.02747 -12895891.88162
 91  4 30 21 56 29.9990000  0  3G 2G19G 6
  20503878.745     -597012.148 8   -447443.88823
  22280185.6364    7537697.95746   5873523.50461
  21317907.9404  -16649850.49747 -12918105.45462
 91  4 30 21 56 44.9990000  0  3G 2G19G 6
  20502522.308     -604143.800 8   -453000.99523
  22285453.9874    7565373.48046   5895088.80861
  21312488.1754  -16678320.84347 -12940290.10262
 91  4 30 21 56 59.9990000  0  3G 2G19G 6
  20501179.737     -611203.056 8   -458501.69623
  22290737.159     7593116.213 6   5916706.48321
  21307076.4644  -16706752.91247 -12962444.92062
 91  4 30 21 57 14.9990000  0  3G 2G19G 6
  20499849.097     -618195.454 8   -463950.29923
  22296024.1124    7620920.55646   5938372.15961
  21301671.7224  -16735151.89447 -12984573.95862
 91  4 30 21 57 29.9990000  0  3G 2G19G 6
  20498531.159     -625117.251 8   -469343.87923
  22301328.8474    7648790.24446   5960088.76561
  21296277.3784  -16763513.91247 -13006674.19262
 91  4 30 21 57 44.9990000  0  3G 2G19G 6
  20497227.651     -631967.158 8   -474681.44623
  22306645.940     7676726.629 6   5981857.32821
  21290887.7694  -16791837.43747 -13028744.43362
 91  4 30 21 57 59.9990000  0  3G 2G19G 6
  20495938.831     -638747.393 8   -479964.72923
  22311976.151     7704727.680 6   6003676.29021
  21285502.8624  -16820124.45747 -13050786.22862
 91  4 30 21 58 14.9990000  0  3G 2G19G 6
  20494659.573     -645457.958 7   -485193.72323
  22317314.034     7732793.237 6   6025545.50721
  21280126.597   -16848374.895 7 -13072799.51422
 91  4 30 21 58 29.9990000  0  3G 2G19G 6
  20493397.808     -652096.083 7   -490366.26823
  22322663.058     7760926.343 6   6047467.35121
  21274758.2534  -16876585.59547 -13094781.83562
 91  4 30 21 58 44.9990000  0  3G 2G19G 6
  20492147.464     -658664.961 7   -495484.84723
  22328033.4094    7789123.69446   6069439.28261
  21269398.745   -16904759.481 7 -13116735.46622
 91  4 30 21 58 59.9990000  0  3G 2G19G 6
  20490908.089     -665166.242 7   -500550.76223
  22333412.6674    7817383.85246   6091460.15061
  21264042.1284  -16932897.92347 -13138661.48862
 91  4 30 21 59 14.9990000  0  3G 2G19G 6
  20489687.472     -671597.050 7   -505561.75923
  22338803.089     7845709.884 6   6113532.33221
  21258695.1514  -16960997.67247 -13160557.36062
 91  4 30 21 59 29.9990000  0  3G 2G19G 6
  20488475.808     -677952.819 7   -510514.28623
  22344202.925     7874106.314 6   6135659.37721
  21253357.253   -16989054.131 7 -13182419.48922
 91  4 30 21 59 44.9990000  0  3G 2G19G 6
  20487280.534     -684240.805 7   -515413.99723
  22349621.0734    7902565.80646   6157835.55561
  21248025.1834  -17017074.35347 -13204253.38762
 91  4 30 21 59 59.9990000  0  3G 2G19G 6
  20486096.925     -690457.475 7   -520258.13423
  22355049.8234    7931091.96346   6180063.68261
  21242700.5734  -17045054.44147 -13226056.01362
 91  4 30 22  0 14.9990000  0  3G 2G19G 6
  20484925.722     -696610.655 7   -525052.79723
  22360485.151     7959677.279 6   6202337.91121
  21237382.9484  -17073001.79847 -13247833.13762
 91  4 30 22  0 29.9990000  0  3G 2G19G 6
  20483769.253     -702692.927 7   -529792.21123
  22365941.065     7988329.449 6   6224664.22621
  21232069.417   -17100908.770 7 -13269578.78522
 91  4 30 22  0 44.9990000  0  3G 2G19G 6
  20482625.409     -708701.804 7   -534474.43423
  22371403.222     8017050.770 6   6247044.42421
  21226768.480   -17128772.781 7 -13291290.95822
 91  4 30 22  0 59.9990000  0  3G 2G19G 6
  20481494.065     -714641.154 8   -539102.47923
  22376883.112     8045837.155 6   6269475.32021
  21221474.2064  -17156597.59247 -13312972.59062
 91  4 30 22  1 14.9990000  0  3G 2G19G 6
  20480378.792     -720508.774 8   -543674.63423
  22382373.675     8074691.067 6   6291958.84221
  21216187.1904  -17184380.61747 -13334621.66362
 91  4 30 22  1 29.9990000  0  3G 2G19G 6
  20479274.823     -726305.060 8   -548191.20823
  22387878.159     8103612.234 6   6314494.76521
  21210909.112   -17212121.952 7 -13356238.24422
 91  4 30 22  1 44.9990000  0  3G 2G19G 6
  20478184.480     -732037.835 8   -552658.28223
  22393393.651     8132592.817 6   6337076.98021
  21205633.8314  -17239829.22547 -13377828.28762
 91  4 30 22  1 59.9990000  0  3G 2G19G 6
  20477106.003     -737699.979 8   -557070.32923
  22398920.1754    8161639.95746   6359711.05261
  21200371.2694  -17267495.19047 -13399386.15162
 91  4 30 22  2 14.9990000  0  3G 2G19G 6
  20476041.425     -743289.229 7   -561425.57423
  22404461.8944    8190756.07246   6382398.87761
  21195115.667   -17295117.209 7 -13420909.76122
 91  4 30 22  2 29.9990000  0  3G 2G19G 6
  20474993.105     -748807.864 8   -565725.79323
  22410013.198     8219939.161 6   6405138.89021
  21189863.5034  -17322697.08547 -13442400.53362
 91  4 30 22  2 44.9990000  0  3G 2G19G 6
  20473957.534     -754252.186 8   -569968.09923
  22415580.597     8249192.921 6   6427933.97622
  21184626.4804  -17350230.85047 -13463855.37462
 91  4 30 22  2 59.9990000  0  3G 2G19G 6
  20472933.315     -759633.333 8   -574161.19023
  22421159.776     8278506.212 6   6450775.44621
  21179392.6594  -17377729.46747 -13485282.83662
 91  4 30 22  3 14.9990000  0  3G 2G19G 6
  20471922.620     -764942.332 8   -578298.05323
  22426748.058     8307888.101 6   6473670.37021
  21174169.5424  -17405183.86047 -13506675.83262
 91  4 30 22  3 29.9990000  0  3G 2G19G 6
  20470925.487     -770180.666 8   -582379.86023
  22432354.730     8337337.114 6   6496617.59721
  21168954.4094  -17432595.36247 -13528035.40562
 91  4 30 22  3 44.9990000  0  3G 2G19G 6
  20469943.487     -775344.962 8   -586403.97123
  22437971.073     8366856.701 6   6519619.81821
  21163744.2844  -17459960.03047 -13549358.48262
 91  4 30 22  3 59.9990000  0  3G 2G19G 6
  20468975.276     -780441.270 8   -590375.09623
  22443602.284     8396440.882 6   6542672.37521
  21158545.8864  -17487283.86947 -13570649.74562
 91  4 30 22  4 14.9990000  0  3G 2G19G 6
  20468016.167     -785470.332 8   -594293.82823
  22449243.5504    8426088.96446   6565774.71961
  21153353.9484  -17514567.20347 -13591909.45362
 91  4 30 22  4 29.9990000  0  3G 2G19G 6
  20467073.925     -790429.312 8   -598157.95223
  22454900.0034    8455803.90846   6588929.16061
  21148172.331   -17541807.059 7 -13613135.27222
 91  4 30 22  4 44.9990000  0  4G13G 2G19G 6
  23804548.2224         -0.88454
  20466143.222     -795315.209 8   -601965.12323
  22460566.6364    8485588.65846   6612137.99861
  21142998.6754  -17569000.04447 -13634324.57562
 91  4 30 22  4 59.9990000  0  4G13G 2G19G 6
  23792264.1674     -64565.74244
  20465226.480     -800131.912 8   -605718.38623
  22466245.753     8515439.424 6   6635398.28921
  21137829.2844  -17596149.84247 -13655480.22162
 91  4 30 22  5 14.9990000  0  4G13G 2G19G 6
  23779977.7454    -129098.09844
  20464322.409     -804876.543 8   -609415.48523
  22471936.448     8545359.102 6   6658712.26421
  21132673.1054  -17623253.31247 -13676599.77562
 91  4 30 22  5 29.9990000  0  4G13G 2G19G 6
  23767707.4404    -193593.52644
  20463436.183     -809545.290 8   -613053.45523
  22477650.370     8575351.592 6   6682082.97621
  21127524.6904  -17650306.46347 -13697680.11562
 91  4 30 22  5 44.9990000  0  4G13G 2G19G 6
  23755444.8154    -258058.32844        -0.04271
  20462559.347     -814144.795 8   -616637.46823
  22483366.995     8605410.444 6   6705505.39621
  21122383.7844  -17677315.55247 -13718726.11862
 91  4 30 22  5 59.9990000  0  4G13G 2G19G 6
  23743181.8704    -322488.92544    -50205.48261
  20461696.940     -818671.941 8   -620165.09723
  22489101.784     8635538.808 6   6728981.98621
  21117252.5584  -17704277.11047 -13739735.09362
 91  4 30 22  6 14.9990000  0  4G13G 2G19G 6
  23730924.7454    -386879.76044   -100379.92661
  20460851.847     -823121.699 8   -623632.42423
  22494846.2764    8665741.97046   6752516.85961
  21112134.0894  -17731185.89347 -13760702.94062
 91  4 30 22  6 29.9990000  0  4G13G 2G19G 6
  23718682.628     -451232.404 4   -150524.60321
  20460018.597     -827495.960 8   -627040.91823
  22500605.3624    8696017.89846   6776108.42561
  21107023.5034  -17758043.63747 -13781631.01562
 91  4 30 22  6 44.9990000  0  4G13G 2G19G 6
  23706435.980     -515549.238 4   -200641.38821
  20459200.558     -831797.485 8   -630392.74123
  22506381.3864    8726363.75246   6799754.47661
  21101920.1754  -17784852.86447 -13802521.29062
 91  4 30 22  6 59.9990000  0  4G13G 2G19G 6
  23694210.308     -579827.150 4   -250727.79721
  20458396.659     -836023.682 8   -633685.86623
  22512172.058     8756782.212 6   6823457.11521
  21096829.6284  -17811610.76047 -13823371.56662
 91  4 30 22  7 14.9990000  0  4G13G 2G19G 6
  23681985.6984    -644065.91745   -300783.72161
  20457605.948     -840175.125 7   -636920.73823
  22517972.5344    8787272.82146   6847215.97661
  21091746.8004  -17838317.45747 -13844181.94462
 91  4 30 22  7 29.9990000  0  4G13G 2G19G 6
  23669770.4874    -708264.48044   -350808.34761
  20456829.401     -844251.054 8   -640096.77423
  22523790.1284    8817836.42646   6871031.70961
  21086673.1054  -17864972.00847 -13864951.68562
 91  4 30 22  7 44.9990000  0  4G13G 2G19G 6
  23657556.308     -772418.475 4   -400798.18521
  20456070.151     -848247.529 8   -643210.89423
  22529620.4874    8848476.97146   6894907.39161
  21081614.9874  -17891570.22147 -13885677.53762
 91  4 30 22  7 59.9990000  0  4G13G 2G19G 6
  23645356.1754    -836534.99444   -450758.87561
  20455324.276     -852172.062 8   -646268.95723
  22535464.4094    8879187.20146   6918837.38261
  21076560.2844  -17918119.26347 -13906365.06862
 91  4 30 22  8 14.9990000  0  4G13G 2G19G 6
  23633163.808     -900611.079 4   -500688.04921
  20454589.175     -856022.225 8   -649269.06323
  22541323.0264    8909969.40846   6942823.46261
  21071519.0504  -17944616.51247 -13927012.24262
 91  4 30 22  8 29.9990000  0  4G13G 2G19G 6
  23620981.870     -964643.383 4
  20453872.534     -859795.102 7   -652208.95223
  22547196.1754    8940826.43246   6966867.83161
  21066486.9334  -17971058.81447 -13947616.60362
 91  4 30 22  8 44.9990000  0  4G13G 2G19G 6
  23608803.331    -1028631.265 4
  20453169.0034    -863490.57148   -655088.52363
  22553080.2374    8971758.58246   6990970.74561
  21061465.9254  -17997445.77947 -13968177.84162
 91  4 30 22  8 59.9990000  0  4G13G 2G19G 6
  23596634.7614   -1092573.93944
  20452479.870     -867108.557 8   -657907.72123
  22558983.1514    9002766.07846   7015132.36461
  21056453.5264  -18023776.96847 -13988695.62162
 91  4 30 22  9 14.9990000  0  4G13G 2G19G 6
  23584470.831    -1156470.279 4
  20451808.612     -870648.366 8   -660665.99623
  22564894.5114    9033849.79046   7039353.37561
  21051455.4874  -18050051.32047 -14009169.10962
 91  4 30 22  9 29.9990000  0  4G13G 2G19G 6
  23572327.847    -1220316.431 4
  20451149.175     -874106.293 8   -663360.46823
  22570830.9254    9065013.29245   7063636.55161
  21046466.1054  -18076265.04447 -14029595.35562
 91  4 30 22  9 44.9990000  0  4G13G 2G19G 6
  23560187.597    -1284115.971 4
  20450506.917     -877486.432 8   -665994.32923
  22576771.995     9096252.465 6   7087978.70221
  21041487.4174  -18102421.96447 -14049977.34062
 91  4 30 22  9 59.9990000  0  4G13G 2G19G 6
  23548055.3944   -1347868.77344
  20449877.3314    -880789.20448   -668567.90863
  22582736.3864    9127567.15846   7112379.70361
  21036522.0344  -18128522.24147 -14070315.18862
 91  4 30 22 10 14.9990000  0  4G13G 2G19G 6
  23535932.2304   -1411564.09044
  20449266.519     -884004.534 8   -671073.34323
  22588706.4254    9158967.36146   7136847.31961
  21031568.5654  -18154555.37747 -14090600.71562
 91  4 30 22 10 29.9990000  0  4G13G 2G19G 6
  23523815.2304   -1475213.43044        -0.45771
  20448668.644     -887144.195 8   -673519.81923
  22594699.355     9190441.276 5   7161372.37521
  21026623.4954  -18180532.90447 -14110842.91262
 91  4 30 22 10 44.9990000  0  4G13G 2G19G 6
  23511714.7064   -1538816.31644    -49560.89661
  20448085.003     -890208.278 8   -675907.39923
  22600698.5264    9221988.79145   7185954.78861
  21021691.0424  -18206454.71447 -14131041.69262
 91  4 30 22 10 59.9990000  0  4G13G 2G19G 6
  23499620.589    -1602366.208 4    -99080.11821
  20447518.394     -893190.729 8   -678231.37123
  22606717.370     9253616.039 5   7210599.32921
  21016770.8234  -18232314.52447 -14151192.15962
 91  4 30 22 11 14.9990000  0  4G13G 2G19G 6
  23487538.5194   -1665865.78644   -148560.00561
  20446965.401     -896094.600 8   -680494.11223
  22612748.433     9285320.283 5   7235303.86421
  21011861.0344  -18258114.97047 -14171296.37262
 91  4 30 22 11 29.9990000  0  4G13G 2G19G 6
  23475468.792    -1729313.497 5   -197999.55321
  20446427.9484    -898919.29048   -682695.16063
  22618800.2144    9317102.38545   7260069.07961
  21006963.0734  -18283855.00847 -14191353.51062
 91  4 30 22 11 44.9990000  0  4G13G 2G19G 6
  23463406.4874   -1792707.95445   -247397.56061
  20445906.237     -901663.458 8   -684833.45923
  22624859.4484    9348963.49546   7284895.85161
  21002075.6984  -18309533.17647 -14211362.43362
 91  4 30 22 11 59.9990000  0  4G13G 2G19G 6
  23451346.456    -1856051.217 4   -296755.71321
  20445397.339     -904329.652 8   -686910.99523
  22630938.698     9380900.847 6   7309782.02821
  20997201.6054  -18335151.94847 -14231325.07562
 91  4 30 22 12 14.9990000  0  4G13G 2G19G 6
  23439305.925    -1919341.580 5   -346072.63521
  20444905.948     -906916.605 8   -688926.79323
  22637031.940     9412915.783 6   7334728.64221
  20992338.3474  -18360709.80247 -14251240.25362
 91  4 30 22 12 29.9990000  0  4G13G 2G19G 6
  23427268.683    -1982580.176 5   -395349.17121
  20444428.550     -909425.830 8   -690882.02023
  22643138.3864    9445006.93945   7359734.67561
  20987484.5894  -18386207.79647 -14271108.78162
 91  4 30 22 12 44.9990000  0  4G13G 2G19G 6
  23415245.597    -2045765.871 5   -444584.51821
  20443964.878     -911856.933 8   -692776.37223
  22649260.5194    9477174.88146   7384800.54061
  20982644.9254  -18411645.25147 -14290930.13962
 91  4 30 22 12 59.9990000  0  4G13G 2G19G 6
  23403233.878    -2108892.769 5   -493774.05021
  20443519.980     -914204.493 8   -694605.62723
  22655398.2924    9509425.07445   7409930.49861
  20977818.6054  -18437016.38147 -14310699.81962
 91  4 30 22 13 14.9990000  0  4G13G 2G19G 6
  23391229.4254   -2171963.88445   -542920.10061
  20443087.761     -916472.043 8   -696372.53623
  22661549.3154    9541754.11646   7435121.88361
  20973000.4804  -18462324.51347 -14330420.40562
 91  4 30 22 13 29.9990000  0  4G13G 2G19G 6
  23379234.1204   -2234984.43645   -592026.76661
  20442670.3234    -918665.00847   -698081.32963
  22667716.5584    9574156.41745   7460370.36661
  20968195.4174  -18487574.79147 -14350095.91462
 91  4 30 22 13 44.9990000  0  4G13G 2G19G 6
  23367255.433    -2297947.345 5   -641088.49821
  20442268.636     -920776.630 8   -699726.73423
  22673897.409     9606638.722 5   7485681.16621
  20963404.5194  -18512760.37947 -14369721.01162
 91  4 30 22 13 59.9990000  0  4G13G 2G19G 6
  23355284.378    -2360850.328 4   -690103.53221
  20441881.636     -922805.530 8   -701307.68423
  22680093.5264    9639202.52945   7511055.49161
  20958623.1444  -18537879.51447 -14389294.32962
 91  4 30 22 14 14.9990000  0  4G13G 2G19G 6
  23343322.1514   -2423700.17945   -739077.15061
  20441511.190     -924758.697 8   -702829.61723
  22686302.269     9671840.749 5   7536487.79021
  20953854.0814  -18562939.02747 -14408821.19462
 91  4 30 22 14 29.9990000  0  4G13G 2G19G 6
  23331376.4804   -2486493.16145   -788006.45761
  20441152.300     -926633.036 8   -704290.12923
  22692529.737     9704556.675 6   7561980.65321
  20949098.5194  -18587935.30647 -14428298.78362
 91  4 30 22 14 44.9990000  0  4G13G 2G19G 6
  23319435.526    -2549227.388 5   -836889.96321
  20440812.7454    -928427.32648   -705688.26563
  22698769.690     9737351.615 6   7587535.07021
  20944354.3704  -18612866.97747 -14447726.02762
 91  4 30 22 14 59.9990000  0  4G13G 2G19G 6
  23307510.292    -2611909.879 5   -885733.21921
  20440485.886     -930149.141 8   -707029.93123
  22705023.800     9770218.279 5   7613145.37621
  20939619.9174  -18637741.03947 -14467108.38562
 91  4 30 22 15 14.9990000  0  4G13G 2G19G 6
  23295593.644    -2674534.014 5   -934530.93821
  20440170.870     -931791.782 8   -708309.89623
  22711292.112     9803162.989 5   7638816.51121
  20934899.0114  -18662550.96447 -14486440.76262
 91  4 30 22 15 29.9990000  0  4G13G 2G19G 6
  23283686.6204   -2737103.88545   -983286.41761
  20439872.495     -933360.009 8   -709531.87723
  22717575.8944    9836181.07045   7664544.81661
  20930189.5114  -18687300.99547 -14505726.47362
 91  4 30 22 15 44.9990000  0  4G13G 2G19G 6
  23271787.1364   -2799610.61045  -1031992.67961
  20439592.487     -934845.342 8   -710689.26223
  22723874.9014    9869281.16545   7690337.04161
  20925494.1054  -18711982.26447 -14524958.60162
 91  4 30 22 15 59.9990000  0  4G13G 2G19G 6
  23259907.1984   -2862056.16145  -1080651.25561
  20439325.065     -936250.227 8   -711783.96223
  22730190.894     9902460.689 5   7716191.13121
  20920809.6204  -18736597.31247 -14544139.12762
 91  4 30 22 16 14.9990000  0  4G13G 2G19G 6
  23248034.651    -2924441.873 5  -1129263.20021
  20439071.480     -937576.721 8   -712817.58023
  22736518.855     9935717.955 6   7742105.79921
  20916136.4954  -18761147.56347 -14563269.16162
 91  4 30 22 16 29.9990000  0  4G13G 2G19G 6
  23236178.480    -2986766.145 5  -1177827.28721
  20438833.925     -938823.628 8   -713789.17623
  22742860.8084    9969054.16645   7768081.98761
  20911478.8154  -18785631.50347 -14582347.52762
 91  4 30 22 16 44.9990000  0  4G13G 2G19G 6
  23224329.3394   -3049027.44745  -1226342.31661
  20438611.581     -939989.907 8   -714697.94823
  22749221.925    10002470.312 5   7794120.46121
  20906830.7304  -18810047.92947 -14601373.28562
 91  4 30 22 16 59.9990000  0  4G13G 2G19G 6
  23212495.472    -3111229.622 5  -1274811.24121
  20438403.550     -941079.968 8   -715547.33123
  22755594.886    10035962.088 5   7820217.86921
  20902198.6364  -18834400.85647 -14620349.56162
 91  4 30 22 17 14.9990000  0  4G13G 2G19G 6
  23200664.480    -3173367.621 5  -1323230.20121
  20438211.190     -942089.089 8   -716333.64623
  22761982.4404   10069533.95846   7846377.69161
  20897576.5504  -18858685.67047 -14639272.76762
 91  4 30 22 17 29.9990000  0  4G13G 2G19G 6
  23188855.2764   -3235442.10445  -1371599.65561
  20438033.901     -943018.385 8   -717057.75623
  22768385.9174   10103184.91545   7872599.15861
  20892968.761   -18882902.840 7 -14658143.26522
 91  4 30 22 17 44.9990000  0  4G13G 2G19G 6
  23177052.417    -3297452.101 5  -1419918.84021
  20437874.558     -943867.295 8   -717719.22623
  22774806.558    10136915.504 6   7898882.65621
  20888372.089   -18907051.758 7 -14676960.58122
 91  4 30 22 17 59.9990000  0  4G13G 2G19G 6
  23165263.4484   -3359402.55045  -1468191.70061
  20437727.394     -944641.267 8   -718322.30723
  22781239.894    10170720.350 5   7925224.01921
  20883789.058   -18931137.412 7 -14695728.59522
 91  4 30 22 18 14.9990000  0  4G13G 2G19G 6
  23153486.4094   -3421286.26645  -1516412.48961
  20437593.644     -945333.921 8   -718862.02023
  22787685.9174   10204606.36345   7951628.63661
  20879220.5654  -18955153.11647 -14714442.10262
 91  4 30 22 18 29.9990000  0  4G13G 2G19G 6
  23141724.870    -3483102.752 5  -1564580.88821
  20437478.284     -945945.139 8   -719338.27623
  22794151.8474   10238573.44446   7978096.41261
  20874662.4014  -18979098.47247 -14733100.79562
 91  4 30 22 18 44.9990000  0  4G13G 2G19G 6
  23129974.284    -3544853.739 5  -1612698.26321
  20437375.456     -946476.673 8   -719752.44123
  22800629.511    10272619.682 5   8004625.88521
  20870118.378   -19002974.962 7 -14751705.82522
 91  4 30 22 18 59.9990000  0  4G13G 2G19G 6
  23118232.605    -3606538.027 5  -1660763.69921
  20437290.644     -946927.889 8   -720104.02323
  22807121.4014   10306745.76145   8031217.56761
  20865586.292   -19026781.706 7 -14770256.51222
 91  4 30 22 19 14.9990000  0  4G13G 2G19G 6
  23106507.4724   -3668157.60545  -1708778.72661
  20437218.933     -947301.362 8   -720395.02023
  22813631.3784   10340949.22045   8057869.53761
  20861071.6284  -19050521.13047 -14788754.73763
 91  4 30 22 19 29.9990000  0  4G13G 2G19G 6
  23094789.136    -3729719.498 5  -1756748.79521
  20437165.167     -947604.622 8   -720631.31323
  22820156.6754   10375222.54745   8084575.95161
  20856564.0344  -19074200.26747 -14807205.98662
 91  4 30 22 19 44.9990000  0  4G13G 2G19G 6
  23083090.292    -3791216.072 5  -1804667.90921
  20437117.050     -947830.569 8   -720807.36123
  22826692.3234   10409572.84246   8111342.33561
  20852070.6754  -19097811.66147 -14825604.44462
 91  4 30 22 19 59.9990000  0  5G13G 2G15G19G 6
  23071401.3624   -3852645.24045  -1852534.61361
  20437092.323     -947977.569 8
  23908112.1364     -22996.13845
  22833245.167    10444001.775 5   8138169.99521
  20847592.128   -19121353.413 7 -14843948.64323
 91  4 30 22 20 14.9990000  0  5G13G 2G15G19G 6
  23059727.3474   -3914006.05145  -1900347.96661
  20437076.550     -948045.362 8
  23903759.9804     -45867.40145
  22839807.440    10478509.659 5   8165059.17121
  20843123.097   -19144825.180 7 -14862238.30922
 91  4 30 22 20 29.9990000  0  5G13G 2G15G19G 6
  23048060.4644   -3975300.10845  -1948109.30861
  20437079.284     -948035.810 8
  23899433.3864     -68616.14045
  22846386.823    10513094.645 5   8192008.43221
  20838672.1054  -19168228.33947 -14880474.50863
 91  4 30 22 20 44.9990000  0  5G13G 2G15G19G 6
  23036405.480    -4036526.314 5  -1995817.85021
  20437098.753     -947948.170 8
  23895125.776      -91241.177 5
  22852987.417    10547757.512 5   8219018.38721
  20834229.292   -19191561.924 7 -14898656.49323
 91  4 30 22 20 59.9990000  0  5G13G 2G15G19G 6
  23024772.175    -4097683.658 5  -2043472.66021
  20437129.4874    -947782.11748
  23890846.5974    -113741.80545
  22859598.948    10582498.752 5   8246089.39221
  20829804.847   -19214825.231 7 -14916783.72123
 91  4 30 22 21 14.9990000  0  5G13G 2G15G19G 6
  23013146.5654   -4158769.59145  -2091071.88461
  20437177.128     -947535.404 8
  23886584.683     -136115.551 5        -0.13231
  22866223.7454   10617320.43546   8273223.08461
  20825391.2224  -19238015.94247 -14934854.37963
 91  4 30 22 21 29.9990000  0  5G13G 2G15G19G 6
  23001536.628    -4219786.645 5  -2138617.40821
  20437239.128     -947211.147 8   -720324.57923
  23882352.3554    -158364.99045    -17337.28961
  22872863.6984   10652219.49245   8300417.07861
  20820991.456   -19261136.847 7 -14952870.64423
 91  4 30 22 21 44.9990000  0  5G13G 2G15G19G 6
  22989937.1364   -4280734.01445  -2186108.64061
  20437315.105     -946809.176 8   -720011.33923
  23878139.7844    -180489.28545    -34576.90661
  22879519.8864   10687196.29345   8327671.63961
  20816606.394   -19284187.389 7 -14970832.08022
 91  4 30 22 21 59.9990000  0  5G13G 2G15G19G 6
  22978355.2694   -4341613.10245  -2233546.68061
  20437404.589     -946331.046 8   -719638.75423
  23873957.073     -202489.920 5    -51720.17321
  22886194.112    10722249.212 5   8354985.51921
  20812231.6674  -19307168.74147 -14988739.59863
 91  4 30 22 22 14.9990000  0  5G13G 2G15G19G 6
  22966778.9724   -4402422.36845  -2280930.27561
  20437510.909     -945775.409 8   -719205.77723
  23869792.605     -224365.514 5    -68766.02021
  22892877.4404   10757379.46345   8382359.64761
  20807873.558   -19330079.593 7 -15006592.18722
 91  4 30 22 22 29.9990000  0  5G13G 2G15G19G 6
  22955225.495    -4463157.927 5  -2328256.46721
  20437630.448     -945139.339 8   -718710.12323
  23865655.933     -246112.618 5    -85711.75121
  22899580.1054   10792590.24145   8409796.55061
  20803525.753   -19352916.539 7 -15024387.18022
 91  4 30 22 22 44.9990000  0  5G13G 2G15G19G 6
  22943677.581    -4523822.107 5  -2375527.02921
  20437767.956     -944425.607 8   -718153.95323
  23861537.9014    -267733.39645   -102559.00261
  22906291.8394   10827878.62245   8437293.90261
  20799194.745   -19375681.930 7 -15042126.42522
 91  4 30 22 22 59.9990000  0  5G13G 2G15G19G 6
  22932149.0194   -4584417.06145  -2422743.68661
  20437917.026     -943636.838 8   -717539.31623
  23857450.347     -289230.123 5   -119309.60221
  22913025.409    10863242.087 5   8464849.77621
  20794873.1124  -19398378.13247 -15059811.75062
 91  4 30 22 23 14.9990000  0  5G13G 2G15G19G 6
  22920636.167    -4644941.936 5  -2469905.69821
  20438082.980     -942772.689 8   -716865.93823
  23853384.1054    -310601.97845   -135962.93161
  22919763.628    10898680.983 5   8492464.40821
  20790568.8474  -19421004.45947 -15077442.62562
 91  4 30 22 23 29.9990000  0  5G13G 2G15G19G 6
  22909124.0974   -4705396.46645  -2517012.92061
  20438261.347     -941833.169 8   -716133.82623
  23849342.808     -331848.818 5   -152518.86221
  22926524.878    10934195.353 5   8520137.86521
  20786277.6124  -19443560.82947 -15095018.98962
 91  4 30 22 23 44.9990000  0  5G13G 2G15G19G 6
  22897637.5504   -4765780.64545  -2564065.32261
  20438455.222     -940818.664 8   -715343.29123
  23845322.7454    -352970.43445   -168977.18961
  22933296.5814   10969784.80945   8547869.81861
  20781998.315   -19466047.221 7 -15112540.83422
 91  4 30 22 23 59.9990000  0  5G13G 2G15G19G 6
  22886156.683    -4826096.823 5  -2611064.69921
  20438660.597     -939732.081 8   -714496.59123
  23841323.2224    -373969.69745   -185340.18061
  22940082.7064   11005446.34845   8575657.94761
  20777733.2374  -19488466.42747 -15130010.31362
 91  4 30 22 24 14.9990000  0  5G13G 2G15G19G 6
  22874692.956    -4886338.889 5  -2658006.39221
  20438881.456     -938567.727 8   -713589.28723
  23837356.659     -394840.360 5   -201602.96221
  22946883.6124   11041185.83145   8603506.78761
  20773479.4644  -19510812.35547 -15147422.69862
 91  4 30 22 24 29.9990000  0  5G13G 2G15G19G 6
  22863241.628    -4946507.371 5  -2704890.69521
  20439118.136     -937326.637 8   -712622.18923
  23833404.1054    -415583.22045   -217766.13761
  22953698.0654   11077002.24745   8631415.59461
  20769238.8084  -19533085.73747 -15164778.54562
 91  4 30 22 24 44.9990000  0  5G13G 2G15G19G 6
  22851808.503    -5006608.481 5  -2751722.49721
  20439367.878     -936015.534 8   -711600.53423
  23829482.3944    -436204.60145   -233834.67761
  22960529.2454   11112888.84145   8659379.07961
  20765014.308   -19555293.067 7 -15182082.93422
 91  4 30 22 24 59.9990000  0  5G13G 2G15G19G 6
  22840380.7924   -5066635.13345  -2798496.33361
  20439630.519     -934627.858 8   -710519.21223
  23825583.5814    -456697.82445   -249803.34261
  22967374.7614   11148852.04245   8687402.26361
  20760802.034   -19577427.393 7 -15199330.43723
 91  4 30 22 25 14.9990000  0  5G13G 2G15G19G 6
  22828977.3944   -5126586.43645  -2845211.41161
  20439910.659     -933163.167 8   -709377.88123
  23821705.511     -477062.038 5   -265671.48321
  22974230.1124   11184892.51545   8715485.65461
  20756606.128   -19599488.097 7 -15216520.56822
 91  4 30 22 25 29.9990000  0  5G13G 2G15G19G 6
  22817579.9254   -5186464.04345  -2891869.08861
  20440204.198     -931623.538 8   -708178.15423
  23817859.769     -497298.703 5   -281440.23821
  22981103.558    11221008.232 5   8743627.66721
  20752421.5894  -19621476.79847 -15233654.59562
 91  4 30 22 25 44.9990000  0  5G13G 2G15G19G 6
  22806202.394    -5246267.696 5  -2938469.11821
  20440510.511     -930009.279 8   -706920.27723
  23814030.245     -517407.480 5   -297109.35921
  22987991.550    11257198.896 5   8771828.10421
  20748251.0114  -19643393.47947 -15250732.50063
 91  4 30 22 25 59.9990000  0  5G13G 2G15G19G 6
  22794830.925    -5305994.945 5  -2985009.61921
  20440832.206     -928318.370 8   -705602.67523
  23810227.167     -537386.167 5   -312677.13021
  22994894.0814   11293466.49345   8800088.47561
  20744093.1054  -19665235.88847 -15267752.52663
 91  4 30 22 26 14.9990000  0  5G13G 2G15G19G 6
  22783479.878    -5365648.984 5  -3031493.07921
  20441168.495     -926554.365 8   -704228.11323
  23806450.5424    -557238.21045   -328146.18961
  23001807.0734   11329807.25345   8828405.85261
  20739950.1364  -19687007.25247 -15284717.19863
 91  4 30 22 26 29.9990000  0  5G13G 2G15G19G 6
  22772143.7374   -5425227.71945  -3077917.85561
  20441518.284     -924715.813 7   -702795.46523
  23802697.690     -576961.720 5   -343515.09021
  23008739.5654   11366223.07545   8856781.72361
  20735823.019   -19708705.878 7 -15301625.19023
 91  4 30 22 26 44.9990000  0  5G13G 2G15G19G 6
  22760823.151    -5484731.135 5  -3124283.93021
  20441882.605     -922803.336 7   -701305.21023
  23798965.6284    -596556.86045   -358783.93061
  23015681.4804   11402713.16445   8885215.48261
  20731708.9724  -19730332.16147 -15318476.81063
 91  4 30 22 26 59.9990000  0  5G13G 2G15G19G 6
  22749514.667    -5544157.278 5  -3170589.81821
  20442260.2374    -920814.94047   -699755.80263
  23795262.8704    -616021.57745   -373951.15261
  23022638.3314   11439279.40945   8913708.55061
  20727605.2064  -19751883.79947 -15335270.26663
 91  4 30 22 27 14.9990000  0  5G13G 2G15G19G 6
  22738220.730    -5603503.911 5  -3216833.72821
  20442652.362     -918749.153 7   -698146.08523
  23791586.1674    -635353.90746   -389015.22761
  23029613.308    11475923.267 5   8942262.13621
  20723518.417   -19773358.743 7 -15352003.96123
 91  4 30 22 27 29.9990000  0  5G13G 2G15G19G 6
  22726940.542    -5662779.551 5  -3263022.32821
  20443059.206     -916614.734 7   -696482.89123
  23787927.0034    -654562.22646   -403982.67361
  23036597.409    11512636.049 5   8970869.41121
  20719444.6594  -19794765.71947 -15368684.68763
 91  4 30 22 27 44.9990000  0  5G13G 2G15G19G 6
  22715676.2224   -5721977.52345  -3309150.39161
  20443478.261     -914405.816 7   -694761.65023
  23784300.214     -673640.372 5   -418848.69921
  23043598.190    11549423.659 5   8999535.00121
  20715386.2304  -19816098.50247 -15385307.60763
 91  4 30 22 27 59.9990000  0  5G13G 2G15G19G 6
  22704422.105    -5781102.492 5  -3355221.57721
  20443912.4014    -912127.32647   -692986.18863
  23780689.2064    -692592.99845   -433616.90861
  23050614.9094   11586281.20145   9028255.09961
  20711338.847   -19837361.905 7 -15401876.46823
 91  4 30 22 28 14.9990000  0  5G13G 2G15G19G 6
  22693184.464    -5840154.623 5  -3401236.04321
  20444360.0814    -909779.94647   -691157.05463
  23777109.8234    -711420.20945   -448287.41661
  23057639.597    11623207.966 5   9057029.13321
  20707304.042   -19858556.189 7 -15418391.47023
 91  4 30 22 28 29.9990000  0  5G13G 2G15G19G 6
  22681961.737    -5899131.995 5  -3447192.20821
  20444819.5194    -907362.20648   -689273.09163
  23773549.042     -730120.405 5   -462858.94221
  23064681.8314   11660205.47045   9085858.26061
  20703288.886   -19879679.395 7 -15434851.08523
 91  4 30 22 28 44.9990000  0  5G13G 2G15G19G 6
  22670755.2224   -5958029.61545  -3493086.23561
  20445293.1984    -904869.38348   -687330.62363
  23770017.2534    -748688.32445   -477327.37461
  23071736.636    11697278.514 5   9114746.27821
  20699278.980   -19900726.533 7 -15451251.42923
 91  4 30 22 28 59.9990000  0  5G13G 2G15G19G 6
  22659558.987    -6016850.951 5  -3538920.82221
  20445782.5264    -902305.19848   -685332.54863
  23766509.667     -767127.535 5   -491695.54521
  23078804.683    11734423.294 5   9143690.16921
  20695289.1674  -19921701.30247 -15467595.37563
 91  4 30 22 29 14.9990000  0  5G13G 2G15G19G 6
  22648382.003    -6075599.372 5  -3584698.58921
  20446282.7374    -899673.79748   -683282.09563
  23763020.2694    -785441.76545   -505966.32461
  23085885.815    11771635.515 5   9172686.62421
  20691311.206   -19942607.590 7 -15483885.96823
 91  4 30 22 29 29.9990000  0  5G13G 2G15G19G 6
  22637216.8864   -6134270.14145  -3630415.82961
  20446798.0114    -896970.95248   -681175.97463
  23759560.472     -803626.476 5   -520136.14021
  23092982.081    11808919.727 5   9201739.17421
  20687348.315   -19963440.673 7 -15500119.51423
 91  4 30 22 29 44.9990000  0  5G13G 2G15G19G 6
  22626066.948    -6192862.001 5  -3676071.63921
  20447325.042     -894195.787 8   -679013.49723
  23756126.683     -821680.599 5   -534204.21321
  23100089.120    11846276.552 5   9230848.31221
  20683396.128   -19984199.624 7 -15516295.29923
 91  4 30 22 29 59.9990000  0  5G13G 2G15G19G 6
  22614929.948    -6251377.472 5  -3721667.89121
  20447868.4094    -891351.35548   -676797.05063
  23752716.386     -839606.804 6   -548172.63421
  23107212.034    11883703.007 5   9260011.69621
  20679460.050   -20004886.784 7 -15532415.13623
 91  4 30 22 30 14.9990000  0  5G13G 2G15G19G 6
  22603810.401    -6309815.185 5  -3767203.53921
  20448419.042     -888436.809 8   -674525.96223
  23749326.628     -857403.914 5   -562040.41521
  23114348.3084   11921199.96545   9289230.01561
  20675536.089   -20025501.237 7 -15548478.31923
 91  4 30 22 30 29.9990000  0  5G13G 2G15G19G 6
  22592704.722    -6368171.518 5  -3812675.78521
  20448991.464     -885448.906 8   -672197.71723
  23745966.612     -875068.224 6   -575804.74721
  23121497.1904   11958770.65945   9318505.82861
  20671628.925   -20046039.564 7 -15564482.18623
 91  4 30 22 30 44.9990000  0  5G13G 2G15G19G 6
  22581614.9954   -6426450.57245  -3858087.80661
  20449571.284     -882392.207 8   -669815.86223
  23742627.136     -892603.972 5   -589468.86621
  23128658.2534   11996410.49345   9347835.47261
  20667734.4564  -20066505.92447 -15580429.97263
 91  4 30 22 30 59.9990000  0  5G13G 2G15G19G 6
  22570537.6284   -6484654.63545  -3903441.39661
  20450165.753     -879269.391 8   -667382.48823
  23739318.073     -910013.645 5   -603034.78621
  23135834.839    12034116.856 5   9377216.95821
  20663853.261   -20086902.750 7 -15596323.58023
 91  4 30 22 31 14.9990000  0  5G13G 2G15G19G 6
  22559476.6904   -6542783.67345  -3948736.52961
  20450769.987     -876081.036 8   -664898.05023
  23736027.1904    -927297.30345   -616502.48461
  23143023.6594   12071889.22245   9406649.91061
  20659985.386   -20107230.083 7 -15612163.03123
 91  4 30 22 31 29.9990000  0  5G13G 2G15G19G 6
  22548427.9254   -6600832.43045  -3993969.11461
  20451391.870     -872822.284 8   -662358.74723
  23732760.151     -944450.100 5   -629868.22721
  23150222.058    12109732.366 5   9436137.97621
  20656129.448   -20127482.772 7 -15627944.32523
 91  4 30 22 31 44.9990000  0  5G13G 2G15G19G 6
  22537400.480    -6658808.050 6  -4039144.71521
  20452023.3004    -869500.60848   -659770.41963
  23729521.3004    -961479.00445   -643137.46161
  23157436.0584   12147638.94645   9465675.47261
  20652289.534   -20147668.221 7 -15643673.22323
 91  4 30 22 31 59.9990000  0  5G13G 2G15G19G 6
  22526382.7924   -6716706.23745  -4084259.95961
  20452669.331     -866112.238 8   -657130.12323
  23726303.894     -978379.863 5   -656306.91021
  23164664.011    12185612.605 5   9495265.25721
  20648461.034   -20167782.246 7 -15659346.46723
 91  4 30 22 32 14.9990000  0  5G13G 2G15G19G 6
  22515379.800    -6774520.778 6  -4129310.03421
  20453327.6514    -862651.37848   -654433.34263
  23723116.120     -995146.451 5   -669371.71521
  23171900.558    12223659.325 5   9524911.93821
  20644649.956   -20187818.907 7 -15674959.42723
 91  4 30 22 32 29.9990000  0  5G13G 2G15G19G 6
  22504392.909    -6832255.736 5  -4174298.10521
  20453999.214     -859122.711 8   -651683.72223
  23719951.4014   -1011783.30845   -682335.43361
  23179158.026    12261774.054 5   9554611.65821
  20640849.987   -20207782.369 7 -15690515.34823
 91  4 30 22 32 44.9990000  0  5G13G 2G15G19G 6
  22493421.808    -6889907.970 6  -4219221.72821
  20454684.5034    -855523.41948   -648879.06663
  23716813.9874   -1028287.21046   -695195.53161
  23186421.0814   12299959.85945   9584366.75661
  20637065.284   -20227669.566 7 -15706011.84523
 91  4 30 22 32 59.9990000  0  5G13G 2G15G19G 6
  22482465.394    -6947477.969 6  -4264081.24921
  20455382.1834    -851854.37248   -646020.06463
  23713697.1364   -1044658.69246   -707952.46261
  23193703.120    12338215.879 5   9614176.53821
  20633295.128   -20247481.004 7 -15721449.30823
 91  4 30 22 33 14.9990000  0  5G13G 2G15G19G 6
  22471525.714    -7004965.670 5  -4308876.63121
  20456093.4564    -848116.07548   -643107.09663
  23710602.1754   -1060898.18745   -720606.52061
  23200994.269    12376541.503 5   9644040.57721
  20629540.659   -20267217.185 7 -15736828.12723
 91  4 30 22 33 29.9990000  0  5G13G 2G15G19G 6
  22460599.620    -7062374.002 5  -4353610.20821
  20456818.2534    -844312.05348   -640142.91463
  23707535.9724   -1077008.64746   -733160.03361
  23208304.315    12414933.446 5   9673956.29621
  20625796.636   -20286881.095 7 -15752150.63723
 91  4 30 22 33 44.9990000  0  5G13G 2G15G19G 6
  22449690.1904   -7119702.47745  -4398281.52761
  20457552.8394    -840441.97748   -637127.26663
  23704500.276    -1092989.543 6   -745612.61921
  23215620.847    12453391.804 5   9703923.77721
  20622068.026   -20306472.202 7 -15767416.41023
 91  4 30 22 33 59.9990000  0  5G13G 2G15G19G 6
  22438797.6364   -7176948.33646  -4442888.49361
  20458302.9954    -836503.63248   -634058.41763
  23701482.628    -1108838.319 6   -757962.22221
  23222950.315    12491918.701 5   9733944.65321
  20618355.917   -20325987.952 7 -15782623.46523
 91  4 30 22 34 14.9990000  0  5G13G 2G15G19G 6
  22427920.128    -7234107.956 5  -4487428.24021
  20459066.894     -832493.871 8   -630933.91723
  23698492.2534   -1124551.55845   -770206.21761
  23230298.636    12530517.379 5   9764021.45421
  20614657.519   -20345424.969 7 -15797769.17523
 91  4 30 22 34 29.9990000  0  5G13G 2G15G19G 6
  22417057.0344   -7291185.91345  -4531904.35861
  20459843.4804    -828417.79048   -627757.74063
  23695525.058    -1140134.138 5   -782348.40621
  23237660.2764   12569182.76845   9794150.23861
  20610972.776   -20364787.932 7 -15812857.17923
 91  4 30 22 34 44.9990000  0  5G13G 2G15G19G 6
  22406213.870    -7348184.475 5  -4576318.63521
  20460628.261     -824278.066 8   -624531.96923
  23692583.425    -1155588.222 5   -794390.46721
  23245029.5584   12607912.21745   9824328.97161
  20607301.737   -20384079.258 7 -15827889.36123
 91  4 30 22 34 59.9990000  0  5G13G 2G15G19G 6
  22395382.565    -7405103.048 5  -4620670.56321
  20461428.6674    -820074.55348   -621256.49963
  23689669.7144   -1170913.57445   -806332.20861
  23252406.9644   12646705.75445   9854557.62561
  20603643.425   -20403298.533 7 -15842865.39523
 91  4 30 22 35 14.9990000  0  5G13G 2G15G19G 6
  22384568.308    -7461937.077 6  -4664956.60921
  20462242.3474    -815803.19948   -617928.16363
  23686776.956    -1186105.715 5   -818170.19321
  23259801.120    12685567.387 5   9884839.29521
  20600001.151   -20422441.290 7 -15857781.81023
 91  4 30 22 35 29.9990000  0  5G13G 2G15G19G 6
  22373764.6444   -7518684.68046  -4709175.31461
  20463068.698     -811462.451 8   -614545.74923
  23683912.5734   -1201162.83645   -829902.94261
  23267213.847    12724498.797 5   9915175.36021
  20596375.003   -20441505.762 7 -15872637.22823
 91  4 30 22 35 44.9990000  0  5G13G 2G15G19G 6
  22362984.550    -7575353.362 6  -4753332.51221
  20463907.8084    -807060.22448   -611115.43363
  23681073.253    -1216092.431 5   -841536.32921
  23274630.9404   12763491.88645   9945559.50761
  20592760.620   -20460499.709 7 -15887437.67523
 91  4 30 22 35 59.9990000  0  5G13G 2G15G19G 6
  22352211.230    -7631941.455 5  -4797426.96021
  20464756.5584    -802595.05748   -607636.07463
  23678255.636    -1230892.786 5   -853068.98421
  23282064.151    12802548.228 5   9975992.93521
  20589159.440   -20479421.104 7 -15902181.59823
 91  4 30 22 36 14.9990000  0  5G13G 2G15G19G 6
  22341463.940    -7688442.866 6  -4841453.82521
  20465619.1754    -798061.70048   -604103.57663
  23675460.1054   -1245558.09046   -864496.43361
  23289507.1984   12841673.07845  10006479.73661
  20585571.464   -20498264.620 7 -15916864.83323
 91  4 30 22 36 29.9990000  0  5G13G 2G15G19G 6
  22330728.1834   -7744859.09945  -4885414.33761
  20466494.9174    -793462.18848   -600519.53563
  23672695.105    -1260090.402 6   -875820.23921
  23296969.378    12880864.465 5  10037018.37421
  20582002.370   -20517031.817 7 -15931488.59823
 91  4 30 22 36 44.9990000  0  5G13G 2G15G19G 6
  22320006.1834   -7801190.50245  -4929308.75061
  20467382.9014    -788797.06048   -596884.35963
  23669959.7764   -1274490.07146   -887040.69261
  23304435.6754   12920121.55245  10067608.22461
  20578444.511   -20535723.229 7 -15946053.31523
 91  4 30 22 36 59.9990000  0  5G13G 2G15G19G 6
  22309306.0734   -7857439.23746  -4973138.73961
  20468280.8004    -784068.89648   -593200.06763
  23667244.737    -1288759.264 6   -898159.45821
  23311920.948    12959442.059 5  10098247.47721
  20574903.644   -20554340.854 7 -15960560.53423
 91  4 30 22 37 14.9990000  0  5G13G 2G15G19G 6
  22298617.5034   -7913603.01546  -5016902.54961
  20469194.5814    -779275.90448   -589465.26063
  23664556.3314   -1302895.94246   -909174.97261
  23319414.714    12998827.690 5  10128937.50021
  20571374.167   -20572882.565 7 -15975008.59823
 91  4 30 22 37 29.9990000  0  5G13G 2G15G19G 6
  22287943.3234   -7969676.70046  -5060596.14161
  20470119.8784    -774413.31148   -585676.22063
  23661886.589    -1316895.099 5   -920083.36121
  23326922.1834   13038283.04045  10159681.82961
  20567860.683   -20591343.578 7 -15989393.78623
 91  4 30 22 37 44.9990000  0  5G13G 2G15G19G 6
  22277290.1984   -8025667.36346  -5104225.05161
  20471055.0194    -769488.85748   -581838.97663
  23659247.026    -1330763.914 5   -930890.15821
  23334441.323    13077800.304 5  10190474.41421
  20564361.808   -20609731.203 7 -16003721.78123
 91  4 30 22 37 59.9990000  0  5G13G 2G15G19G 6
  22266651.6834   -8081568.70646  -5147784.35161
  20472006.5654    -764496.54748   -577948.85963
  23656633.167    -1344496.149 5   -941590.52921
  23341978.5114   13117385.41045  10221319.85161
  20560876.878   -20628039.016 7 -16017987.58623
 91  4 30 22 38 14.9990000  0  5G13G 2G15G19G 6
  22256034.253    -8137382.387 6  -5191275.33521
  20472969.5264    -759438.42648   -574007.46263
  23654046.5194   -1358093.73845   -952186.01561
  23349519.355    13157036.388 5  10252216.63121
  20557409.573   -20646268.977 7 -16032192.73223
 91  4 30 22 38 29.9990000  0  5G13G 2G15G19G 6
  22245426.925    -8193105.686 6  -5234695.90821
  20473943.8474    -754312.32648   -570013.09063
  23651489.8554   -1371554.22745   -962674.63861
  23357079.823    13196755.428 5  10283166.42221
  20553953.690   -20664418.564 7 -16046335.24823
 91  4 30 22 38 44.9990000  0  5G13G 2G15G19G 6
  22234838.417    -8248741.430 6  -5278048.25121
  20474930.1904    -749121.52448   -565968.30563
  23648950.644    -1384880.451 5   -973058.64921
  23364648.534    13236539.378 5  10314166.79621
  20550515.058   -20682490.560 7 -16060417.29923
 91  4 30 22 38 59.9990000  0  5G13G 2G15G19G 6
  22224270.042    -8304286.663 6  -5321330.06821
  20475932.8154    -743863.73948   -561871.32563
  23646444.0344   -1398069.95345   -983336.15261
  23372232.3394   13276390.55945  10345219.59961
  20547090.940   -20700482.464 7 -16074436.94223
 91  4 30 22 39 14.9990000  0  5G13G 2G15G19G 6
  22213718.2064   -8359744.08246  -5364543.47361
  20476943.8784    -738541.87348   -557724.41363
  23643954.9174   -1411125.59845   -993509.31261
  23379828.980    13316305.914 5  10376322.37121
  20543682.792   -20718397.012 7 -16088396.30823
 91  4 30 22 39 29.9990000  0  5G13G 2G15G19G 6
  22203181.3944   -8415113.83246  -5407688.54761
  20477968.5734    -733156.26048   -553527.82363
  23641495.3474   -1424047.32045  -1003578.12461
  23387438.542    13356284.857 5  10407474.69421
  20540290.487   -20736234.307 7 -16102295.47923
 91  4 30 22 39 44.9990000  0  5G13G 2G15G19G 6
  22192659.2764   -8470392.90846  -5450762.97261
  20479007.3944    -727704.39847   -549279.61263
  23639060.3234   -1436832.30545  -1013540.38661
  23395056.620    13396329.995 5  10438678.58521
  20536909.300   -20753991.528 7 -16116132.25823
 91  4 30 22 39 59.9990000  0  5G13G 2G15G19G 6
  22182160.1124   -8525583.05946  -5493768.11661
  20480057.1204    -722188.65647   -544981.62763
  23636657.1594   -1449482.35845  -1023397.51561
  23402688.4254   13436439.10445  10469932.33761
  20533546.003   -20771670.378 7 -16129907.96023
 91  4 30 22 40 14.9990000  0  5G13G 2G15G19G 6
  22171672.7694   -8580681.80946  -5536702.02961
  20481118.7614    -716606.96947   -540632.25663
  23634277.8234   -1461995.32146  -1033147.81461
  23410333.5894   13476614.16545  10501237.45061
  20530194.065   -20789268.660 7 -16143620.88823
 91  4 30 22 40 29.9990000  0  5G13G 2G15G19G 6
  22161203.917    -8635691.578 6  -5579566.62621
  20482191.3554    -710962.13947   -536233.67863
  23631916.9954   -1474373.76546  -1042793.28861
  23417992.558    13516852.306 5  10532591.76421
  20526862.394   -20806789.045 7 -16157273.11523
 91  4 30 22 40 44.9990000  0  5G13G 2G15G19G 6
  22150753.339    -8690605.994 6  -5622356.91421
  20483281.198     -705248.268 8   -531781.29923
  23629591.581    -1486611.353 6  -1052329.02821
  23425660.3394   13557159.41345  10563999.81461
  20523543.831   -20824225.356 7 -16170859.83123
 91  4 30 22 40 59.9990000  0  5G13G 2G15G19G 6
  22140320.464    -8745430.166 6  -5665076.87721
  20484379.573     -699470.917 8   -527279.45923
  23627293.644    -1498713.467 5  -1061759.18321
  23433342.3234   13597529.85545  10595457.16461
  20520240.362   -20841582.711 7 -16184385.02223
 91  4 30 22 41 14.9990000  0  5G13G 2G15G19G 6
  22129907.808    -8800159.801 6  -5707723.18621
  20485492.0814    -693626.16248   -522725.09863
  23625010.8554   -1510676.03545  -1071080.59861
  23441040.5034   13637967.68245  10626967.05461
  20516952.894   -20858856.830 7 -16197845.35423
 91  4 30 22 41 29.9990000  0  5G13G 2G15G19G 6
  22119510.628    -8854798.069 6  -5750298.28121
  20486616.933     -687717.876 8   -518121.22123
  23622764.339    -1522502.595 5  -1080296.04421
  23448748.222    13678468.836 4  10658526.29921
  20513682.628   -20876051.407 7 -16211243.70523
 91  4 30 22 41 44.9990000  0  5G13G 2G15G19G 6
  22109132.0194   -8909338.55746  -5792797.21361
  20487755.769     -681739.746 8   -513462.92323
  23620538.292    -1534186.633 5  -1089400.48121
  23456466.558    13719039.582 5  10690139.74221
  20510425.776   -20893159.780 7 -16224574.88623
 91  4 30 22 41 59.9990000  0  5G13G 2G15G19G 6
  22098769.5584   -8963786.98046  -5835224.40461
  20488903.925     -675697.864 8   -508754.94723
  23618342.636    -1545733.896 5  -1098398.29021
  23464199.097    13759673.793 5  10721802.67221
  20507183.230   -20910187.727 7 -16237843.39523
 91  4 30 22 42 14.9990000  0  5G13G 2G15G19G 6
  22088427.214    -9018138.420 6  -5877576.01121
  20490065.573     -669587.935 8   -503993.95323
  23616169.612    -1557139.841 5  -1107286.00821
  23471947.2224   13800375.84645  10753518.44661
  20503962.237   -20927130.831 7 -16251045.79423
 91  4 30 22 42 29.9990000  0  5G13G 2G15G19G 6
  22078099.237    -9072398.925 6  -5919856.76821
  20491239.776     -663416.418 8   -499184.96423
  23614025.495    -1568410.837 5  -1116068.55421
  23479703.073    13841139.193 5  10785281.98921
  20500752.940   -20943995.085 7 -16264186.74723
 91  4 30 22 42 44.9990000  0  5G13G 2G15G19G 6
  22067792.2304   -9126562.90846  -5962062.30561
  20492428.917     -657178.091 8   -494323.91923
  23611908.300    -1579541.375 5  -1124741.65221
  23487468.1444   13881968.88544  10817097.21161
  20497559.308   -20960775.156 7 -16277262.10823
 91  4 30 22 42 59.9990000  0  5G13G 2G15G19G 6
  22057504.073    -9180633.804 6  -6004195.31521
  20493627.753     -650876.813 8   -489413.80523
  23609817.3154   -1590534.99545  -1133308.05361
  23495256.9874   13922861.11844  10848961.18861
  20494379.972   -20977474.534 7 -16290274.58723
 91  4 30 22 43 14.9990000  0  5G13G 2G15G19G 6
  22047233.7374   -9234606.54746  -6046251.84561
  20494837.425     -644508.048 8   -484451.11523
  23607749.651    -1601386.868 5  -1141764.00921
  23503044.183    13963820.327 4  10880877.36621
  20491220.769   -20994088.486 7 -16303220.50023
 91  4 30 22 43 29.9990000  0  5G13G 2G15G19G 6
  22036983.2614   -9288483.46946  -6088233.70361
  20496064.456     -638074.823 8   -479438.19923
  23605710.3864   -1612099.56045  -1150111.49261
  23510854.3314   14004843.88345  10912843.63361
  20488073.901   -21010619.393 7 -16316101.70423
 91  4 30 22 43 44.9990000  0  5G13G 2G15G19G 6
  22026747.0034   -9342263.29446  -6130139.90361
  20497297.862     -631575.994 8   -474374.16623
  23603694.987    -1622671.770 5  -1158349.53821
  23518668.9094   14045932.62944  10944860.74561
  20484944.167   -21027065.775 7 -16328917.04523
 91  4 30 22 43 59.9990000  0  5G13G 2G15G19G 6
  22016532.5654   -9395944.44246  -6171969.20761
  20498548.550     -625010.304 8   -469258.03023
  23601716.8394   -1633102.14745  -1166477.05761
  23526504.9174   14087087.62645  10976929.44061
  20481831.026   -21043426.406 7 -16341665.56223
 91  4 30 22 44 14.9990000  0  5G13G 2G15G19G 6
  22006335.0504   -9449524.45946  -6213719.72461
  20499811.417     -618375.673 8   -464088.17623
  23599755.792    -1643388.415 5  -1174492.25321
  23534347.0654   14128310.93944  11009051.37861
  20478733.9094  -21059698.93447 -16354345.42663
 91  4 30 22 44 29.9990000  0  5G13G 2G15G19G 6
  21996157.058    -9503004.630 6  -6255392.40921
  20501086.190     -611674.012 7   -458866.09223
  23597824.4254   -1653532.08045  -1182396.35561
  23542210.5814   14169600.65445  11041225.09061
  20475654.097   -21075884.648 7 -16366957.64523
 91  4 30 22 44 44.9990000  0  5G13G 2G15G19G 6
  21986000.597    -9556388.209 6  -6296989.85921
  20502373.5814    -604908.81047   -453594.49763
  23595917.9874   -1663536.64545  -1190192.06061
  23550073.6754   14210953.29044  11073447.80861
  20472589.753   -21091987.062 7 -16379504.95823
 91  4 30 22 44 59.9990000  0  5G13G 2G15G19G 6
  21975860.948    -9609675.887 6  -6338512.55921
  20503672.003     -598080.991 7   -448274.10823
  23594044.8864   -1673402.61845  -1197879.74361
  23557960.8944   14252367.87045  11105718.79961
  20469540.526   -21108006.799 7 -16391987.84523
 91  4 30 22 45 14.9990000  0  5G13G 2G15G19G 6
  21965738.276    -9662864.190 6  -6379957.84621
  20504985.237     -591187.900 8   -442902.85623
  23592192.6054   -1683126.80545  -1205457.01161
  23565852.5584   14293847.15644  11138040.19461
  20466509.636   -21123940.739 7 -16404403.88023
 91  4 30 22 45 29.9990000  0  5G13G 2G15G19G 6
  21955635.269    -9715952.927 6  -6421325.52621
  20506307.9874    -584229.66347   -437480.84263
  23590371.745    -1692709.505 5  -1212923.97821
  23573754.987    14335390.950 5  11170411.85321
  20463494.792   -21139788.690 7 -16416752.91423
 91  4 30 22 45 44.9990000  0  5G13G 2G15G19G 6
  21945553.995    -9768941.841 6  -6462615.42221
  20507646.5584    -577206.76547   -432008.44763
  23588576.6834   -1702150.68745  -1220280.67661
  23581675.3234   14376998.76845  11202833.41661
  20460495.167   -21155550.736 7 -16429035.00223
 91  4 30 22 45 59.9990000  0  5G13G 2G15G19G 6
  21935486.151    -9821833.581 6  -6503829.60921
  20508994.2064    -570122.14748   -426487.95763
  23586805.1204   -1711453.03845  -1227529.21161
  23589604.8554   14418667.65344  11235302.56361
  20457510.386   -21171229.518 7 -16441252.21323
 91  4 30 22 46 14.9990000  0  5G13G 2G15G19G 6
  21925443.480    -9874621.211 6  -6544962.66121
  20510355.0894    -562968.91048   -420913.99963
  23585063.7374   -1720609.59845  -1234664.12861
  23597546.5734   14460404.27945  11267824.48561
  20454543.4334  -21186818.05147 -16453399.09563
 91  4 30 22 46 29.9990000  0  5G13G 2G15G19G 6
  21915416.128    -9927307.635 6  -6586016.85521
  20511727.737     -555750.204 8   -415289.01823
  23583348.5194   -1729623.33345  -1241687.78961
  23605499.4254   14502205.27345  11300396.58761
  20451594.7924  -21202319.30747 -16465477.96763
 91  4 30 22 46 44.9990000  0  5G13G 2G15G19G 6
  21905407.1204   -9979894.57046  -6626993.52561
  20513114.526     -548468.614 8   -409615.04123
  23581659.7374   -1738496.35045  -1248601.78561
  23613464.7304   14544068.27244  11333016.97261
  20448660.112   -21217735.230 7 -16477490.35223
 91  4 30 22 46 59.9990000  0  5G13G 2G15G19G 6
  21895419.792   -10032380.215 6  -6667891.27621
  20514510.7374    -541122.53048   -403890.81263
  23579997.003    -1747226.994 5  -1255404.87121
  23621443.7614   14585994.60744  11365686.70561
  20445745.167   -21233064.228 7 -16489435.00623
 91  4 30 22 47 14.9990000  0  5G13G 2G15G19G 6
  21885451.589   -10084767.516 6  -6708712.38421
  20515921.7304    -533715.38148   -398119.00363
  23578359.3234   -1755818.48945  -1262099.50061
  23629436.612    14627980.724 4  11398403.04821
  20442842.753   -21248309.397 7 -16501314.33923
 91  4 30 22 47 29.9990000  0  5G13G 2G15G19G 6
  21875499.7694  -10137049.52446  -6749451.46161
  20517344.8394    -526240.77348   -392294.62763
  23576752.4954   -1764263.90545  -1268680.30861
  23637434.776    14670033.418 4  11431171.24121
  20439959.386   -21263463.881 7 -16513123.01123
 91  4 30 22 47 44.9990000  0  5G13G 2G15G19G 6
  21865573.378   -10189230.805 6  -6790112.02421
  20518778.339     -518703.718 8   -386421.58723
  23575178.855    -1772568.461 5  -1275151.35121
  23645449.065    14712147.467 5  11463987.26321
  20437090.690   -21278532.490 7 -16524864.76023
 91  4 30 22 47 59.9990000  0  5G13G 2G15G19G 6
  21855665.386   -10241310.678 6  -6830693.59021
  20520225.6754    -511103.56248   -380499.37963
  23573626.6204   -1780731.28545  -1281511.93161
  23653475.097    14754323.363 4  11496851.52421
  20434240.339   -21293514.414 7 -16536538.97023
 91  4 30 22 48 14.9990000  0  5G13G 2G15G19G 6
  21845773.5814  -10293287.05646  -6871194.50061
  20521684.9094    -503438.82148   -374526.84763
  23572095.980    -1788750.696 5  -1287760.76521
  23661516.347    14796562.521 4  11529765.02521
  20431406.526   -21308407.862 7 -16548144.24023
 91  4 30 22 48 29.9990000  0  5G13G 2G15G19G 6
  21835898.5194  -10345160.70946  -6911615.37861
  20523153.9334    -495710.85548   -368505.05063
  23570593.315    -1796627.597 5  -1293898.56821
  23669565.745    14838863.716 4  11562726.87221
  20428589.698   -21323213.715 7 -16559681.24823
 91  4 30 22 48 44.9990000  0  5G13G 2G15G19G 6
  21826046.136   -10396935.124 6  -6951958.91221
  20524634.2224    -487923.62348   -362437.07263
  23569123.378    -1804365.587 5  -1299928.14021
  23677626.2764   14881222.92945  11595733.91661
  20425787.855   -21337935.536 7 -16571152.78023
 91  4 30 22 48 59.9990000  0  5G13G 2G15G19G 6
  21816213.4254  -10448606.89946  -6992222.47561
  20526128.4484    -480073.78348   -356320.30763
  23567676.8084   -1811961.01345  -1305846.60961
  23685700.847    14923643.429 4  11628788.71921
  20423003.878   -21352569.857 7 -16582556.12823
 91  4 30 22 49 14.9990000  0  5G13G 2G15G19G 6
  21806400.105   -10500178.763 6  -7032408.18121
  20527632.5114    -472164.54047   -350157.25163
  23566263.6514   -1819417.25845  -1311656.62761
  23693782.940    14966121.872 5  11661888.67321
  20420234.480   -21367119.507 7 -16593893.50023
 91  4 30 22 49 29.9990000  0  5G13G 2G15G19G 6
  21796606.9254  -10551647.01546  -7072513.14261
  20529152.6904    -464192.50648   -343945.27663
  23564866.581    -1826730.786 5  -1317355.43921
  23701875.948    15008661.454 4  11695036.31221
  20417481.605   -21381581.035 7 -16605162.20823
 91  4 30 22 49 44.9990000  0  5G13G 2G15G19G 6
  21786830.5814  -10603012.17446  -7112537.79661
  20530679.730     -456158.940 7   -337685.33823
  23563501.4724   -1833902.58345  -1322943.79661
  23709983.0344   15051260.92244  11728230.54561
  20414747.401   -21395955.388 7 -16616362.98323
 91  4 30 22 49 59.9990000  0  5G13G 2G15G19G 6
  21777076.690   -10654272.010 6  -7152480.35321
  20532221.214     -448061.815 8   -331375.87723
  23562166.808    -1840930.279 6  -1328419.87021
  23718102.6834   15093922.31744  11761473.06461
  20412029.620   -21410240.099 7 -16627493.90823
 91  4 30 22 50 14.9990000  0  5G13G 2G15G19G 6
  21767340.7374  -10705431.77846  -7192344.95461
  20533773.019     -439906.837 7   -325021.34123
  23560857.1514   -1847819.31145  -1333787.92361
  23726232.495    15136639.916 4  11794759.39221
  20409325.558   -21424440.610 7 -16638559.21923
 91  4 30 22 50 29.9990000  0  5G13G 2G15G19G 6
  21757623.6514  -10756492.39246  -7232132.30461
  20535334.3944    -431695.42747   -318622.82963
  23559571.4484   -1854571.03845  -1339048.94761
  23734370.5344   15179412.36144  11828088.40661
  20406641.120   -21438558.069 7 -16649559.81523
 91  4 30 22 50 44.9990000  0  5G13G 2G15G19G 6
  21747930.6054  -10807444.57446  -7271835.15361
  20536908.565     -423418.449 7   -312173.22723
  23558312.8004   -1861176.26045  -1344195.83561
  23742520.433    15222248.535 4  11861467.11721
  20403971.394   -21452583.076 7 -16660488.36923
 91  4 30 22 50 59.9990000  0  5G13G 2G15G19G 6
  21738255.5654  -10858291.09546  -7311455.66361
  20538498.4724    -415079.42848   -305675.27963
  23557083.659    -1867637.959 5  -1349230.85021
  23750686.409    15265145.035 4  11894892.86221
  20401319.761   -21466518.695 7 -16671347.27323
 91  4 30 22 51 14.9990000  0  5G13G 2G15G19G 6
  21728597.8704  -10909029.92146  -7350992.26461
  20540096.0654    -406676.52248   -299127.55463
  23555881.7534   -1873954.07045  -1354152.46561
  23758862.612    15308103.720 4  11928367.05121
  20398683.495   -21480362.819 7 -16682134.89023
 91  4 30 22 51 29.9990000  0  5G13G 2G15G19G 6
  21718962.5584  -10959662.11246  -7390445.76861
  20541708.3154    -398211.11548   -292531.12563
  23554706.6984   -1880126.02245  -1358961.72661
  23767048.175    15351123.029 4  11961888.45721
  20396064.472   -21494116.742 7 -16692852.20423
 91  4 30 22 51 44.9990000  0  5G13G 2G15G19G 6
  21709348.5194  -11010187.89446  -7429816.36061
  20543331.3554    -389683.95348   -285886.57563
  23553561.222    -1886154.047 5  -1363658.84221
  23775246.323    15394202.013 4  11995456.36421
  20393467.245   -21507780.922 7 -16703499.59923
 91  4 30 22 51 59.9990000  0  5G13G 2G15G19G 6
  21699753.683   -11060608.611 6  -7469105.08921
  20544963.6124    -381096.54548   -279195.07863
  23552440.7374   -1892039.56145  -1368244.91861
  23783451.1834   15437339.09744  12029069.58161
  20390883.433   -21521356.607 7 -16714078.03423
 91  4 30 22 52 14.9990000  0  5G13G 2G15G19G 6
  21690181.612   -11110922.535 6  -7508310.60521
  20546609.417     -372447.790 8   -272455.78123
  23551348.745    -1897781.371 5  -1372719.01821
  23791671.8624   15480535.45244  12062728.91661
  20388317.355   -21534842.138 7 -16724586.22523
 91  4 30 22 52 29.9990000  0  5G13G 2G15G19G 6
  21680626.730   -11161127.595 6  -7547431.29221
  20548266.464     -363735.928 8   -265667.30523
  23550282.456    -1903377.770 5  -1377079.82221
  23799904.456    15523792.873 4  12096435.90121
  20385768.589   -21548235.517 7 -16735022.59923
 91  4 30 22 52 44.9990000  0  5G13G 2G15G19G 6
  21671092.980   -11211226.441 6  -7586469.21921
  20549937.1984    -354963.95848   -258831.99763
  23549244.698    -1908831.337 5  -1381329.33121
  23808148.2304   15567107.98244  12130187.78561
  20383238.464   -21561539.650 7 -16745389.44523
 91  4 30 22 52 59.9990000  0  5G13G 2G15G19G 6
  21661577.237   -11261216.324 6  -7625422.23421
  20551617.2454    -346129.60347   -251948.06863
  23548235.581    -1914139.534 5  -1385465.56321
  23816397.940    15610483.308 4  12163986.61421
  20380723.339   -21574751.761 7 -16755684.58123
 91  4 30 22 53 14.9990000  0  5G13G 2G15G19G 6
  21652083.620   -11311096.127 6  -7664289.47621
  20553310.3394    -337232.19548   -245015.02563
  23547249.3624   -1919301.41545  -1389487.80561
  23824662.9724   15653919.19143  12197832.63261
  20378227.792   -21587871.102 7 -16765907.42923
 91  4 30 22 53 29.9990000  0  5G13G 2G15G19G 6
  21642615.519   -11360863.721 6  -7703069.28721
  20555018.7614    -328269.94048   -238031.44263
  23546300.151    -1924315.298 5  -1393394.69821
  23832941.761    15697417.465 3  12231727.25721
  20375747.300   -21600895.547 7 -16776056.32623
 91  4 30 22 53 44.9990000  0  5G13G 2G15G19G 6
  21633166.565   -11410525.212 6  -7741766.42321
  20556733.4404    -319249.40847   -231002.44763
  23545366.1364   -1929187.32145  -1397191.08161
  23841229.0034   15740971.65044  12265665.46061
  20373286.362   -21613831.286 7 -16786136.10323
 91  4 30 22 53 59.9990000  0  5G13G 2G15G19G 6
  21623738.409   -11460077.170 6  -7780378.19421
  20558460.7374    -310167.49147   -223925.62263
  23544472.8004   -1933914.42645  -1400874.49961
  23849532.7694   15784584.54144  12299649.39861
  20370840.511   -21626674.868 7 -16796144.06523
 91  4 30 22 54 14.9990000  0  5G13G 2G15G19G 6
  21614328.651   -11509521.987 6  -7818906.49221
  20560200.3554    -301026.91947   -216803.09063
  23543595.808    -1938499.073 5  -1404446.93121
  23857841.2614   15828253.55644  12333677.06861
  20368413.245   -21639428.887 7 -16806082.24123
 91  4 30 22 54 29.9990000  0  5G13G 2G15G19G 6
  21604939.1054  -11558849.38846  -7857343.30261
  20561953.0114    -291817.95447   -209627.26563
  23542753.2304   -1942931.15845  -1407900.46961
  23866163.0654   15871988.36444  12367755.98961
  20366006.683   -21652083.087 7 -16815942.63923
 91  4 30 22 54 44.9990000  0  5G13G 2G15G19G 6
  21595574.589   -11608066.873 6  -7895694.45821
  20563718.5344    -282548.14948   -202404.03263
  23541935.8474   -1947218.29145  -1411241.07261
  23874496.534    15915781.081 4  12401880.08021
  20363616.300   -21664645.107 7 -16825731.20723
 91  4 30 22 54 59.9990000  0  5G13G 2G15G19G 6
  21586230.0194  -11657170.95246  -7933957.24761
  20565493.6124    -273214.62147   -195131.14663
  23541153.6284   -1951357.40245  -1414466.33061
  23882846.089    15959634.753 4  12436051.64221
  20361245.972   -21677111.490 7 -16835445.25623
 91  4 30 22 55 14.9990000  0  5G13G 2G15G19G 6
  21576907.6514  -11706162.05346  -7972131.99061
  20567281.4014    -263818.23047   -187809.27463
  23540392.394    -1955348.972 5  -1417576.62421
  23891200.3394   16003548.59744  12470270.08361
  20358891.315   -21689482.777 7 -16845085.20023
 91  4 30 22 55 29.9990000  0  5G13G 2G15G19G 6
  21567604.855   -11755040.350 6  -8010218.84221
  20569080.4954    -254359.59048   -180438.90063
  23539661.230    -1959193.700 5  -1420572.48321
  23899569.081    16047521.574 4  12504534.59921
  20356554.394   -21701759.468 7 -16854651.43323
 91  4 30 22 55 44.9990000  0  5G13G 2G15G19G 6
  21558326.1754  -11803808.04146  -8048219.50961
  20570894.3234    -244841.17348   -173021.94663
  23538958.190    -1962893.625 5  -1423455.52021
  23907941.3784   16091551.44443  12538843.46461
  20354235.175   -21713943.634 7 -16864145.57523
 91  4 30 22 55 59.9990000  0  5G13G 2G15G19G 6
  21549068.480   -11852464.001 6  -8086133.11821
  20572714.5344    -235262.27248   -165557.85563
  23538279.2764   -1966447.98545  -1426225.11261
  23916333.5584   16135638.66743  12573197.01861
  20351936.112   -21726034.330 7 -16873566.87523
 91  4 30 22 56 14.9990000  0  5G13G 2G15G19G 6
  21539832.597   -11901003.907 6  -8123956.28921
  20574550.3784    -225618.83948   -158043.48463
  23537630.362    -1969852.683 5  -1428878.10821
  23924736.909    16179787.147 3  12607598.28821
  20349653.480   -21738027.320 7 -16882912.04623
 91  4 30 22 56 29.9990000  0  5G13G 2G15G19G 6
  21530615.2534  -11949429.56146  -8161690.44461
  20576398.9094    -215912.98648   -150480.47763
  23537009.6674   -1973109.60545  -1431415.94961
  23933148.0504   16223994.57643  12642045.49361
  20347388.331   -21749924.337 7 -16892182.42623
 91  4 30 22 56 44.9990000  0  5G13G 2G15G19G 6
  21521421.9564  -11997739.09046  -8199334.09661
  20578256.2844    -206143.33548   -142867.75563
  23536421.7144   -1976217.04945  -1433837.31761
  23941576.683    16268262.390 3  12676539.74921
  20345143.995   -21761723.783 7 -16901376.78023
 91  4 30 22 56 59.9990000  0  5G13G 2G15G19G 6
  21512252.917   -12045925.886 6  -8236882.13321
  20580128.769     -196303.630 8   -135200.43923
  23535856.065    -1979168.924 5  -1436137.44621
  23950013.222    16312596.841 3  12711085.91521
  20342918.300   -21773419.050 7 -16910489.95523
 91  4 30 22 57 14.9990000  0  5G13G 2G15G19G 6
  21503105.511   -12093995.503 6  -8274338.83821
  20582012.933     -186399.672 8   -127483.06323
  23535328.714    -1981970.808 5  -1438320.70421
  23958456.3554   16356992.10143  12745679.46761
  20340710.144   -21785015.694 7 -16919526.28323
 91  4 30 22 57 29.9990000  0  4G13G 2G15G 6
  21493979.909   -12141949.473 6  -8311705.43021
  20583908.8864    -176433.41248   -119717.14663
  23534818.456    -1984624.568 5  -1440388.55221
  20338522.644   -21796515.523 7 -16928487.16923
 91  4 30 22 57 44.9990000  0  4G13G 2G15G 6
  21484873.4014  -12189784.47246  -8348979.33461
  20585818.4334    -166401.95348   -111900.41563
  23534342.9174   -1987127.03046  -1442338.48961
  20336351.933   -21807915.112 7 -16937369.95223
 91  4 30 22 57 59.9990000  0  4G13G 2G15G 6
  21475794.9094  -12237499.41146  -8386159.68361
  20587739.9254    -156304.65648   -104032.38563
  23533894.690    -1989477.310 5  -1444169.84521
  20334203.128   -21819213.698 7 -16946174.02923
 91  4 30 22 58 14.9990000  0  4G13G 2G15G 6
  21466737.8474  -12285094.39046  -8423246.56061
  20589672.7454    -146141.79148    -96113.26163
  23533479.5894   -1991675.68945  -1445882.82661
  20332072.519   -21830411.245 7 -16954899.37723
 91  4 30 22 58 29.9990000  0  4G13G 2G15G 6
  21457705.3474  -12332569.33346  -8460239.89461
  20591620.4644    -135913.78848    -88143.38163
  23533089.1514   -1993722.23945  -1447477.51461
  20329960.823   -21841507.904 7 -16963546.10623
 91  4 30 22 58 44.9990000  0  4G13G 2G15G 6
  21448692.3234  -12379925.17346  -8497140.41761
  20593579.7304    -125622.11448    -80123.88963
  23532728.206    -1995618.328 5  -1448954.96521
  20327867.144   -21852504.772 7 -16972115.07623
 91  4 30 22 58 59.9990000  0  4G13G 2G15G 6
  21439705.808   -12427158.067 6  -8533945.14421
  20595550.4334    -115263.35748    -72052.12763
  23532399.5894   -1997360.17545  -1450312.21761
  20325796.026   -21863397.999 7 -16980603.28723
 91  4 30 22 59 14.9990000  0  4G13G 2G15G 6
  21430739.9404  -12474269.76646  -8570655.42861
  20597533.4874    -104839.40948    -63929.56663
  23532096.5584   -1998949.57845  -1451550.69861
  20323740.815   -21874189.462 7 -16989012.20423
 91  4 30 22 59 29.9990000  0  4G13G 2G15G 6
  21421797.1444  -12521257.34046  -8607269.00561
  20599530.6754     -94347.70548    -55754.21063
  23531824.050    -2000384.062 5  -1452668.44021
  20321707.980   -21884876.353 7 -16997339.63823
 91  4 30 22 59 44.9990000  0  4G13G 2G15G 6
  21412878.073   -12568128.173 6  -8643791.59421
  20601538.8704     -83795.97748    -47532.07763
  23531573.3704   -2001671.13445  -1453671.31361
  20319691.659   -21895466.062 7 -17005591.34223
 91  4 30 22 59 59.9990000  0  4G13G 2G15G 6
  21403982.917   -12614876.130 6  -8680218.44721
  20603559.0034     -73178.66248    -39258.83263
  23531361.815    -2002804.995 5  -1454554.82021
  20317697.675   -21905952.732 7 -17013762.76123
 91  4 30 23  0 14.9990000  0  4G13G 2G15G 6
  21395108.7534  -12661500.84846  -8716549.27561
  20605591.5344     -62495.53948    -30934.31963
  23531175.214    -2003785.568 5  -1455318.88421
  20315720.464   -21916335.881 7 -17021853.51923
 91  4 30 23  0 29.9990000  0  4G13G 2G15G 6
  21386262.2844  -12708000.97046  -8752783.00461
  20607637.8944     -51745.62248    -22557.75563
  23531019.6364   -2004611.70545  -1455962.60961
  20313765.245   -21926614.314 7 -17029862.66823
 91  4 30 23  0 44.9990000  0  4G13G 2G15G 6
  21377438.4334  -12754376.07846  -8788919.32961
  20609694.6754     -40928.88648    -14129.12463
  23530888.6444   -2005283.06145  -1456485.69161
  20311829.464   -21936787.546 7 -17037789.84523
 91  4 30 23  0 59.9990000  0  4G13G 2G15G 6
  21368635.1514  -12800626.16046  -8824958.23161
  20611766.5734     -30045.69948     -5648.71563
  23530789.5894   -2005799.97845  -1456888.46461
  20309912.440   -21946855.699 7 -17045635.14423
 91  4 30 23  1 14.9990000  0  4G13G 2G15G 6
  21359858.1674  -12846751.96546  -8860900.29361
  20613851.2144     -19097.05448      2882.70363
  23530716.1674   -2006163.28345  -1457171.50261
  20308015.8394  -21956819.54747 -17053399.17163
 91  4 30 23  1 29.9990000  0  4G13G 2G15G 6
  21351102.9484  -12892749.55546  -8896742.44461
  20615945.3084      -8079.36648     11467.92463
  23530682.4334   -2006369.20045
  20306142.440   -21966675.305 7 -17061078.96823
 91  4 30 23  1 44.9990000  0  4G13G 2G15G 6
  21342376.0114  -12938614.60646  -8932481.32061
  20618058.5504       3011.37648     20110.06563
  23530674.4254   -2006413.74245
  20304287.565   -21976418.673 7 -17068671.18923
 91  4 30 23  1 59.9990000  0  4G13G 2G15G 6
  21333674.808   -12984351.605 6  -8968120.41021
  20620180.1754      14170.16048     28805.22763
  23530693.8474   -2006301.80545
  20302455.300   -21986054.330 7 -17076179.47923
 91  4 30 23  2 14.9990000  0  4G13G 2G15G 6
  21324994.0584  -13029958.37046  -9003658.03761
  20622317.4334      25399.04548     37555.01163
  23530746.7694   -2006030.99745
  20300642.386   -21995579.956 7 -17083602.03123
 91  4 30 23  2 29.9990000  0  4G13G 2G15G 6
  21316338.308   -13075434.617 6  -9039093.96121
  20624466.6444      36697.69548     46359.15663
  23530828.1364   -2005601.68345
  20298849.495   -22004995.577 7 -17090938.86423
 91  4 30 23  2 44.9990000  0  4G13G 2G15G 6
  21307712.5114  -13120780.71646  -9074428.45461
  20626629.5894      48065.32548     55217.05563
  23530940.6984   -2005014.36845  -1456276.12061
  20297079.690   -22014301.801 7 -17098190.45223
 91  4 30 23  2 59.9990000  0  4G13G 2G15G 6
  21299106.6904  -13165994.96546  -9109660.22061
  20628805.9484      59503.48048     64129.90763
  23531079.9334   -2004267.51645  -1455694.11361
  20295328.448   -22023496.789 7 -17105355.36123
 91  4 30 23  3 14.9990000  0  4G13G 2G15G 6
  21290527.4174  -13211076.28946  -9144788.40861
  20630998.3084      71012.87148     73098.27263
  23531254.323    -2003360.407 5  -1454987.28121
  20293602.7534  -22032579.52347 -17112432.80363
 91  4 30 23  3 29.9990000  0  4G13G 2G15G 6
  21281975.2534  -13256024.52646  -9179812.88061
  20633201.8784      82593.33648     82122.01563
  23531452.6904   -2002292.86245  -1454155.43161
  20291893.159   -22041549.985 7 -17119422.76223
 91  4 30 23  3 44.9990000  0  4G13G 2G15G 6
  21273446.7304  -13300840.29346  -9214734.13261
  20635418.0344      94243.78648     91200.29263
  23531696.909    -2001066.133 5  -1453199.48121
  20290206.855   -22050408.943 7 -17126325.82723
 91  4 30 23  3 59.9990000  0  4G13G 2G15G 6
  21264941.5654  -13345519.36046  -9249548.87861
  20637649.2224     105968.26348    100336.24863
  23531959.0424   -1999675.76245  -1452116.08361
  20288546.050   -22059151.951 7 -17133138.55023
 91  4 30 23  4 14.9990000  0  4G13G 2G15G 6
  21256466.0034  -13390065.57746  -9284260.09961
  20639894.3944     117762.60248    109526.63963
  23532252.667    -1998126.200 5  -1450908.58521
  20286901.620   -22067783.028 7 -17139864.04823
 91  4 30 23  4 29.9990000  0  4G13G 2G15G 6
  21248016.933   -13434475.491 6  -9318865.11121
  20642152.9644     129629.85448    118773.85163
  23532578.245    -1996414.081 5  -1449574.46521
  20285281.651   -22076298.957 7 -17146499.82223
 91  4 30 23  4 44.9990000  0  4G13G 2G15G 6
  21239590.480   -13478748.861 6  -9353363.72521
  20644422.9254     141569.74648    128077.66763
  23532930.9954   -1994539.60645  -1448113.79461
  20283683.8944  -22084699.49347 -17153045.68463
 91  4 30 23  4 59.9990000  0  4G13G 2G15G 6
  21231192.1594  -13522889.90446  -9387759.23361
  20646708.1284     153577.71848    137434.53163
  23533325.9094   -1992506.99345  -1446529.94561
  20282106.425   -22092989.057 7 -17159505.06923
 91  4 30 23  5 14.9990000  0  4G13G 2G15G 6
  21222818.5894  -13566895.17246  -9422048.93861
  20649006.0264     165657.04648    146846.99563
  23533737.214    -1990312.757 5  -1444820.11921
  20280550.198   -22101163.948 7 -17165875.10023
 91  4 30 23  5 29.9990000  0  4G13G 2G15G 6
  21214466.894   -13610766.265 6  -9456234.08921
  20651317.9874     177805.64748    156313.43763
  23534182.9564   -1987959.28245  -1442986.23661
  20279015.3394  -22109226.17147 -17172157.33963
 91  4 30 23  5 44.9990000  0  4G13G 2G15G 6
  21206144.847   -13654502.157 6  -9490313.89521
  20653643.1834     190024.24748    165834.42663
  23534667.440    -1985445.455 5  -1441027.38221
  20277500.909   -22117174.617 7 -17178350.92223
 91  4 30 23  5 59.9990000  0  4G13G 2G15G 6
  21197847.784   -13698104.580 6  -9524289.70121
  20655984.3474     202311.02148    175408.53763
  23535171.8624   -1982773.18145  -1438945.08261
  20276010.4564  -22125011.02647 -17184457.20763
 91  4 30 23  6 14.9990000  0  4G13G 2G15G 6
  21189574.308   -13741577.596 6  -9558164.67321
  20658333.0424     214661.64048    185032.40163
  23535711.1054   -1979946.81545  -1436742.72061
  20274540.019   -22132739.388 7 -17190479.29323
 91  4 30 23  6 29.9990000  0  4G13G 2G15G 6
  21181329.4954  -13784918.00446  -9591936.30761
  20660695.8234     227078.76748    194708.08963
  23536278.7144   -1976963.41245  -1434417.97261
  20273091.605   -22140356.802 7 -17196414.92923
 91  4 30 23  6 44.9990000  0  4G13G 2G15G 6
  21173106.128   -13828119.689 6  -9625599.84221
  20663070.3864     239568.23548    204440.15363
  23536879.706    -1973817.192 5  -1431966.35721
  20271662.3944  -22147857.08147 -17202259.29263
 91  4 30 23  6 59.9990000  0  4G13G 2G15G 6
  21164913.190   -13871192.884 6  -9659163.26421
  20665462.1444     252119.31448    214220.21763
  23537502.7454   -1970518.63645  -1429396.00961
  20270257.269   -22155250.645 7 -17208020.49523
 91  4 30 23  7 14.9990000  0  4G13G 2G15G 6
  21156740.237   -13914133.970 6  -9692623.74021
  20667860.7144     264735.28248    224050.85263
  23538159.620    -1967064.166 5  -1426704.14121
  20268872.245   -22162534.077 7 -17213695.88723
 91  4 30 23  7 29.9990000  0  4G13G 2G15G 6
  21148592.011   -13956947.215 6  -9725984.60621
  20670272.7144     277411.57248    233928.48363
  23538845.1674   -1963458.60045  -1423894.61361
  20267502.9094  -22169711.42647 -17219288.61563
 91  4 30 23  7 44.9990000  0  4G13G 2G15G 6
  21140472.503   -13999624.864 7  -9759239.80121
  20672696.6124     290155.75448    243859.02463
  23539561.6054   -1959694.19045  -1420961.28161
  20266161.097   -22176775.114 7 -17224792.77223
 91  4 30 23  7 59.9990000  0  4G13G 2G15G 6
  21132375.7304  -14042168.32346  -9792390.45261
  20675135.6124     302966.09148    253841.10963
  23540312.347    -1955772.573 5  -1417905.47121
  20264838.308   -22183726.541 7 -17230209.45423
 91  4 30 23  8 14.9990000  0  4G13G 2G15G 6
  21124305.081   -14084581.926 6  -9825439.90621
  20677585.3474     315838.04148    263871.20763
  23541088.097    -1951698.586 5  -1414730.92321
  20263535.237   -22190570.165 7 -17235542.13123
 91  4 30 23  8 29.9990000  0  4G13G 2G15G 6
  21116258.761   -14126863.084 6  -9858386.15121
  20680049.9014     328773.71948    273950.96363
  23541885.558    -1947469.688 5  -1411435.64521
  20262252.355   -22197303.498 7 -17240788.86623
 91  4 30 23  8 44.9990000  0  4G13G 2G15G 6
  21108237.597   -14169006.253 6  -9891224.87321
  20682520.8704     341778.60048    284084.63663
  23542728.2844   -1943080.50245  -1408015.49161
  20260995.003   -22203920.970 7 -17245945.32123
 91  4 30 23  8 59.9990000  0  4G13G 2G15G 6
  21100241.003   -14211016.414 6  -9923959.95821
  20685010.4644     354847.21448    294267.97363
  23543588.4874   -1938536.30545  -1404474.55461
  20259757.245   -22210427.631 7 -17251015.43323
 91  4 30 23  9 14.9990000  0  4G13G 2G15G 6
  21092273.901   -14252898.219 7  -9956595.03021
  20687508.1674     367974.48948    304497.02163
  23544484.972    -1933842.134 5  -1400816.72321
  20258538.456   -22216828.192 7 -17256002.86323
 91  4 30 23  9 29.9990000  0  4G13G 2G15G 6
  21084331.261   -14294644.257 7  -9989124.29921
  20690019.0504     381167.38948    314777.20863
  23545406.2224   -1928990.86945  -1397036.49061
  20257340.370   -22223115.525 7 -17260902.07723
 91  4 30 23  9 44.9990000  0  4G13G 2G15G 6
  21076412.112   -14336249.546 6 -10021543.89821
  20692540.5264     394430.70148    325112.26263
  23546360.644    -1923977.717 5  -1393130.11121
  20256166.378   -22229284.563 7 -17265709.10523
 91  4 30 23  9 59.9990000  0  4G13G 2G15G 6
  21068521.675   -14377720.421 7 -10053858.75821
  20695076.5814     407757.69148    335496.93963
  23547345.9804   -1918808.96545  -1389102.51361
  20255013.815   -22235341.706 7 -17270428.94523
 91  4 30 23 10 14.9990000  0  4G13G 2G15G 6
  21060654.472   -14419055.931 7 -10086068.14521
  20697626.6834     421149.24748    345931.92163
  23548355.448    -1913483.987 5  -1384953.15021
  20253885.112   -22241286.021 7 -17275060.86323
 91  4 30 23 10 29.9990000  0  4G13G 2G15G 6
  21052815.628   -14460257.874 7 -10118173.44821
  20700184.7534     434603.18848    356415.51863
  23549397.0194   -1908005.05645  -1380683.84961
  20252773.6984  -22247119.35347 -17279606.30563
 91  4 30 23 10 44.9990000  0  4G13G 2G15G 6
  21045000.105   -14501324.015 7 -10150172.93321
  20702757.5424     448121.43248    366949.21463
  23550476.5344   -1902370.09645  -1376292.96461
  20251686.980   -22252839.549 7 -17284063.58323
 91  4 30 23 10 59.9990000  0  4G13G 2G15G 6
  21037212.167   -14542252.125 7 -10182064.87021
  20705345.1834     461705.88648    377534.50663
  23551575.980    -1896577.082 5  -1371778.90821
  20250619.511   -22258444.375 7 -17288430.96323
 91  4 30 23 11 14.9990000  0  4G13G 2G15G 6
  21029449.5344  -14583040.35647 -10213847.80661
  20707941.2374     475357.87648    388172.42663
  23552705.8004   -1890624.28745  -1367140.37561
  20249574.690   -22263932.119 7 -17292707.11423
 91  4 30 23 11 29.9990000  0  4G13G 2G15G 6
  21021713.9404  -14623693.94147 -10245525.82061
  20710550.0894     489072.29648    398858.99563
  23553870.2064   -1884517.33545  -1362381.70361
  20248551.448   -22269307.857 7 -17296895.99023
 91  4 30 23 11 44.9990000  0  4G13G 2G15G 6
  21014003.9094  -14664208.89847 -10277095.82061
  20713172.6904     502852.54348    409596.85263
  23555057.972    -1878252.784 5  -1357500.23321
  20247550.1284  -22274567.93547 -17300994.73863
 91  4 30 23 11 59.9990000  0  4G13G 2G15G 6
  21006319.980   -14704586.626 7 -10308558.88021
  20715807.0264     516697.00948    420384.75663
  23556282.1984   -1871832.06845  -1352497.09761
  20246572.292   -22279713.651 7 -17305004.37623
 91  4 30 23 12 14.9990000  0  4G13G 2G15G 6
  20998662.112   -14744827.597 7 -10339915.38121
  20718455.8704     530604.92548    431222.09663
  23557534.058    -1865255.680 5  -1347372.63221
  20245615.8004  -22284745.38947 -17308925.19863
 91  4 30 23 12 29.9990000  0  4G13G 2G15G 6
  20991030.5344  -14784930.93747 -10371164.63761
  20721113.7454     544576.79848    442109.27863
  23558816.3234   -1858523.29845  -1342126.58961
  20244679.206   -22289662.699 7 -17312756.85823
 91  4 30 23 12 44.9990000  0  4G13G 2G15G 6
  20983424.7064  -14824897.86847 -10402307.59861
  20723782.5894     558611.24648    453045.22063
  23560122.0584   -1851636.03445  -1336759.89361
  20243765.089   -22294466.741 7 -17316500.24923
 91  4 30 23 12 59.9990000  0  4G13G 2G15G 6
  20975845.222   -14864728.412 7 -10433344.28821
  20726467.8084     572707.87148    464029.61063
  23561467.112    -1844594.371 5  -1331272.86221
  20242873.042   -22299157.408 7 -17320155.30223
 91  4 30 23 13 14.9990000  0  4G13G 2G15G 6
  20968291.6364  -14904420.00047 -10464272.70661
  20729161.4404     586868.98748    475064.25063
  23562836.300    -1837396.025 5  -1325663.73321
  20242001.503   -22303732.234 7 -17323720.08623
 91  4 30 23 13 29.9990000  0  4G13G 2G15G 6
  20960764.7224  -14943978.13947 -10495097.13161
  20731868.6124     601088.82848    486144.65163
  23564234.2924   -1830046.57445  -1319936.87961
  20241150.862   -22308196.680 7 -17327198.86723
 91  4 30 23 13 44.9990000  0  4G13G 2G15G 6
  20953264.3154  -14983398.30947 -10525814.04761
  20734584.1444     615371.61248    497274.09663
  23565662.5734   -1822542.04745  -1314089.19861
  20240323.362   -22312546.379 7 -17330588.22923
 91  4 30 23 13 59.9990000  0  4G13G 2G15G 6
  20945787.6054  -15022676.12147 -10556420.03961
  20737316.0654     629721.42248    508455.77163
  23567121.5424   -1814878.05645  -1308117.20961
  20239518.714   -22316776.885 7 -17333884.71623
 91  4 30 23 14 14.9990000  0  4G13G 2G15G 6
  20938341.4254  -15061815.25047 -10586917.96661
  20740057.6364     644134.23948    519686.53863
  23568608.026    -1807058.729 5  -1302024.25721
  20238735.995   -22320891.918 7 -17337091.22123
 91  4 30 23 14 29.9990000  0  4G13G 2G15G 6
  20930921.6444  -15100809.28647 -10617302.83261
  20742815.9874     658616.06048    530971.07563
  23570124.5194   -1799077.84345  -1295805.38761
  20237974.6904  -22324885.26547 -17340202.90963
 91  4 30 23 14 44.9990000  0  4G13G 2G15G 6
  20923527.5034  -15139660.81047 -10647576.66161
  20745584.1984     673163.97948    542307.11963
  23571675.8784   -1790938.47245  -1289463.02261
  20237238.972   -22328759.826 7 -17343222.03923
 91  4 30 23 14 59.9990000  0  4G13G 2G15G 6
  20916159.3004  -15178371.25547 -10677740.55361
  20748364.7144     687776.48948    553693.49263
  23573253.1834   -1782641.98345  -1282998.20261
  20236524.089   -22332516.616 7 -17346149.39523
 91  4 30 23 15 14.9990000  0  4G13G 2G15G 6
  20908821.4334  -15216939.51347 -10707793.65261
  20751156.4014     702454.43148    565130.85763
  23574865.1284   -1774187.55645  -1276410.34061
  20235829.7304  -22336154.75847 -17348984.29963
 91  4 30 23 15 29.9990000  0  4G13G 2G15G 6
  20901507.1054  -15255369.79947 -10737739.22661
  20753960.8234     717193.37148    576615.74963
  23576499.2844   -1765579.83645  -1269703.01061
  20235161.1594  -22339678.51747 -17351730.07663
 91  4 30 23 15 44.9990000  0  4G13G 2G15G 6
  20894222.9254  -15293658.79347 -10767574.71661
  20756780.8944     731996.34248    588150.53163
  23578174.128    -1756815.544 5  -1262873.68421
  20234512.8704  -22343084.53547 -17354384.10663
 91  4 30 23 15 59.9990000  0  4G13G 2G15G 6
  20886963.9014  -15331808.10747 -10797301.36661
  20759605.6284     746861.15847    599733.50563
  23579868.6054   -1747896.71545  -1255923.91861
  20233887.894   -22346374.603 7 -17356947.78123
 91  4 30 23 16 14.9990000  0  4G13G 2G15G 6
  20879730.4644  -15369817.49547 -10826918.97761
  20762446.5894     761788.05248    611364.85363
  23581596.261    -1738822.872 5  -1248853.41821
  20233281.6594  -22349548.29447 -17359420.77663
 91  4 30 23 16 29.9990000  0  4G13G 2G15G 6
  20872524.0114  -15407686.55747 -10856427.25261
  20765300.5034     776776.91648    623044.48863
  23583355.6674   -1729594.34445  -1241662.31061
  20232702.0584  -22352605.45047 -17361802.96663
 91  4 30 23 16 44.9990000  0  4G13G 2G15G 6
  20865343.2614  -15445413.06447 -10885824.43761
  20768163.4484     791829.86948    634774.06763
  23585137.0974   -1720209.24145  -1234349.25061
  20232141.144   -22355543.949 7 -17364092.69323
 91  4 30 23 16 59.9990000  0  4G13G 2G15G 6
  20858190.0584  -15483002.22147 -10915114.60161
  20771039.5114     806941.47848    646549.35063
  23586949.1904   -1710672.92045  -1226918.32261
  20231601.7844  -22358368.85147 -17366293.90063
 91  4 30 23 17 14.9990000  0  4G13G 2G15G 6
  20851064.409   -15520451.750 7 -10944295.97421
  20773926.5974     822113.93648    658372.04763
  23588796.737    -1700983.155 5  -1219367.84621
  20231089.6054  -22361077.70147 -17368404.68363
 91  4 30 23 17 29.9990000  0  4G13G 2G15G 6
  20843965.065   -15557762.835 7 -10973369.46421
  20776823.2064     837345.47047    670240.77163
  23590664.1594   -1691141.70545  -1211699.17061
  20230595.3234  -22363672.01647 -17370426.21863
 91  4 30 23 17 44.9990000  0  4G13G 2G15G 6
  20836890.839   -15594935.027 7 -11002334.73221
  20779734.5504     852636.38248    682155.76863
  23592569.3394   -1681148.10845  -1203911.95861
  20230122.4564  -22366151.25847 -17372358.08463
 91  4 30 23 17 59.9990000  0  4G13G 2G15G 6
  20829843.065   -15631971.006 7 -11031193.85221
  20782656.3314     867983.44748    694114.51463
  23594498.4564   -1671005.59945  -1196008.68361
  20229673.2844  -22368518.32247 -17374202.54363
 91  4 30 23 18 14.9990000  0  4G13G 2G15G 6
  20822822.800   -15668869.057 7 -11059945.49821
  20785587.7764     883388.31148    706118.30663
  23596451.5584   -1660712.43545  -1187988.04461
  20229243.5344  -22370771.41247 -17375958.18863
 91  4 30 23 18 29.9990000  0  4G13G 2G15G 6
  20815828.370   -15705627.969 7 -11088588.72821
  20788528.4874     898852.03448    718167.96563
  23598448.862    -1650267.692 5  -1179849.26721
  20228834.5344  -22372909.31747 -17377624.08063
 91  4 30 23 18 44.9990000  0  4G13G 2G15G 6
  20808856.644   -15742250.042 7 -11117125.32721
  20791481.8784     914372.32048    730261.69563
  23600461.5974   -1639673.99545  -1171594.44961
  20228451.8474  -22374934.21147 -17379201.91263
 91  4 30 23 18 59.9990000  0  4G13G 2G15G 6
  20801914.714   -15778732.803 7 -11145553.37621
  20794446.9174     929951.19647    742401.07863
  23602508.026    -1628928.891 5  -1163221.59921
  20228086.8394  -22376843.72347 -17380689.83363
 91  4 30 23 19 14.9990000  0  4G13G 2G15G 6
  20794999.612   -15815071.934 7 -11173869.50421
  20797423.5264     945592.11048    754588.80363
  23604575.6904   -1618028.68645  -1154727.93761
  20227747.1594  -22378634.04947 -17382084.88763
 91  4 30 23 19 29.9990000  0  4G13G 2G15G 6
  20788110.276   -15851277.076 7 -11202081.22621
  20800408.5974     961285.61248    766817.50363
  23606679.5504   -1606983.11345  -1146121.00061
  20227429.5264  -22380314.47847 -17383394.30263
 91  4 30 23 19 44.9990000  0  4G13G 2G15G 6
  20781244.323   -15887347.153 7 -11230187.69121
  20803406.9484     977032.63047    779087.90763
  23608812.0344   -1595791.55845  -1137400.29061
  20227130.8624  -22381883.98747 -17384617.28763
 91  4 30 23 19 59.9990000  0  4G13G 2G15G 6
  20774407.6904  -15923281.60447 -11258188.48561
  20806413.6594     992833.47647    791400.25163
  23610970.5734   -1584453.55945  -1128565.48761
  20226850.0034  -22383341.95847 -17385753.36363
 91  4 30 23 20 14.9990000  0  4G13G 2G15G 6
  20767593.019   -15959079.740 7 -11286083.05821
  20809431.4014    1008688.57047    803754.87563
  23613159.4014   -1572968.68145  -1119616.23061
  20226595.3154  -22384687.78947 -17386802.05563
 91  4 30 23 20 29.9990000  0  4G13G 2G15G 6
  20760808.940   -15994741.276 7 -11313871.19021
  20812458.8704    1024597.83047    816151.69763
  23615366.284    -1561336.957 5  -1110552.53321
  20226361.0894  -22385921.21647 -17387763.16363
 91  4 30 23 20 44.9990000  0  4G13G 2G15G 6
  20754049.964   -16030268.787 7 -11341554.88621
  20815494.2614    1040558.66447    828588.71663
  23617609.1284   -1549561.08245  -1101376.52961
  20226145.6124  -22387044.77747 -17388638.65763
 91  4 30 23 20 59.9990000  0  4G13G 2G15G 6
  20747313.190   -16065661.044 7 -11369133.19421
  20818542.1054    1056571.80147    841066.48363
  23619878.4094   -1537639.99945  -1092087.37861
  20225956.2064  -22388057.38247 -17389427.69463
 91  4 30 23 21 14.9990000  0  4G13G 2G15G 6
  20740603.964   -16100918.408 7 -11396606.38821
  20821597.7844    1072636.79347    853584.65863
  23622174.9254   -1525574.63045  -1082685.78461
  20225781.6834  -22388959.40747 -17390130.56163
 91  4 30 23 21 29.9990000  0  4G13G 2G15G 6
  20733920.831   -16136043.169 7 -11423976.25321
  20824665.7224    1088751.08147    866141.24263
  23624494.8084   -1513367.40545  -1073173.67061
  20225632.6204  -22389753.10547 -17390749.02063
 91  4 30 23 21 44.9990000  0  4G13G 2G15G 6
  20727264.011   -16171032.237 7 -11451240.38821
  20827741.5114    1104917.42747    878738.39663
  23626846.480    -1501015.673 5  -1063548.94321
  20225500.5194  -22390435.52647 -17391280.77263
 91  4 30 23 21 59.9990000  0  4G13G 2G15G 6
  20720628.995   -16205888.105 7 -11478400.72921
  20830827.5814    1121133.02747    891373.92463
  23629225.5734   -1488522.08045  -1053813.66861
  20225393.2844  -22391009.15847 -17391727.75263
 91  4 30 23 22 14.9990000  0  4G13G 2G15G 6
  20714021.8394  -16240612.27247 -11505458.45561
  20833923.4954    1137396.19647    904046.52963
  23631624.2374   -1475888.29545  -1043969.15661
  20225305.0194  -22391475.49547 -17392091.12963
 91  4 30 23 22 29.9990000  0  4G13G 2G15G 6
  20707438.987   -16275204.753 7 -11532413.55821
  20837025.1204    1153706.66847    916755.99063
  23634059.3474   -1463114.63045  -1034015.65261
  20225234.4874  -22391834.47547 -17392370.84863
 91  4 30 23 22 44.9990000  0  4G13G 2G15G 6
  20700880.323   -16309671.576 7 -11559270.74521
  20840135.9954    1170058.26847    929497.49763
  23636517.784    -1450207.342 5  -1023958.02821
  20225188.6984  -22392092.31247 -17392571.75563
 91  4 30 23 22 59.9990000  0  4G13G 2G15G 6
  20694345.3944  -16344006.68947 -11586025.31361
  20843259.2924    1186456.99047    942275.72063
  23638995.7304   -1437160.39545  -1013791.56961
  20225159.5734  -22392242.77647
 91  4 30 23 23 14.9990000  0  4G13G 2G15G 6
  20687836.8314  -16378211.70147 -11612678.50261
  20846387.4484    1202900.91547    955089.16463
  23641504.8234   -1423975.71645  -1003517.81261
  20225149.4954  -22392287.49847
 91  4 30 23 23 29.9990000  0  4G13G 2G15G 6
  20681351.3944  -16412286.99947 -11639230.61061
  20849526.5034    1219389.11547    967937.11563
  23644038.565    -1410654.317 5   -993137.47121
  20225160.9404  -22392227.16647
 91  4 30 23 23 44.9990000  0  4G13G 2G15G 6
  20674891.5654  -16446232.94647 -11665681.92761
  20852670.4644    1235921.12147    980819.19363
  23646603.964    -1397196.836 5   -982651.11421
  20225192.6444  -22392062.07847
 91  4 30 23 23 59.9990000  0  4G13G 2G15G 6
  20668458.3784  -16480046.39247 -11692029.99661
  20855825.6444    1252500.05047    993737.84163
  23649187.1124   -1383600.29345   -972056.41261
  20225245.3704  -22391788.85947
 91  4 30 23 24 14.9990000  0  4G13G 2G15G 6
  20662048.9254  -16513728.10247 -11718275.41961
  20858989.6834    1269124.75747   1006692.15963
  23651805.4724   -1369865.67245   -961354.10161
  20225317.1904  -22391408.59347 -17392038.96663
 91  4 30 23 24 29.9990000  0  4G13G 2G15G 6
  20655663.9334  -16547276.80847 -11744417.20361
  20862162.0814    1285796.30347   1019682.97563
  23654446.0264   -1355992.00045   -950543.45261
  20225410.2304  -22390919.81747 -17391658.10163
 91  4 30 23 24 44.9990000  0  4G13G 2G15G 6
  20649304.761   -16580696.590 7 -11770458.51621
  20865343.1754    1302510.22847   1032706.81063
  23657109.9804   -1341983.62645   -939627.82061
  20225523.8864  -22390326.73747 -17391195.95763
 91  4 30 23 24 59.9990000  0  4G13G 2G15G 6
  20642967.9254  -16613988.96047 -11796400.55461
  20868531.4804    1319265.03347   1045762.50363
  23659799.3704   -1327842.25745   -928608.58461
  20225654.9404  -22389630.92747 -17390653.76263
 91  4 30 23 25 14.9990000  0  4G13G 2G15G 6
  20636659.206   -16647152.412 7 -11822242.13621
  20871729.6124    1336062.06747   1058851.09863
  23662517.1514   -1313566.78745   -917484.84061
  20225809.6904  -22388830.66247 -17390030.17663
 91  4 30 23 25 29.9990000  0  4G13G 2G15G 6
  20630370.8394  -16680186.42947 -11847982.86561
  20874932.5424    1352901.32047   1071972.58963
  23665259.6834   -1299156.89445   -906256.34961
  20225979.0734  -22387925.70447 -17389325.00763
 91  4 30 23 25 44.9990000  0  4G13G 2G15G 6
  20624109.5344  -16713087.90047 -11873620.30561
  20878144.6674    1369785.97147   1085129.45563
  23668031.097    -1284609.438 5   -894920.67121
  20226172.3944  -22386912.73547 -17388535.67863
 91  4 30 23 25 59.9990000  0  4G13G 2G15G 6
  20617873.964   -16745860.056 7 -11899156.98221
  20881365.9094    1386712.73847   1098319.14463
  23670819.0344   -1269928.06445   -883480.62161
  20226385.1124  -22385794.91847 -17387664.64563
 91  4 30 23 26 14.9990000  0  4G13G 2G15G 6
  20611664.1444  -16778501.70047 -11924591.97061
  20884594.4094    1403682.22647   1111542.11163
  23673641.9254   -1255111.99645   -871935.64761
  20226620.4404  -22384571.25047 -17386711.13663
 91  4 30 23 26 29.9990000  0  4G13G 2G15G 6
  20605477.2454  -16811009.40247 -11949922.58361
  20887831.2694    1420697.60247   1124800.84863
  23676487.987    -1240158.386 5   -860283.45721
  20226872.1674  -22383238.54847 -17385672.66463
 91  4 30 23 26 44.9990000  0  4G13G 2G15G 6
  20599316.0734  -16843384.66447 -11975149.99861
  20891080.5814    1437757.39747   1138094.19563
  23679353.581    -1225068.427 4   -848525.02821
  20227145.0654  -22381798.01947 -17384550.17363
 91  4 30 23 26 59.9990000  0  4G13G 2G15G 6
  20593179.7614  -16875628.23247 -12000274.79961
  20894335.1754    1454860.50847   1151421.29163
  23682254.2844   -1209843.19044   -836661.22261
  20227439.0034  -22380250.54747 -17383344.34563
 91  4 30 23 27 14.9990000  0  4G13G 2G15G 6
  20587069.2924  -16907736.97147 -12025294.53661
  20897599.2144    1472009.97847   1164784.51363
  23685175.440    -1194480.089 4   -824689.94921
  20227754.5344  -22378592.90147 -17382052.67363
 91  4 30 23 27 29.9990000  0  4G13G 2G15G 6
  20580984.6204  -16939712.79947 -12050210.70361
  20900868.7454    1489203.63247   1178182.16063
  23688132.792    -1178981.211 4   -812612.90221
  20228089.8704  -22376826.94247 -17380676.59763
 91  4 30 23 27 44.9990000  0  4G13G 2G15G 6
  20574927.0504  -16971554.47647 -12075022.33361
  20904150.5894    1506442.52947   1191615.06263
  23691102.683    -1163345.454 4   -800429.18021
  20228447.3084  -22374951.50847 -17379215.21763
 91  4 30 23 27 59.9990000  0  4G13G 2G15G 6
  20568893.5504  -17003262.89147 -12099730.13261
  20907439.6364    1523725.35747   1205082.20263
  23694105.448    -1147574.422 4   -788140.07821
  20228825.8784  -22372967.74347 -17377669.42163
 91  4 30 23 28 14.9990000  0  4G13G 2G15G 6
  20562884.3554  -17034840.15247 -12124335.72461
  20910736.5344    1541050.20848   1218582.07963
  23697133.5894   -1131670.08845   -775747.10861
  20229223.9484  -22370877.48347 -17376040.63963
 91  4 30 23 28 29.9990000  0  4G13G 2G15G 6
  20556899.6364  -17066285.16447 -12148838.27461
  20914040.6054    1558417.80047   1232115.26263
  23700184.1674   -1115631.58645   -763249.55461
  20229641.2534  -22368679.79047 -17374328.14463
 91  4 30 23 28 44.9990000  0  4G13G 2G15G 6
  20550940.3624  -17097595.33647 -12173235.75161
  20917352.1204    1575830.30647   1245683.45063
  23703263.0504   -1099457.05145   -750646.01961
  20230081.4564  -22366372.03547 -17372529.89163
 91  4 30 23 28 59.9990000  0  4G13G 2G15G 6
  20545008.6594  -17128774.44947 -12197531.09761
  20920674.6984    1593283.77947   1259283.55263
  23706365.2374   -1083150.32645   -737939.49061
  20230540.6904  -22363958.05847 -17370648.86463
 91  4 30 23 29 14.9990000  0  4G13G 2G15G 6
  20539100.5504  -17159817.69047 -12221720.57861
  20924006.4484    1610782.93047   1272919.24563
  23709494.870    -1066706.684 5   -725126.23221
  20231021.3704  -22361433.09847 -17368681.35862
 91  4 30 23 29 29.9990000  0  4G13G 2G15G 6
  20533216.8704  -17190729.43447 -12245807.58761
  20927342.8784    1628323.48547   1286587.20363
  23712647.2694   -1050130.67345   -712209.87261
  20231522.5194  -22358801.29447 -17366630.59763
 91  4 30 23 29 44.9990000  0  4G13G 2G15G 6
  20527359.0034  -17221512.51347 -12269794.34061
  20930687.2534    1645902.43047   1300285.07863
  23715825.6124   -1033425.66145   -699192.99161
  20232042.9174  -22356065.43347 -17364498.75063
 91  4 30 23 29 59.9990000  0  4G13G 2G15G 6
  20521528.4484  -17252160.08147 -12293675.50261
  20934042.3864    1663526.20947   1314017.88763
  23719033.5424   -1016584.82045   -686070.25961
  20232583.2064  -22353218.80147 -17362280.59163
 91  4 30 23 30 14.9990000  0  4G13G 2G15G 6
  20515720.9644  -17282674.90047 -12317453.22561
  20937404.5974    1681191.65947   1327783.16363
  23722260.487     -999611.236 5   -672844.10821
  20233145.4334  -22350264.34447 -17359978.41763
 91  4 30 23 30 29.9990000  0  4G13G 2G15G 6
  20509941.0264  -17313058.69947 -12341128.85061
  20940772.5504    1698896.94547   1341579.48363
  23725516.2224    -982506.88945   -659516.06161
  20233726.995   -22347203.511 7 -17357593.33823
 91  4 30 23 30 44.9990000  0  4G13G 2G15G 6
  20504182.8554  -17343311.99747 -12364702.79261
  20944149.6674    1716641.48047   1355406.38863
  23728795.940     -965272.470 5   -646086.64321
  20234330.1904  -22344036.87347 -17355125.82563
 91  4 30 23 30 59.9990000  0  4G13G 2G15G 6
  20498450.831   -17373431.397 7 -12388172.39421
  20947536.5974    1734428.58747   1369266.46863
  23732099.6204    -947905.28745   -632553.78261
  20234954.5194  -22340761.21347 -17352573.35463
 91  4 30 23 31 14.9990000  0  4G13G 2G15G 6
  20492744.0894  -17403421.51247 -12411541.25261
  20950926.2534    1752253.58947   1383156.07663
  23735426.1364    -930409.87045   -618920.97861
  20235597.8154  -22337380.91047 -17349939.34363
 91  4 30 23 31 29.9990000  0  3G13G 2G 6
  20487061.011   -17433282.973 7 -12434809.87021
  20954325.7144    1770115.45247   1397074.40863
  20236261.4014  -22333896.62347 -17347224.31863
 91  4 30 23 31 44.9990000  0  3G13G 2G 6
  20481403.862   -17463019.208 7 -12457980.90421
  20957731.6674    1788010.63048   1411018.69863
  20236942.6204  -22330311.75447 -17344430.90763
 91  4 30 23 31 59.9990000  0  3G13G 2G 6
  20475768.995   -17492628.570 7 -12481053.08521
  20961141.5974    1805940.41847   1424989.95763
  20237643.1834  -22326624.84247 -17341557.98663
 91  4 30 23 32 14.9990000  0  3G13G 2G 6
  20470159.972   -17522109.887 7 -12504025.48521
  20964560.4094    1823905.83747   1438988.97863
  20238366.8394  -22322834.74347 -17338604.66363
 91  4 30 23 32 29.9990000  0  3G13G 2G 6
  20464572.269   -17551463.323 7 -12526898.23721
  20967986.1054    1841906.46847   1453015.44063
  20239107.3944  -22318941.53847 -17335570.99863
 91  4 30 23 32 44.9990000  0  3G13G 2G 6
  20459009.425   -17580696.321 7 -12549677.14421
  20971417.4954    1859935.06647   1467063.69163
  20239867.6054  -22314952.61347 -17332462.74262
 91  4 30 23 32 59.9990000  0  3G13G 2G 6
  20453472.3554  -17609805.07047 -12572359.23261
  20974853.7454    1877995.16247   1481136.49063
  20240644.4254  -22310864.10047 -17329276.88563
 91  4 30 23 33 14.9990000  0  3G13G 2G 6
  20447953.714   -17638793.443 7 -12594947.52721
  20978295.1984    1896082.43747   1495230.46763
  20241440.8944  -22306680.09347 -17326016.61363
 91  4 30 23 33 29.9990000  0  3G13G 2G 6
  20442462.034   -17667662.978 7 -12617443.20921
  20981740.5194    1914195.49947   1509344.53863
  20242254.2764  -22302401.90147 -17322682.95163
 91  4 30 23 33 44.9990000  0  3G13G 2G 6
  20436988.6834  -17696413.58247 -12639846.22561
  20985194.5194    1932334.27847   1523478.64863
  20243085.4014  -22298029.29047 -17319275.71863
 91  4 30 23 33 59.9990000  0  3G13G 2G 6
  20431540.886   -17725048.227 7 -12662158.88121
  20988650.0034    1950495.67747   1537630.38063
  20243934.9804  -22293565.37647 -17315797.33863
 91  4 30 23 34 14.9990000  0  3G13G 2G 6
  20426112.378   -17753568.788 7 -12684382.64021
  20992110.2844    1968677.51447   1551798.04063
  20244800.8944  -22289012.15447 -17312249.36863
 91  4 30 23 34 29.9990000  0  3G13G 2G 6
  20420705.667   -17781977.474 7 -12706519.22521
  20995572.8394    1986877.50547   1565979.84863
  20245683.5034  -22284371.68647 -17308633.41663
 91  4 30 23 34 44.9990000  0  3G13G 2G 6
  20415320.995   -17810274.656 7 -12728568.92621
  20999041.2764    2005095.10847   1580175.38063
  20246585.4174  -22279644.31947 -17304949.75163
 91  4 30 23 34 59.9990000  0  3G13G 2G 6
  20409956.269   -17838467.293 7 -12750537.16221
  21002509.9564    2023323.31347   1594379.17363
  20247500.1284  -22274837.00947 -17301203.79662
 91  4 30 23 35 14.9990000  0  3G13G 2G 6
  20404612.792   -17866552.341 7 -12772421.56221
  21005980.2224    2041564.78847   1608593.30663
  20248431.5424  -22269946.85047 -17297393.27962
 91  4 30 23 35 29.9990000  0  3G13G 2G 6
  20399288.003   -17894534.111 7 -12794225.48821
  21009452.5424    2059815.09247   1622814.31563
  20249374.8234  -22264978.04147 -17293521.48163
 91  4 30 23 35 44.9990000  0  3G13G 2G 6
  20393982.925   -17922410.625 7 -12815947.39321
  21012927.7304    2078075.84747   1637043.47163
  20250336.2304  -22259928.85647 -17289587.05162
 91  4 30 23 35 59.9990000  0  3G13G 2G 6
  20388695.855   -17950190.769 7 -12837594.20822
  21016403.1124    2096337.99247   1651273.70863
  20251310.0734  -22254808.13447 -17285596.87763
 91  4 30 23 36 14.9990000  0  3G13G 2G 6
  20383427.511   -17977876.850 7 -12859167.73122
  21019878.8554    2114599.36247   1665503.34563
  20252297.9644  -22249617.85947 -17281552.50763
 91  4 30 23 36 29.9990000  0  3G13G 2G 6
  20378176.183   -18005472.558 7 -12880670.82721
  21023352.3704    2132856.15847   1679729.41563
  20253298.7374  -22244361.80447 -17277456.88062
 91  4 30 23 36 44.9990000  0  3G13G 2G 6
  20372941.487   -18032980.008 7 -12902105.15722
  21026825.5584    2151106.10347   1693950.15363
  20254311.2304  -22239042.01047 -17273311.58862
 91  4 30 23 36 59.9990000  0  3G13G 2G 6
  20367724.440   -18060397.055 7 -12923469.04221
  21030298.3554    2169351.16847   1708167.07363
  20255336.1834  -22233656.45147 -17269115.05062
 91  4 30 23 37 14.9990000  0  3G13G 2G 6
  20362523.667   -18087728.380 7 -12944766.12721
  21033765.7924    2187586.65647   1722376.53963
  20256371.5504  -22228209.46747 -17264870.64562
 91  4 30 23 37 29.9990000  0  3G13G 2G 6
  20357338.347   -18114978.711 7 -12966000.09921
  21037235.0424    2205807.65647   1736574.71463
  20257420.5504  -22222705.98747 -17260582.21862
 91  4 30 23 37 44.9990000  0  3G13G 2G 6
  20352168.003   -18142145.336 7 -12987168.85021
  21040701.0974    2224016.56147   1750763.46663
  20258477.5654  -22217143.40247 -17256247.73262
 91  4 30 23 37 59.9990000  0  3G13G 2G 6
  20347014.886   -18169233.586 7 -13008276.52721
  21044159.7844    2242208.09947   1764938.68163
  20259547.2614  -22211526.89447 -17251871.22863
 91  4 30 23 38 14.9990000  0  3G13G 2G 6
  20341873.972   -18196246.615 7 -13029325.59222
  21047619.1204    2260378.99647   1779097.82063
  20260624.7924  -22205859.52047 -17247455.09462
 91  4 30 23 38 29.9990000  0  3G13G 2G 6
  20336746.409   -18223185.606 7 -13050316.96822
  21051072.8624    2278528.01947   1793239.91263
  20261712.2764  -22200142.47347 -17243000.25462
 91  4 30 23 38 44.9990000  0  3G13G 2G 6
  20331632.745   -18250053.217 7 -13071252.72321
  21054522.0814    2296652.15347   1807362.61363
  20262810.1514  -22194378.49447 -17238508.84463
 91  4 30 23 38 59.9990000  0  3G13G 2G 6
  20326534.105   -18276850.686 7 -13092133.82022
  21057966.8624    2314750.03147   1821464.84763
  20263916.4404  -22188568.85747 -17233981.86362
 91  4 30 23 39 14.9990000  0  3G13G 2G 6
  20321448.1444  -18303581.08147 -13112962.65162
  21061402.7924    2332818.61847   1835544.26063
  20265029.2454  -22182716.49347 -17229421.57863
 91  4 30 23 39 29.9990000  0  3G13G 2G 6
  20316374.761   -18330245.663 7 -13133740.20322
  21064836.3474    2350856.29147   1849599.58463
  20266151.4404  -22176822.67347 -17224828.99462
 91  4 30 23 39 44.9990000  0  3G13G 2G 6
  20311312.894   -18356844.806 7 -13154466.75422
  21068261.8554    2368862.71747   1863630.55463
  20267280.3554  -22170887.78947 -17220204.40762
 91  4 30 23 39 59.9990000  0  3G13G 2G 6
  20306263.5734  -18383377.65047 -13175141.66061
  21071686.1984    2386838.43147   1877637.60563
  20268416.0034  -22164911.01447 -17215547.17862
 91  4 30 23 40 14.9990000  0  3G13G 2G 6
  20301225.855   -18409852.602 7 -13195771.44522
  21075096.3394    2404775.06647   1891614.20163
  20269561.6674  -22158900.73547 -17210863.84262
 91  4 30 23 40 29.9990000  0  3G13G 2G 6
  20296197.433   -18436269.004 7 -13216355.60822
  21078502.8474    2422673.12447   1905560.73163
  20270711.3624  -22152856.19547 -17206153.80962
 91  4 30 23 40 44.9990000  0  3G13G 2G 6
  20291182.706   -18462629.056 7 -13236895.86422
  21081900.4254    2440530.31547   1919475.41863
  20271865.8554  -22146779.46047 -17201418.69262
 91  4 30 23 40 59.9990000  0  3G13G 2G 6
  20286175.237   -18488932.956 7 -13257392.36222
  21085292.1674    2458346.53347   1933358.17563
  20273030.5894  -22140670.75047 -17196658.65762
 91  4 30 23 41 14.9990000  0  3G13G 2G 6
  20281180.620   -18515182.829 7 -13277846.76022
  21088674.4094    2476119.49047   1947207.22963
  20274198.7534  -22134532.06847 -17191875.26862
 91  4 30 23 41 29.9990000  0  3G13G 2G 6
  20276196.284   -18541375.977 7 -13298256.96021
  21092048.1444    2493851.61247   1961024.45763
  20275374.1204  -22128360.83747 -17187066.51862
 91  4 30 23 41 44.9990000  0  3G13G 2G 6
  20271223.980   -18567513.009 7 -13318623.42922
  21095412.8394    2511542.28447   1974809.39063
  20276551.3004  -22122157.61347 -17182232.84162
 91  4 30 23 41 59.9990000  0  3G13G 2G 6
  20266258.8784  -18593590.92147 -13338943.84362
  21098771.8864    2529194.43747   1988564.30463
  20277740.0894  -22115919.35547 -17177371.85962
 91  4 30 23 42 14.9990000  0  3G13G 2G 6
  20261308.690   -18619608.864 7 -13359217.52622
  21102126.3554    2546808.67447   2002289.67463
  20278935.1514  -22109645.30447 -17172482.99162
 91  4 30 23 42 29.9990000  0  3G13G 2G 6
  20256369.4724  -18645565.06247 -13379443.08962
  21105467.7694    2564386.82447   2015986.92963
  20280135.1444  -22103333.59447 -17167564.76962
 91  4 30 23 42 44.9990000  0  3G13G 2G 6
  20251441.081   -18671459.195 7 -13399620.28922
  21108808.1594    2581929.07947   2029656.20863
  20281344.5814  -22096983.83347 -17162616.91362
 91  4 30 23 42 59.9990000  0  3G13G 2G 6
  20246529.605   -18697285.666 7 -13419744.76122
  21112141.4874    2599440.74047   2043301.65263
  20282560.1594  -22090590.50147 -17157635.09462
 91  4 30 23 43 14.9990000  0  3G13G 2G 6
  20241626.1754  -18723043.83747 -13439816.02862
  21115466.5194    2616922.54347   2056923.82563
  20283784.9874  -22084152.70747 -17152618.63262
 91  4 30 23 43 29.9990000  0  3G13G 2G 6
  20236738.042   -18748733.369 7 -13459833.80122
  21118788.0814    2634374.98047   2070523.12263
  20285017.8084  -22077670.01847 -17147567.18962
 91  4 30 23 43 44.9990000  0  3G13G 2G 6
  20231862.7614  -18774354.83147 -13479798.53762
  21122102.8624    2651797.15147   2084098.83863
  20286259.9174  -22071143.08047 -17142481.26362
 91  4 30 23 43 59.9990000  0  3G13G 2G 6
  20227001.3394  -18799898.02647 -13499702.28462
  21125415.0974    2669199.15647   2097658.83863
  20287512.7614  -22064561.72247 -17137352.92962
 91  4 30 23 44 14.9990000  0  3G13G 2G 6
  20222156.636   -18825358.299 7 -13519541.41722
  21128725.3084    2686585.24847   2111206.43763
  20288777.0034  -22057921.49847 -17132178.72962
 91  4 30 23 44 29.9990000  0  3G13G 2G 6
  20217328.4724  -18850732.73247 -13539313.66262
  21132030.7694    2703958.46047   2124743.99963
  20290052.8004  -22051219.22947 -17126956.18562
 91  4 30 23 44 44.9990000  0  3G13G 2G 6
  20212515.3864  -18876021.10547 -13559018.84462
  21135334.2304    2721318.98747   2138271.67563
  20291339.4564  -22044454.61247 -17121685.05062
 91  4 30 23 44 59.9990000  0  3G13G 2G 6
  20207719.6754  -18901218.61247 -13578653.23862
  21138634.5424    2738671.63847   2151793.21263
  20292639.8084  -22037622.69547 -17116361.48562
 91  4 30 23 45 14.9990000  0  3G13G 2G 6
  20202941.839   -18926323.204 7 -13598215.21121
  21141936.5264    2756018.18447   2165309.99263
  20293953.7614  -22030721.75047 -17110984.12562
 91  4 30 23 45 29.9990000  0  3G13G 2G 6
  20198185.190   -18951328.160 7 -13617699.55222
  21145237.308     2773365.325 7   2178827.23623
  20295280.6204  -22023744.80847 -17105547.55062
 91  4 30 23 45 44.9990000  0  3G13G 2G 6
  20193445.9404  -18976235.99747 -13637108.21961
  21148538.230     2790710.626 7   2192343.04023
  20296620.5504  -22016694.26947 -17100053.63362
 91  4 30 23 45 59.9990000  0  3G13G 2G 6
  20188726.105   -19001038.558 7 -13656434.85022
  21151839.5894    2808062.09247   2205863.65463
  20297979.9254  -22009561.87747 -17094495.93162
 91  4 30 23 46 14.9990000  0  3G13G 2G 6
  20184026.5584  -19025733.35147 -13675677.51162
  21155142.214     2825422.063 7   2219390.89223
  20299351.3944  -22002345.45447 -17088872.75162
 91  4 30 23 46 29.9990000  0  3G13G 2G 6
  20179348.0894  -19050317.28947 -13694833.78462
  21158448.1904    2842793.77247   2232927.27963
  20300743.3704  -21995041.60247 -17083181.44162
 91  4 30 23 46 44.9990000  0  3G13G 2G 6
  20174691.300   -19074789.776 7 -13713903.21622
  21161758.5034    2860177.46647   2246473.00563
  20302147.5344  -21987649.84547 -17077421.63162
 91  4 30 23 46 59.9990000  0  3G13G 2G 6
  20170057.7764  -19099134.68147 -13732873.23662
  21165068.7304    2877589.19147   2260040.57363
  20303574.4644  -21980154.17347 -17071580.85162
 91  4 30 23 47 14.9990000  0  3G13G 2G 6
  20165448.1204  -19123362.03647 -13751751.65561
  21168387.612     2895019.088 7   2273622.29923
  20305019.5894  -21972564.23147 -17065666.61262
 91  4 30 23 47 29.9990000  0  3G13G 2G 6
  20160861.1054  -19147467.70047 -13770535.25161
  21171708.4174    2912471.14247   2287221.29563
  20306481.5194  -21964875.86647 -17059675.68263
 91  4 30 23 47 44.9990000  0  3G13G 2G 6
  20156296.0584  -19171444.95747 -13789218.79061
  21175034.5114    2929951.76447   2300842.55063
  20307967.8394  -21957082.63547 -17053603.03662
 91  4 30 23 47 59.9990000  0  3G13G 2G 6
  20151758.4334  -19195298.01547 -13807805.55361
  21178365.2694    2947456.81247   2314482.84063
  20309468.1674  -21949188.46447 -17047451.73162
 91  4 30 23 48 14.9990000  0  3G13G 2G 6
  20147244.9484  -19219020.24447 -13826290.36762
  21181702.8704    2964992.86547   2328147.29063
  20310990.0734  -21941186.67247 -17041216.57262
 91  4 30 23 48 29.9990000  0  3G13G 2G 6
  20142755.6204  -19242609.42947 -13844671.51862
  21185046.4644    2982562.25547   2341837.71663
  20312533.9724  -21933075.10447 -17034895.87662
 91  4 30 23 48 44.9990000  0  3G13G 2G 6
  20138290.2064  -19266067.76647 -13862950.70762
  21188396.9254    3000162.83947   2355552.45163
  20314097.6514  -21924855.56947 -17028491.04762
 91  4 30 23 48 59.9990000  0  3G13G 2G 6
  20133853.6054  -19289388.88347 -13881122.97162
  21191752.4334    3017800.42447   2369296.01863
  20315684.8624  -21916522.03247 -17021997.38862
 91  4 30 23 49 14.9990000  0  3G13G 2G 6
  20129441.0584  -19312572.74947 -13899188.28662
  21195115.8704    3035475.48147   2383068.78363
  20317293.0974  -21908074.19847 -17015414.67062
 91  4 30 23 49 29.9990000  0  3G13G 2G 6
  20125056.6834  -19335617.86747 -13917145.48662
  21198487.5504    3053189.33547   2396871.77763
  20318920.7224  -21899510.57147 -17008741.72362
 91  4 30 23 49 44.9990000  0  3G13G 2G 6
  20120697.4954  -19358522.59347 -13934993.28862
  21201864.3554    3070943.44947   2410706.14363
  20320572.3004  -21890829.43647 -17001977.20362
 91  4 30 23 49 59.9990000  0  3G13G 2G 6
  20116366.9174  -19381284.75447 -13952730.00761
  21205249.5034    3088739.86547   2424573.46963
  20322247.9334  -21882028.81247 -16995119.58862
 91  4 30 23 50 14.9990000  0  3G13G 2G 6
  20112062.4874  -19403900.92847 -13970352.96362
  21208645.9484    3106582.14747   2438476.53463
  20323947.1904  -21873105.10047 -16988166.05062
 91  4 30 23 50 29.9990000  0  3G13G 2G 6
  20107786.0034  -19426373.89047 -13987864.32862
  21212051.5734    3124467.34147   2452413.03963
  20325667.6054  -21864061.27047 -16981118.91662
 91  4 30 23 50 44.9990000  0  3G13G 2G 6
  20103536.8864  -19448702.14247 -14005262.93162
  21215462.7144    3142396.95547   2466384.16163
  20327411.1284  -21854895.47647 -16973976.74462
 91  4 30 23 50 59.9990000  0  3G13G 2G 6
  20099315.4804  -19470884.60947 -14022547.94062
  21218882.0654    3160372.03347   2480390.70463
  20329178.5734  -21845606.62647 -16966738.68262
 91  4 30 23 51 14.9990000  0  3G13G 2G 6
  20095123.3474  -19492921.89647 -14039719.81762
  21222312.0894    3178392.03247   2494432.25863
  20330970.6124  -21836195.17247 -16959405.08662
 91  4 30 23 51 29.9990000  0  3G13G 2G 6
  20090956.6984  -19514811.76247 -14056776.82762
  21225749.7144    3196458.90847   2508510.33863
  20332784.0504  -21826658.93747 -16951974.26262
